[[{"header":{"parameterUnit":"m.s-1","parameterCategory":1,"la1":31.0,"la2":29.5877,"lo1":-88.7671,"lo2":-86.6584,"dy":0.0162,"dx":0.0185,"nx":115,"ny":88,"refTime":"2023-09-14T18:00:00:Z","depth":0,"parameterNumber":2,"parameterNumberName":"U-component_of_WINDS"},"data":[0.0,0.0,0.0,0.0,0.0,0.0,0.0,0.0,0.0,0.0,0.0,0.0,0.0,0.0,0.0,0.0,0.0,0.0,0.0,0.0,0.0,0.0,0.0,0.0,0.0,0.0,0.0,0.0,0.0,0.0,0.0,0.0,0.0,0.0,0.0,0.0,0.0,0.0,0.0,0.0,0.0,0.0,0.0,0.0,0.0,0.0,0.0,0.0,0.0,0.0,0.0,0.0,0.0,0.0,0.0,0.0,0.0,0.0,0.0,0.0,0.0,0.0,0.0,0.0,0.0,0.0,0.0,0.0,0.0,0.0,0.0,0.0,0.0,0.0,0.0,0.0,0.0,0.0,0.0,0.0,0.0,0.0,0.0,0.0,0.0,0.0,0.0,0.0,0.0,0.0,0.0,0.0,0.0,0.0,0.0,0.0,0.0,0.0,0.0,0.0,0.0,0.0,0.0,0.0,0.0,0.0,0.0,0.0,0.0,0.0,0.0,0.0,0.0,0.0,0.0,0.0,0.0,0.0,0.0,0.0,0.0,0.0,0.0,0.0,0.0,0.0,0.0,0.0,0.0,0.0,0.0,0.0,0.0,0.0,0.0,0.0,0.0,0.0,0.0,0.0,0.0,0.0,0.0,0.0,0.0,0.0,0.0,0.0,0.0,0.0,0.0,0.0,0.0,0.0,0.0,0.0,0.0,0.0,0.0,0.0,0.0,0.0,0.0,0.0,0.0,0.0,0.0,0.0,0.0,0.0,0.0,0.0,0.0,0.0,0.0,0.0,0.0,0.0,0.0,0.0,0.0,0.0,0.0,0.0,0.0,0.0,0.0,0.0,0.0,0.0,0.0,0.0,0.0,0.0,0.0,0.0,0.0,0.0,0.0,0.0,0.0,0.0,0.0,0.0,0.0,0.0,0.0,0.0,0.0,0.0,0.0,0.0,0.0,0.0,0.0,0.0,0.0,0.0,0.0,0.0,0.0,0.0,0.0,0.0,0.0,0.0,0.0,0.0,0.0,0.0,0.0,0.0,0.0,0.0,0.0,0.0,0.0,0.0,0.0,0.0,0.0,0.0,0.0,0.0,0.0,0.0,0.0,0.0,0.0,0.0,0.0,0.0,0.0,0.0,0.0,0.0,0.0,0.0,0.0,0.0,0.0,0.0,0.0,0.0,0.0,0.0,0.0,0.0,0.0,0.0,0.0,0.0,0.0,0.0,0.0,0.0,0.0,0.0,0.0,0.0,0.0,0.0,0.0,0.0,0.0,0.0,0.0,0.0,0.0,0.0,0.0,0.0,0.0,0.0,0.0,0.0,0.0,0.0,0.0,0.0,0.0,0.0,0.0,0.0,0.0,0.0,0.0,0.0,0.0,0.0,0.0,0.0,0.0,0.0,0.0,0.0,0.0,0.0,0.0,0.0,0.0,0.0,0.0,0.0,0.0,0.0,0.0,0.0,0.0,0.0,0.0,0.0,0.0,0.0,0.0,0.0,0.0,0.0,0.0,0.0,0.0,0.0,0.0,0.0,0.0,0.0,0.0,0.0,0.0,0.0,0.0,0.0,0.0,0.0,0.0,0.0,0.0,0.0,0.0,0.0,0.0,0.0,0.0,0.0,0.0,0.0,0.0,0.0,0.0,0.0,0.0,0.0,0.0,0.0,0.0,0.0,0.0,0.0,0.0,0.0,0.0,0.0,0.0,0.0,0.0,0.0,0.0,0.0,0.0,0.0,0.0,0.0,0.0,0.0,0.0,0.0,0.0,0.0,0.0,0.0,0.0,0.0,0.0,0.0,0.0,0.0,0.0,0.0,0.0,0.0,0.0,0.0,0.0,0.0,0.0,0.0,0.0,0.0,0.0,0.0,0.0,0.0,0.0,0.0,0.0,0.0,0.0,0.0,0.0,0.0,0.0,0.0,0.0,0.0,0.0,0.0,0.0,0.0,0.0,0.0,0.0,0.0,0.0,0.0,0.0,0.0,0.0,0.0,0.0,0.0,0.0,0.0,0.0,0.0,0.0,0.0,0.0,0.0,0.0,0.0,0.0,0.0,0.0,0.0,0.0,0.0,0.0,0.0,0.0,0.0,0.0,0.0,0.0,0.0,0.0,0.0,0.0,0.0,0.0,0.0,0.0,0.0,0.0,0.0,0.0,0.0,0.0,0.0,0.0,0.0,0.0,0.0,0.0,0.0,0.0,0.0,0.0,0.0,0.0,0.0,0.0,0.0,0.0,0.0,0.0,0.0,0.0,0.0,0.0,0.0,0.0,0.0,0.0,0.0,0.0,0.0,0.0,0.0,0.0,0.0,0.0,0.0,0.0,0.0,0.0,0.0,0.0,0.0,0.0,0.0,0.0,0.0,0.0,0.0,0.0,0.0,0.0,0.0,0.0,0.0,0.0,0.0,0.0,0.0,0.0,0.0,0.0,0.0,0.0,0.0,0.0,0.0,0.0,0.0,0.0,0.0,0.0,0.0,0.0,0.0,0.0,0.0,0.0,0.0,0.0,0.0,0.0,0.0,0.0,0.0,0.0,0.0,0.0,0.0,0.0,0.0,0.0,0.0,0.0,0.0,0.0,0.0,0.0,0.0,0.0,0.0,0.0,0.0,0.0,0.0,0.0,0.0,0.0,0.0,0.0,0.0,0.0,0.0,0.0,0.0,0.0,0.0,0.0,0.0,0.0,0.0,0.0,0.0,0.0,0.0,0.0,0.0,0.0,0.0,0.0,0.0,0.0,0.0,0.0,0.0,0.0,0.0,0.0,0.0,0.0,0.0,0.0,0.0,0.0,0.0,0.0,0.0,0.0,0.0,0.0,0.0,0.0,0.0,0.0,0.0,0.0,0.0,0.0,0.0,0.0,0.0,0.0,0.0,0.0,0.0,0.0,0.0,0.0,0.0,0.0,0.0,0.0,0.0,0.0,0.0,0.0,0.0,0.0,0.0,0.0,0.0,0.0,0.0,0.0,0.0,0.0,0.0,0.0,0.0,0.0,0.0,0.0,0.0,0.0,0.0,0.0,0.0,0.0,0.0,0.0,0.0,0.0,0.0,0.0,0.0,0.0,0.0,0.0,0.0,0.0,0.0,0.0,0.0,0.0,0.0,0.0,0.0,0.0,0.0,0.0,0.0,0.0,0.0,0.0,0.0,0.0,0.0,0.0,0.0,0.0,0.0,0.0,0.0,0.0,0.0,0.0,0.0,0.0,0.0,0.0,0.0,0.0,0.0,0.0,0.0,0.0,0.0,0.0,0.0,0.0,0.0,0.0,0.0,0.0,0.0,0.0,0.0,0.0,0.0,0.0,0.0,0.0,0.0,0.0,0.0,0.0,0.0,0.0,0.0,0.0,0.0,0.0,0.0,0.0,0.0,0.0,0.0,0.0,0.0,0.0,0.0,0.0,0.0,0.0,0.0,0.0,0.0,0.0,0.0,0.0,0.0,0.0,0.0,0.0,0.0,0.0,0.0,0.0,0.0,0.0,0.0,0.0,0.0,0.0,0.0,0.0,0.0,0.0,0.0,0.0,0.0,0.0,0.0,0.0,0.0,0.0,0.0,0.0,0.0,0.0,0.0,0.0,0.0,0.0,0.0,0.0,0.0,0.0,0.0,0.0,0.0,0.0,0.0,0.0,0.0,0.0,0.0,0.0,0.0,0.0,0.0,0.0,0.0,0.0,0.0,0.0,0.0,0.0,0.0,0.0,0.0,0.0,0.0,0.0,0.0,0.0,0.0,0.0,0.0,0.0,0.0,0.0,0.0,0.0,0.0,0.0,0.0,0.0,0.0,0.0,0.0,0.0,0.0,0.0,0.0,0.0,0.0,0.0,0.0,0.0,0.0,0.0,0.0,0.0,0.0,0.0,0.0,0.0,0.0,0.0,0.0,0.0,0.0,0.0,0.0,0.0,0.0,0.0,0.0,0.0,0.0,0.0,0.0,0.0,0.0,0.0,0.0,0.0,0.0,0.0,0.0,0.0,0.0,0.0,0.0,0.0,0.0,0.0,0.0,0.0,0.0,0.0,0.0,0.0,0.0,0.0,0.0,0.0,0.0,0.0,0.0,0.0,0.0,0.0,0.0,0.0,0.0,0.0,0.0,0.0,0.0,0.0,0.0,0.0,0.0,0.0,0.0,0.0,0.0,0.0,0.0,0.0,0.0,0.0,0.0,0.0,0.0,0.0,0.0,0.0,0.0,0.0,0.0,0.0,0.0,0.0,0.0,0.0,0.0,0.0,0.0,0.0,0.0,0.0,0.0,0.0,0.0,0.0,0.0,0.0,0.0,1.3687,0.0,0.0,0.0,0.0,0.0,0.0,0.0,0.0,0.0,0.0,0.0,0.0,0.0,0.0,0.0,0.0,0.0,0.0,0.0,0.0,0.0,0.0,0.0,0.0,0.0,0.0,0.0,0.0,0.0,0.0,0.0,0.0,0.0,0.0,0.0,0.0,0.0,0.0,0.0,0.0,0.0,0.0,0.0,0.0,0.0,0.0,0.0,0.0,0.0,0.0,0.0,0.0,0.0,0.0,0.0,0.0,0.0,0.0,0.0,0.0,0.0,0.0,0.0,0.0,0.0,0.0,0.0,0.0,0.0,0.0,0.0,0.0,0.0,0.0,0.0,0.0,0.0,0.0,0.0,0.0,0.0,0.0,0.0,0.0,0.0,0.0,0.0,0.0,0.0,0.0,0.0,0.0,0.0,0.0,0.0,0.0,0.0,0.0,0.0,0.0,0.0,0.0,0.0,0.0,0.0,0.0,0.0,0.0,0.0,0.0,1.4491,1.4019,1.3997,1.4175,1.448,0.0,0.0,0.0,0.0,0.0,0.0,0.0,0.0,0.0,0.0,0.0,0.0,0.0,0.0,0.0,0.0,0.0,0.0,0.0,0.0,0.0,0.0,0.0,0.0,0.0,0.0,0.0,0.0,0.0,0.0,0.0,0.0,0.0,0.0,0.0,0.0,0.0,0.0,0.0,0.0,0.0,0.0,0.0,0.0,0.0,0.0,0.0,0.0,0.0,0.0,0.0,0.0,0.0,0.0,0.0,0.0,0.0,0.0,0.0,0.0,0.0,0.0,0.0,0.0,0.0,0.0,0.0,0.0,0.0,0.0,0.0,0.0,0.0,0.0,0.0,0.0,0.0,0.0,0.0,0.0,0.0,0.0,0.0,0.0,0.0,0.0,0.0,0.0,0.0,0.0,0.0,0.0,0.0,0.0,0.0,0.0,0.0,0.0,0.0,0.0,0.0,0.0,0.0,0.0,0.0,0.0,0.0,0.0,0.0,0.0,0.0,0.0,1.5376,1.5334,1.5245,0.0,0.0,0.0,0.0,0.0,0.0,0.0,0.0,0.0,0.0,0.0,0.0,0.0,0.0,0.0,0.0,0.0,0.0,0.0,0.0,0.0,0.0,0.0,0.0,0.0,0.0,0.0,0.0,0.0,0.0,0.0,0.0,0.0,0.0,0.0,0.0,0.0,0.0,0.0,0.0,0.0,0.0,0.0,0.0,0.0,0.0,0.0,0.0,0.0,0.0,0.0,0.0,0.0,0.0,0.0,0.0,0.0,0.0,0.0,0.0,0.0,0.0,0.0,0.0,0.0,0.0,0.0,0.0,0.0,0.0,0.0,0.0,0.0,0.0,0.0,0.0,0.0,0.0,0.0,0.0,0.0,0.0,0.0,0.0,0.0,0.0,0.0,0.0,0.0,0.0,0.0,0.0,0.0,0.0,0.0,0.0,0.0,0.0,0.0,0.0,0.0,0.0,0.0,0.0,0.0,0.0,0.0,0.0,0.0,0.0,1.5549,1.6258,1.6223,0.0,1.5979,0.0,0.0,0.0,0.0,0.0,0.0,0.0,0.0,0.0,0.0,0.0,0.0,0.0,0.0,0.0,0.0,0.0,0.0,0.0,0.0,0.0,0.0,0.0,0.0,0.0,0.0,0.0,0.0,0.0,0.0,0.0,0.0,0.0,0.0,0.0,0.0,0.0,0.0,0.0,0.0,0.0,0.0,0.0,0.0,0.0,0.0,0.0,0.0,0.0,0.0,0.0,0.0,0.0,0.0,0.0,0.0,0.0,0.0,0.0,0.0,0.0,0.0,0.0,0.0,0.0,0.0,0.0,0.0,0.0,0.0,0.0,0.0,0.0,0.0,0.0,0.0,0.0,0.0,0.0,0.0,0.0,0.0,0.0,0.0,0.0,0.0,0.0,0.0,0.0,0.0,0.0,0.0,0.0,0.0,0.0,0.0,0.0,0.0,0.0,0.0,0.0,0.0,0.0,0.0,0.0,0.0,0.0,0.0,0.0,0.0,1.6566,1.6342,1.6279,1.6221,0.0,0.0,0.0,0.0,0.0,0.0,0.0,0.0,0.0,0.0,0.0,0.0,0.0,0.0,0.0,0.0,0.0,0.0,0.0,0.0,0.0,0.0,0.0,0.0,0.0,0.0,0.0,0.0,0.0,0.0,0.0,0.0,0.0,0.0,0.0,0.0,0.0,0.0,0.0,0.0,0.0,0.0,0.0,0.0,0.0,0.0,0.0,0.0,0.0,0.0,0.0,0.0,0.0,0.0,0.0,0.0,0.0,0.0,0.0,0.0,0.0,0.0,0.0,0.0,0.0,0.0,0.0,0.0,0.0,0.0,0.0,0.0,0.0,0.0,0.0,0.0,0.0,0.0,0.0,0.0,0.0,0.0,0.0,0.0,0.0,0.0,0.0,0.0,0.0,0.0,0.0,0.0,0.0,0.0,0.0,0.0,0.0,0.0,0.0,0.0,0.0,0.0,0.0,0.0,0.0,0.0,0.0,0.0,0.0,0.0,1.7631,1.7324,1.6649,1.6353,1.6204,1.6213,0.0,0.0,0.0,0.0,0.0,0.0,0.0,0.0,0.0,0.0,0.0,0.0,0.0,0.0,0.0,0.0,0.0,0.0,0.0,0.0,0.0,0.0,0.0,0.0,0.0,0.0,0.0,0.0,0.0,0.0,0.0,0.0,0.0,0.0,0.0,0.0,0.0,0.0,0.0,0.0,0.0,0.0,0.0,0.0,0.0,0.0,0.0,0.0,0.0,0.0,0.0,0.0,0.0,0.0,0.0,0.0,0.0,0.0,0.0,0.0,0.0,0.0,0.0,0.0,0.0,0.0,0.0,0.0,0.0,0.0,0.0,0.0,0.0,0.0,0.0,0.0,0.0,0.0,0.0,0.0,0.0,0.0,0.0,0.0,0.0,0.0,0.0,0.0,0.0,0.0,0.0,0.0,0.0,0.0,0.0,0.0,0.0,0.0,0.0,0.0,0.0,0.0,0.0,0.0,0.0,0.0,0.0,0.0,1.9965,1.849,1.7568,1.7462,1.6649,1.6214,0.0,0.0,0.0,0.0,0.0,0.0,0.0,0.0,0.0,0.0,0.0,0.0,0.0,0.0,0.0,0.0,0.0,0.0,0.0,0.0,0.0,0.0,0.0,0.0,0.0,0.0,0.0,0.0,0.0,0.0,0.0,0.0,0.0,0.0,0.0,0.0,0.0,0.0,0.0,0.0,0.0,0.0,0.0,0.0,0.0,0.0,0.0,0.0,0.0,0.0,0.0,0.0,0.0,0.0,0.0,0.0,0.0,0.0,0.0,0.0,0.0,0.0,0.0,0.0,0.0,0.0,0.0,0.0,0.0,0.0,0.0,0.0,0.0,0.0,0.0,0.0,0.0,0.0,0.0,0.0,0.0,0.0,0.0,0.0,0.0,0.0,0.0,0.0,0.0,0.0,0.0,0.0,0.0,0.0,0.0,0.0,0.0,0.0,0.0,0.0,0.0,0.0,0.0,0.0,0.0,0.0,0.0,0.0,0.0,1.9408,1.8792,1.8686,1.9097,1.7795,1.7053,0.0,0.0,0.0,0.0,0.0,0.0,0.0,0.0,0.0,0.0,0.0,0.0,0.0,0.0,0.0,0.0,0.0,0.0,0.0,0.0,0.0,0.0,0.0,0.0,0.0,0.0,0.0,0.0,0.0,0.0,0.0,0.0,0.0,0.0,0.0,0.0,0.0,0.0,0.0,0.0,0.0,0.0,0.0,0.0,0.0,0.0,0.0,0.0,0.0,0.0,0.0,0.0,0.0,0.0,0.0,0.0,0.0,0.0,0.0,0.0,0.0,0.0,0.0,0.0,0.0,0.0,0.0,0.0,0.0,0.0,0.0,0.0,0.0,0.0,0.0,0.0,0.0,0.0,0.0,0.0,0.0,0.0,0.0,0.0,0.0,0.0,0.0,0.0,0.0,0.0,0.0,0.0,0.0,0.0,0.0,0.0,0.0,0.0,0.0,0.0,0.0,0.0,0.0,0.0,0.0,0.0,0.0,0.0,0.0,1.9758,0.0,1.9831,1.9992,1.8669,1.7679,0.0,0.0,0.0,0.0,0.0,0.0,0.0,0.0,0.0,0.0,0.0,0.0,0.0,0.0,0.0,0.0,0.0,0.0,0.0,0.0,0.0,0.0,0.0,0.0,0.0,0.0,0.0,0.0,0.0,0.0,0.0,0.0,0.0,0.0,0.0,0.0,0.0,0.0,0.0,0.0,0.0,0.0,0.0,0.0,0.0,0.0,0.0,0.0,0.0,0.0,0.0,0.0,0.0,0.0,0.0,0.0,0.0,0.0,0.0,0.0,0.0,0.0,0.0,0.0,0.0,0.0,0.0,0.0,0.0,0.0,0.0,0.0,0.0,0.0,0.0,0.0,0.0,0.0,0.0,0.0,0.0,0.0,0.0,0.0,0.0,0.0,0.0,0.0,0.0,0.0,0.0,0.0,0.0,0.0,0.0,0.0,0.0,0.0,0.0,0.0,0.0,0.0,0.0,0.0,0.0,0.0,0.0,0.0,2.0653,2.133,2.134,2.0906,2.0055,1.9238,1.7995,0.0,0.0,0.0,0.0,0.0,0.0,0.0,0.0,0.0,0.0,0.0,0.0,0.0,0.0,0.0,0.0,0.0,0.0,0.0,0.0,0.0,0.0,0.0,0.0,0.0,0.0,0.0,0.0,0.0,0.0,0.0,0.0,0.0,0.0,0.0,0.0,0.0,0.0,0.0,0.0,0.0,0.0,0.0,0.0,0.0,0.0,0.0,0.0,0.0,0.0,0.0,0.0,0.0,0.0,0.0,0.0,0.0,0.0,0.0,0.0,0.0,0.0,0.0,0.0,0.0,0.0,0.0,0.0,0.0,0.0,0.0,0.0,0.0,0.0,0.0,0.0,0.0,0.0,0.0,0.0,0.0,0.0,0.0,0.0,0.0,0.0,0.0,0.0,0.0,0.0,0.0,0.0,0.0,0.0,0.0,0.0,0.0,0.0,0.0,0.0,0.0,0.0,0.0,0.0,0.0,0.0,0.0,0.0,0.0,2.1327,2.1244,2.1339,2.1562,1.9755,1.8772,0.0,0.0,0.0,0.0,0.0,0.0,0.0,0.0,0.0,0.0,0.0,0.0,0.0,0.0,0.0,0.0,0.0,0.0,0.0,0.0,0.0,0.0,0.0,0.0,0.0,0.0,0.0,0.0,0.0,0.0,0.0,0.0,0.0,0.0,0.0,0.0,0.0,0.0,0.0,0.0,0.0,0.0,0.0,0.0,0.0,0.0,0.0,0.0,0.0,0.0,0.0,0.0,0.0,0.0,0.0,0.0,0.0,0.0,0.0,0.0,0.0,0.0,0.0,0.0,0.0,0.0,0.0,0.0,0.0,0.0,0.0,0.0,0.0,0.0,0.0,0.0,0.0,0.0,0.0,0.0,0.0,0.0,0.0,0.0,0.0,0.0,0.0,0.0,0.0,0.0,0.0,0.0,0.0,0.0,0.0,0.0,0.0,0.0,0.0,0.0,0.0,0.0,0.0,0.0,0.0,0.0,0.0,0.0,0.0,2.2621,2.2514,2.259,2.2854,2.1053,1.9885,1.9503,0.0,0.0,0.0,0.0,0.0,0.0,0.0,0.0,0.0,0.0,0.0,0.0,0.0,0.0,0.0,0.0,0.0,0.0,0.0,0.0,0.0,0.0,0.0,0.0,0.0,0.0,0.0,0.0,0.0,0.0,0.0,0.0,0.0,0.0,0.0,0.0,0.0,0.0,0.0,0.0,0.0,0.0,0.0,0.0,0.0,0.0,0.0,0.0,0.0,0.0,0.0,0.0,0.0,0.0,0.0,0.0,0.0,0.0,0.0,0.0,0.0,0.0,0.0,0.0,0.0,0.0,0.0,0.0,0.0,0.0,0.0,0.0,0.0,0.0,0.0,0.0,0.0,0.0,0.0,0.0,0.0,0.0,0.0,0.0,0.0,0.0,0.0,0.0,0.0,0.0,0.0,0.0,0.0,0.0,0.0,0.0,0.0,0.0,0.0,0.0,0.0,0.0,0.0,0.0,0.0,0.0,0.0,0.0,2.5036,2.4993,2.462,2.3818,2.2922,2.1355,0.0,0.0,0.0,0.0,0.0,0.0,0.0,0.0,0.0,0.0,0.0,0.0,0.0,0.0,0.0,0.0,0.0,0.0,0.0,0.0,0.0,0.0,0.0,0.0,0.0,0.0,0.0,0.0,0.0,0.0,0.0,0.0,0.0,0.0,0.0,0.0,0.0,0.0,0.0,0.0,0.0,0.0,0.0,0.0,0.0,0.0,0.0,0.0,0.0,0.0,0.0,0.0,0.0,0.0,0.0,0.0,0.0,0.0,0.0,0.0,0.0,0.0,0.0,0.0,0.0,0.0,0.0,0.0,0.0,0.0,0.0,0.0,0.0,0.0,0.0,0.0,0.0,0.0,0.0,0.0,0.0,0.0,0.0,0.0,0.0,0.0,0.0,0.0,0.0,0.0,0.0,0.0,0.0,0.0,0.0,0.0,0.0,0.0,0.0,0.0,0.0,0.0,0.0,0.0,0.0,0.0,0.0,0.0,0.0,2.7642,2.756,2.7088,2.6239,2.4283,2.2682,0.0,0.0,0.0,0.0,0.0,0.0,0.0,0.0,0.0,0.0,0.0,0.0,0.0,0.0,0.0,0.0,0.0,0.0,0.0,0.0,0.0,0.0,0.0,0.0,0.0,0.0,0.0,0.0,0.0,0.0,0.0,0.0,0.0,0.0,0.0,0.0,0.0,0.0,0.0,0.0,0.0,0.0,0.0,0.0,0.0,0.0,0.0,0.0,0.0,0.0,0.0,0.0,0.0,0.0,0.0,0.0,0.0,0.0,0.0,0.0,0.0,0.0,0.0,0.0,0.0,0.0,0.0,0.0,0.0,0.0,0.0,0.0,0.0,0.0,0.0,0.0,0.0,0.0,0.0,0.0,0.0,0.0,0.0,0.0,0.0,0.0,0.0,0.0,0.0,0.0,0.0,0.0,0.0,0.0,0.0,0.0,0.0,0.0,0.0,0.0,0.0,0.0,0.0,0.0,0.0,0.0,0.0,0.0,2.6809,2.8237,2.9101,2.9168,2.8385,2.5929,2.3941,0.0,0.0,0.0,0.0,0.0,0.0,0.0,0.0,0.0,0.0,0.0,0.0,0.0,0.0,0.0,0.0,0.0,0.0,0.0,0.0,0.0,0.0,0.0,0.0,0.0,0.0,0.0,0.0,0.0,0.0,0.0,0.0,0.0,0.0,0.0,0.0,0.0,0.0,0.0,0.0,0.0,0.0,0.0,0.0,0.0,0.0,0.0,0.0,0.0,0.0,0.0,0.0,0.0,0.0,0.0,0.0,0.0,0.0,0.0,0.0,0.0,0.0,0.0,0.0,0.0,0.0,0.0,0.0,0.0,0.0,0.0,0.0,0.0,0.0,0.0,0.0,0.0,0.0,0.0,0.0,0.0,0.0,0.0,0.0,0.0,0.0,0.0,0.0,0.0,0.0,0.0,0.0,0.0,0.0,0.0,0.0,0.0,0.0,0.0,0.0,0.0,0.0,0.0,0.0,0.0,0.0,0.0,0.0,2.7668,2.7818,2.988,3.0715,3.0106,2.7544,2.5021,0.0,0.0,0.0,0.0,0.0,0.0,0.0,0.0,0.0,0.0,0.0,0.0,0.0,0.0,0.0,0.0,0.0,0.0,0.0,0.0,0.0,0.0,0.0,0.0,0.0,0.0,0.0,0.0,0.0,0.0,0.0,0.0,0.0,0.0,0.0,0.0,0.0,0.0,0.0,0.0,0.0,0.0,0.0,0.0,0.0,0.0,0.0,0.0,0.0,0.0,0.0,0.0,0.0,0.0,0.0,0.0,0.0,0.0,0.0,0.0,0.0,0.0,0.0,0.0,0.0,0.0,0.0,0.0,0.0,0.0,0.0,0.0,0.0,0.0,0.0,0.0,0.0,0.0,0.0,0.0,0.0,0.0,0.0,0.0,0.0,0.0,0.0,0.0,0.0,0.0,0.0,0.0,0.0,0.0,0.0,0.0,0.0,0.0,0.0,0.0,0.0,0.0,0.0,0.0,0.0,0.0,0.0,0.0,2.8332,2.9666,3.0113,3.0594,3.1155,2.7942,2.5373,0.0,0.0,0.0,0.0,0.0,0.0,0.0,0.0,0.0,0.0,0.0,0.0,0.0,0.0,0.0,0.0,0.0,0.0,0.0,0.0,0.0,0.0,0.0,0.0,0.0,0.0,0.0,0.0,0.0,0.0,0.0,0.0,0.0,0.0,0.0,0.0,0.0,0.0,0.0,0.0,0.0,0.0,0.0,0.0,0.0,0.0,0.0,0.0,1.8539,0.0,0.0,0.0,0.0,0.0,0.0,0.0,0.0,0.0,0.0,0.0,0.0,0.0,0.0,0.0,0.0,0.0,0.0,0.0,0.0,0.0,0.0,0.0,0.0,0.0,0.0,0.0,0.0,0.0,0.0,0.0,0.0,0.0,0.0,0.0,0.0,0.0,0.0,0.0,0.0,0.0,0.0,0.0,0.0,0.0,0.0,0.0,0.0,0.0,0.0,0.0,0.0,0.0,0.0,0.0,0.0,0.0,0.0,0.0,2.8363,2.964,3.0062,3.0509,3.0893,2.8049,2.5826,0.0,0.0,0.0,0.0,0.0,0.0,0.0,0.0,0.0,0.0,0.0,0.0,0.0,0.0,0.0,0.0,0.0,0.0,0.0,0.0,0.0,0.0,0.0,0.0,0.0,0.0,0.0,0.0,0.0,0.0,0.0,0.0,0.0,0.0,0.0,0.0,0.0,0.0,0.0,0.0,0.0,0.0,0.0,0.0,0.0,0.0,0.0,0.0,0.0,0.0,0.0,0.0,0.0,0.0,0.0,0.0,0.0,0.0,0.0,0.0,0.0,0.0,0.0,0.0,0.0,0.0,0.0,0.0,0.0,0.0,0.0,0.0,0.0,0.0,0.0,0.0,0.0,0.0,0.0,0.0,0.0,0.0,0.0,0.0,0.0,0.0,0.0,0.0,0.0,0.0,0.0,0.0,0.0,0.0,0.0,0.0,0.0,0.0,0.0,0.0,0.0,0.0,0.0,0.0,0.0,0.0,0.0,2.7443,2.8288,2.9205,3.0002,3.0455,3.0451,2.8039,2.6198,2.5157,0.0,0.0,0.0,0.0,0.0,0.0,0.0,0.0,0.0,0.0,0.0,0.0,0.0,0.0,0.0,0.0,0.0,0.0,0.0,0.0,0.0,0.0,0.0,0.0,0.0,0.0,0.0,0.0,0.0,0.0,0.0,0.0,0.0,0.0,0.0,0.0,0.0,0.0,1.9513,1.9099,0.0,0.0,0.0,0.0,0.0,0.0,0.0,0.0,1.8268,0.0,0.0,0.0,0.0,0.0,0.0,0.0,0.0,0.0,0.0,0.0,0.0,0.0,0.0,0.0,0.0,0.0,0.0,0.0,0.0,0.0,0.0,0.0,0.0,0.0,0.0,0.0,0.0,0.0,0.0,0.0,0.0,0.0,0.0,0.0,0.0,0.0,0.0,0.0,0.0,0.0,0.0,0.0,0.0,0.0,0.0,0.0,0.0,0.0,0.0,0.0,0.0,0.0,0.0,0.0,0.0,2.7547,2.7794,2.8613,3.0129,3.0378,3.049,3.0424,2.8028,2.6273,2.5271,0.0,0.0,0.0,0.0,0.0,0.0,0.0,0.0,0.0,0.0,0.0,0.0,0.0,0.0,0.0,0.0,0.0,0.0,0.0,0.0,0.0,0.0,0.0,0.0,0.0,0.0,0.0,0.0,0.0,0.0,0.0,0.0,0.0,0.0,0.0,0.0,0.0,0.0,0.0,1.8805,1.8525,0.0,0.0,0.0,0.0,0.0,0.0,0.0,0.0,1.774,0.0,0.0,0.0,0.0,0.0,0.0,0.0,0.0,0.0,0.0,0.0,0.0,0.0,0.0,0.0,0.0,0.0,0.0,0.0,0.0,0.0,0.0,0.0,0.0,0.0,0.0,0.0,0.0,0.0,0.0,0.0,0.0,0.0,0.0,0.0,0.0,0.0,0.0,0.0,0.0,0.0,0.0,0.0,0.0,0.0,0.0,0.0,0.0,0.0,0.0,0.0,0.0,0.0,0.0,0.0,2.7755,2.7852,2.8679,3.0333,3.0458,3.053,3.05,2.8073,2.6347,0.0,0.0,0.0,0.0,0.0,0.0,0.0,0.0,0.0,0.0,0.0,0.0,0.0,0.0,0.0,0.0,0.0,0.0,0.0,0.0,0.0,0.0,0.0,0.0,0.0,0.0,0.0,0.0,0.0,0.0,0.0,0.0,0.0,0.0,0.0,0.0,0.0,0.0,0.0,0.0,1.8915,1.875,1.7861,0.0,0.0,0.0,0.0,0.0,0.0,1.7445,1.7584,0.0,0.0,0.0,0.0,0.0,0.0,0.0,0.0,0.0,0.0,0.0,0.0,0.0,0.0,0.0,0.0,0.0,0.0,0.0,0.0,0.0,0.0,0.0,0.0,0.0,0.0,0.0,0.0,0.0,0.0,0.0,0.0,0.0,0.0,0.0,0.0,0.0,0.0,0.0,0.0,0.0,0.0,0.0,0.0,0.0,0.0,0.0,0.0,0.0,0.0,0.0,0.0,0.0,0.0,0.0,2.7825,2.7822,2.8668,3.0325,3.0481,3.0462,3.0322,2.7873,2.6158,0.0,0.0,0.0,0.0,0.0,0.0,0.0,0.0,0.0,0.0,0.0,0.0,0.0,0.0,0.0,0.0,0.0,0.0,0.0,0.0,0.0,0.0,0.0,0.0,0.0,0.0,0.0,0.0,0.0,0.0,0.0,0.0,0.0,0.0,0.0,0.0,0.0,0.0,0.0,0.0,0.0,1.8917,1.7699,1.8211,0.0,0.0,0.0,0.0,1.7552,1.7519,0.0,0.0,0.0,0.0,0.0,0.0,0.0,0.0,0.0,0.0,0.0,0.0,0.0,0.0,0.0,0.0,0.0,0.0,0.0,0.0,0.0,0.0,0.0,0.0,0.0,0.0,0.0,0.0,0.0,0.0,0.0,0.0,0.0,0.0,0.0,0.0,0.0,0.0,0.0,0.0,0.0,0.0,0.0,0.0,0.0,0.0,0.0,0.0,0.0,0.0,0.0,0.0,0.0,0.0,0.0,0.0,2.7806,2.7832,2.867,3.0372,3.0549,3.0253,2.954,2.7009,2.5266,0.0,0.0,0.0,0.0,0.0,0.0,0.0,0.0,0.0,0.0,0.0,0.0,0.0,0.0,0.0,0.0,0.0,0.0,0.0,0.0,0.0,0.0,0.0,0.0,0.0,0.0,0.0,0.0,0.0,0.0,0.0,0.0,0.0,0.0,0.0,0.0,0.0,0.0,0.0,0.0,0.0,1.8792,1.8344,1.8334,1.8325,0.0,0.0,1.7228,1.7711,1.7574,0.0,0.0,0.0,0.0,0.0,0.0,0.0,0.0,0.0,0.0,0.0,0.0,0.0,0.0,0.0,0.0,0.0,0.0,0.0,0.0,0.0,0.0,0.0,0.0,0.0,0.0,0.0,0.0,0.0,0.0,0.0,0.0,0.0,0.0,0.0,0.0,0.0,0.0,0.0,0.0,0.0,0.0,0.0,0.0,0.0,0.0,0.0,0.0,0.0,0.0,0.0,0.0,0.0,0.0,0.0,2.5869,2.7113,2.7528,2.8403,2.9706,3.0269,3.0152,2.9342,2.6839,2.5136,0.0,0.0,0.0,0.0,0.0,0.0,0.0,0.0,0.0,0.0,0.0,0.0,0.0,0.0,0.0,0.0,0.0,0.0,0.0,0.0,0.0,0.0,0.0,0.0,0.0,0.0,0.0,0.0,0.0,0.0,0.0,0.0,0.0,0.0,0.0,0.0,0.0,0.0,0.0,0.0,0.0,0.0,1.8329,1.8324,0.0,0.0,0.0,1.7441,1.765,0.0,0.0,0.0,0.0,0.0,0.0,0.0,0.0,0.0,0.0,0.0,0.0,0.0,0.0,0.0,0.0,0.0,0.0,0.0,0.0,0.0,0.0,0.0,0.0,0.0,0.0,0.0,0.0,0.0,0.0,0.0,0.0,0.0,0.0,0.0,0.0,0.0,0.0,0.0,0.0,0.0,0.0,0.0,0.0,0.0,0.0,0.0,0.0,0.0,0.0,0.0,0.0,0.0,0.0,0.0,0.0,0.0,2.6593,2.7351,2.8099,2.8856,2.9746,2.9699,2.8642,2.6575,0.0,0.0,0.0,0.0,0.0,0.0,0.0,0.0,0.0,0.0,0.0,0.0,0.0,0.0,0.0,0.0,0.0,0.0,0.0,0.0,0.0,0.0,0.0,0.0,0.0,0.0,0.0,1.635,0.0,0.0,0.0,0.0,0.0,0.0,0.0,0.0,0.0,0.0,0.0,0.0,0.0,0.0,2.0014,1.861,1.8466,1.8342,0.0,0.0,1.7664,1.7744,1.7985,1.7861,0.0,0.0,0.0,0.0,0.0,0.0,0.0,0.0,0.0,0.0,0.0,0.0,0.0,0.0,0.0,0.0,0.0,0.0,0.0,0.0,0.0,0.0,0.0,0.0,0.0,0.0,0.0,0.0,0.0,0.0,0.0,0.0,0.0,0.0,0.0,0.0,0.0,0.0,0.0,0.0,0.0,0.0,0.0,0.0,0.0,0.0,0.0,0.0,0.0,0.0,0.0,0.0,0.0,0.0,0.0,2.6593,2.7366,2.7873,2.8016,2.8908,2.8577,2.6917,2.5936,2.4651,0.0,0.0,0.0,0.0,0.0,0.0,0.0,0.0,0.0,0.0,0.0,0.0,0.0,0.0,0.0,0.0,0.0,0.0,0.0,0.0,0.0,0.0,0.0,0.0,0.0,0.0,0.0,0.0,0.0,0.0,0.0,0.0,0.0,0.0,0.0,0.0,0.0,0.0,0.0,0.0,0.0,1.9943,1.962,1.8826,1.8329,0.0,0.0,1.7882,1.8184,1.8366,1.8321,1.7876,0.0,0.0,0.0,0.0,0.0,0.0,0.0,0.0,0.0,0.0,0.0,0.0,0.0,0.0,0.0,0.0,0.0,0.0,0.0,0.0,0.0,0.0,0.0,0.0,0.0,0.0,0.0,0.0,0.0,0.0,0.0,0.0,0.0,0.0,0.0,0.0,0.0,0.0,0.0,0.0,0.0,0.0,0.0,0.0,0.0,0.0,0.0,0.0,0.0,0.0,0.0,0.0,0.0,2.5707,2.6593,2.7355,2.8042,2.8637,2.904,2.8676,2.7469,2.613,2.4578,0.0,0.0,0.0,0.0,0.0,0.0,0.0,0.0,0.0,0.0,0.0,0.0,0.0,0.0,0.0,0.0,0.0,0.0,0.0,0.0,0.0,0.0,0.0,0.0,0.0,0.0,0.0,0.0,1.7539,1.7221,1.7622,0.0,0.0,0.0,0.0,0.0,0.0,0.0,0.0,0.0,0.0,2.016,1.9816,1.9661,0.0,0.0,1.9209,1.8733,1.8638,1.8496,1.8016,1.691,1.7312,0.0,0.0,0.0,0.0,0.0,0.0,0.0,0.0,0.0,0.0,0.0,0.0,0.0,0.0,0.0,0.0,0.0,0.0,0.0,0.0,0.0,0.0,0.0,0.0,0.0,0.0,0.0,0.0,0.0,0.0,0.0,0.0,0.0,0.0,0.0,0.0,0.0,0.0,0.0,0.0,0.0,0.0,0.0,0.0,0.0,0.0,0.0,0.0,0.0,0.0,0.0,0.0,2.5726,2.6603,2.7358,2.7927,2.8334,2.8643,2.827,2.7142,2.5967,2.4687,0.0,0.0,0.0,0.0,0.0,0.0,0.0,0.0,0.0,0.0,0.0,0.0,0.0,0.0,0.0,0.0,0.0,0.0,0.0,0.0,0.0,0.0,0.0,0.0,0.0,0.0,0.0,0.0,1.7465,1.7165,1.7537,0.0,0.0,0.0,0.0,0.0,0.0,0.0,0.0,0.0,0.0,2.0533,1.9939,2.0115,2.0258,1.9938,1.9464,1.8991,1.8717,1.8337,1.7785,1.6925,0.0,0.0,0.0,0.0,0.0,0.0,0.0,0.0,0.0,0.0,0.0,0.0,0.0,0.0,0.0,0.0,0.0,0.0,0.0,0.0,0.0,0.0,0.0,0.0,0.0,0.0,0.0,0.0,0.0,0.0,1.7799,0.0,0.0,0.0,0.0,0.0,0.0,0.0,0.0,0.0,0.0,0.0,0.0,0.0,0.0,0.0,0.0,0.0,0.0,0.0,0.0,0.0,0.0,2.5754,2.6612,2.7459,2.7503,2.6707,2.7459,2.7142,2.5524,2.5322,2.4889,2.3976,0.0,0.0,0.0,0.0,0.0,0.0,0.0,0.0,0.0,0.0,0.0,0.0,0.0,0.0,0.0,0.0,0.0,0.0,0.0,0.0,0.0,0.0,0.0,0.0,0.0,0.0,1.9123,1.8471,1.7855,0.0,0.0,0.0,0.0,0.0,0.0,0.0,0.0,0.0,0.0,2.0707,2.1015,2.0032,1.9993,1.9705,1.8775,1.8505,1.8453,1.8436,1.7929,1.7759,0.0,0.0,0.0,0.0,0.0,0.0,0.0,0.0,0.0,0.0,0.0,0.0,0.0,0.0,0.0,0.0,0.0,0.0,0.0,0.0,0.0,0.0,0.0,0.0,0.0,0.0,0.0,1.8544,1.8621,0.0,0.0,0.0,0.0,0.0,0.0,0.0,0.0,0.0,0.0,0.0,2.2823,2.2248,0.0,0.0,0.0,0.0,0.0,0.0,0.0,0.0,0.0,0.0,0.0,0.0,2.6069,2.7467,2.7778,2.8255,2.8986,2.8268,2.7614,2.6965,2.5849,2.4777,2.3819,0.0,0.0,0.0,0.0,0.0,0.0,0.0,0.0,0.0,0.0,0.0,0.0,0.0,0.0,0.0,0.0,0.0,0.0,0.0,0.0,0.0,0.0,0.0,0.0,0.0,1.8746,0.0,0.0,0.0,0.0,0.0,0.0,0.0,0.0,0.0,0.0,0.0,1.9455,1.9415,1.9995,2.0333,2.0162,2.018,2.03,0.0,0.0,0.0,0.0,0.0,0.0,0.0,0.0,0.0,0.0,0.0,0.0,0.0,0.0,1.8763,1.8443,1.8266,1.8152,1.8194,0.0,0.0,0.0,0.0,0.0,0.0,0.0,0.0,0.0,0.0,0.0,0.0,0.0,0.0,0.0,0.0,2.0351,0.0,0.0,0.0,0.0,0.0,0.0,0.0,0.0,2.2454,2.2968,2.3642,2.308,2.3331,0.0,2.4428,2.4105,0.0,0.0,0.0,0.0,0.0,0.0,0.0,0.0,2.6566,2.7954,2.8213,2.8832,2.9771,2.8895,2.8047,2.7369,2.597,2.4885,2.4164,2.3587,2.3229,0.0,0.0,0.0,0.0,0.0,0.0,0.0,0.0,0.0,0.0,0.0,0.0,0.0,0.0,0.0,0.0,0.0,0.0,0.0,0.0,0.0,0.0,0.0,1.8646,0.0,0.0,0.0,0.0,0.0,0.0,0.0,0.0,0.0,1.8502,1.9126,1.9603,1.9557,2.0117,2.0406,2.011,0.0,0.0,0.0,0.0,0.0,0.0,0.0,1.7447,1.7413,1.7445,1.7667,1.8243,1.8789,1.9317,1.9832,0.0,0.0,1.8812,1.8605,1.8475,1.8484,1.8653,1.8922,1.9349,1.9617,1.9781,0.0,0.0,0.0,0.0,0.0,0.0,0.0,0.0,2.2393,2.2376,0.0,2.2602,0.0,0.0,0.0,0.0,0.0,2.277,0.0,0.0,2.3972,2.3848,2.3153,2.308,2.2949,2.2968,2.4678,2.5005,2.413,2.4072,0.0,0.0,0.0,0.0,0.0,0.0,2.7144,2.8039,2.8733,2.9102,2.9179,2.9162,2.8354,2.6668,2.5672,2.5111,2.4975,2.4869,2.4808,2.4654,2.3873,0.0,0.0,0.0,0.0,0.0,0.0,0.0,0.0,0.0,0.0,0.0,0.0,0.0,0.0,0.0,0.0,0.0,0.0,0.0,0.0,1.8401,0.0,0.0,0.0,0.0,0.0,0.0,0.0,0.0,0.0,0.0,1.8435,1.952,2.0376,2.02,0.0,0.0,0.0,0.0,2.0828,1.9273,1.9178,1.9285,1.9106,1.8743,1.8802,1.9662,0.0,0.0,1.9686,1.9294,1.9508,2.0892,2.0571,1.988,1.9377,1.9046,1.9022,1.9548,1.9237,1.9294,2.0251,2.0024,1.9807,2.3476,0.0,0.0,0.0,0.0,2.2068,2.2593,2.3179,2.3623,2.37,2.3547,2.3796,0.0,0.0,0.0,0.0,0.0,0.0,2.5225,2.573,2.5945,2.616,2.639,2.6367,2.6301,2.623,2.6725,2.6527,2.5715,2.5091,2.5206,2.5967,0.0,0.0,0.0,0.0,2.7401,2.8782,2.9021,2.939,3.0025,2.944,2.8249,2.644,2.5469,2.4934,2.4794,2.4772,2.466,2.4474,2.4234,0.0,0.0,0.0,0.0,0.0,0.0,0.0,0.0,0.0,0.0,0.0,0.0,0.0,0.0,0.0,0.0,0.0,0.0,0.0,1.9794,1.8589,1.8108,0.0,0.0,0.0,0.0,0.0,0.0,0.0,0.0,0.0,1.8902,1.8902,1.9253,0.0,0.0,1.9528,1.9516,1.9643,1.9817,2.0128,0.0,0.0,0.0,1.9253,1.8777,1.8945,1.9473,1.9893,2.0006,2.0362,2.0809,2.1292,2.1068,2.0745,2.0406,1.9908,1.9481,1.9252,1.9271,1.9293,1.9273,1.9472,1.975,2.5855,2.4237,2.362,2.3572,2.3869,2.4064,2.4473,2.4974,2.5144,2.4842,2.4277,2.466,2.4174,2.3111,2.3467,0.0,0.0,0.0,2.6598,2.7367,2.7343,2.7528,2.7856,2.7892,2.7827,2.7733,2.8051,2.7764,2.6967,2.6799,2.702,2.7557,0.0,0.0,2.8008,2.7806,2.8174,2.9168,2.9459,2.9836,3.0328,2.9486,2.846,2.7276,2.6337,2.5635,2.5198,2.5136,2.4867,2.4374,2.4302,2.4082,0.0,0.0,0.0,0.0,0.0,0.0,0.0,0.0,0.0,0.0,0.0,2.3458,2.3417,0.0,0.0,0.0,1.9981,1.9716,1.9757,1.9058,0.0,0.0,0.0,0.0,0.0,0.0,0.0,1.8913,1.9594,1.9965,1.9522,1.8966,1.8991,2.0089,1.9822,1.9604,1.9677,0.0,1.9905,2.0413,1.9921,1.9677,2.0429,2.0089,1.9697,1.9697,2.0147,2.0612,2.0716,2.1043,2.1394,2.1632,2.1488,2.1211,2.1162,2.0604,1.9973,1.9525,1.9636,1.9687,1.9339,1.9555,1.9731,2.8181,2.7347,2.5772,2.5567,2.6299,2.6454,2.6565,2.6694,2.6757,2.5936,2.459,2.5409,2.4957,2.3575,2.4412,0.0,2.7199,2.7202,2.7655,2.8407,2.834,2.8272,2.8186,2.8201,2.8164,2.8121,2.8852,2.8791,2.808,2.8794,2.9212,2.9151,2.6863,2.653,2.8131,2.8878,2.9245,2.9293,2.9963,3.0305,3.0273,2.9385,2.8836,2.8662,2.7793,2.6855,2.5939,2.5761,2.5245,2.4321,2.4152,2.3669,2.288,0.0,0.0,0.0,0.0,0.0,0.0,0.0,0.0,0.0,0.0,0.0,0.0,0.0,0.0,0.0,1.9127,0.0,1.9131,1.9648,0.0,0.0,0.0,2.0007,2.0478,2.0159,2.0138,2.0718,0.0,0.0,2.0191,0.0,1.9409,2.0733,2.0768,2.0492,2.0028,2.0418,2.0643,2.0311,2.037,2.0541,2.0798,2.0845,2.096,2.1145,2.1375,2.1342,2.1438,2.1334,2.1507,2.1961,2.1578,2.1166,2.1534,2.091,2.0459,2.0118,2.0093,2.0105,2.008,1.9889,1.9748,2.9814,2.9026,2.8669,2.8018,2.7224,2.7396,2.7458,2.7458,2.7563,2.7422,2.7121,2.7387,2.7333,2.7112,2.7929,2.8541,2.9018,2.9597,2.9981,3.0175,3.0056,2.997,2.991,2.9892,2.986,2.9813,3.0006,2.9975,2.9771,2.9333,2.9481,3.0064,2.8917,2.882,2.9854,2.9439,2.9506,3.01,3.0275,3.0337,3.0188,2.935,2.8812,2.8623,2.7765,2.6791,2.5708,2.569,2.5171,2.4072,2.3976,2.3826,2.3583,2.4387,0.0,0.0,0.0,0.0,0.0,0.0,0.0,0.0,0.0,2.3383,2.3157,0.0,2.2476,0.0,1.9717,1.9328,2.0382,1.9594,0.0,0.0,2.0206,2.011,2.0715,2.1274,2.1324,2.0579,2.0883,2.0981,2.0549,2.0228,2.0286,2.1023,2.0137,1.9542,1.9885,2.0211,2.0479,2.0562,2.0817,2.1036,2.1056,2.1159,2.1199,2.1237,2.1277,2.1277,2.1277,2.118,2.1135,2.1269,2.0927,2.0701,2.0718,2.0297,1.9978,1.9772,1.9772,1.9772,1.985,1.9592,1.9408,3.0204,2.979,2.9805,2.9393,2.8727,2.8736,2.8567,2.8275,2.8384,2.8259,2.7961,2.8087,2.8388,2.886,2.9335,2.9773,3.0152,3.0611,3.0799,3.0784,3.0711,3.0614,3.0548,3.0521,3.0481,3.0488,3.0433,3.0421,3.0406,2.9921,2.994,3.0386,2.9927,2.9957,3.0419,3.0375,3.0568,3.0979,3.0552,3.0247,3.0094,2.9612,2.9304,2.9172,2.8659,2.7882,2.6842,2.6805,2.6301,2.523,2.5116,2.491,2.446,2.5205,2.5433,0.0,0.0,0.0,0.0,0.0,0.0,0.0,0.0,0.0,0.0,0.0,2.2743,2.1984,2.0619,2.0303,2.1521,2.0767,2.0639,2.1673,2.1311,2.1182,2.1688,2.211,2.2206,2.182,2.1917,2.1873,2.1366,2.1145,2.1052,2.1183,2.0522,2.0039,2.018,2.0401,2.058,2.0638,2.0873,2.1019,2.1019,2.1082,2.1131,2.1144,2.1131,2.1082,2.1144,2.1046,2.0961,2.0924,2.0599,2.0321,2.0283,1.9965,1.9708,1.9604,1.9512,1.946,1.9617,1.9291,1.9052,3.0129,3.0034,3.0026,3.0085,3.0194,3.0015,2.9646,2.9194,2.9255,2.8893,2.826,2.8443,2.895,2.9658,2.9726,3.015,3.0799,3.0798,3.0793,3.0789,3.073,3.0664,3.061,3.0528,3.054,3.0588,3.0466,3.0433,3.0488,3.0433,3.0367,3.0316,3.0316,3.0386,3.0595,3.1369,3.1737,3.1684,3.081,3.0319,3.0174,3.0238,3.0243,3.021,2.9999,2.942,2.8484,2.8278,2.7714,2.6733,2.6581,2.6109,2.519,2.5837,2.5755,0.0,2.6007,0.0,0.0,0.0,0.0,0.0,0.0,0.0,0.0,2.3232,2.2984,2.2752,2.1745,2.142,2.2328,2.2276,2.2306,2.2527,2.2424,2.2491,2.2832,2.2714,2.282,2.3377,2.2994,2.2572,2.2267,2.1983,2.1698,2.1361,2.121,2.0957,2.072,2.0769,2.0799,2.063,2.0753,2.0809,2.0809,2.0871,2.0921,2.0947,2.0934,2.0947,2.0885,2.0911,2.0901,2.0838,2.0448,2.0182,2.0233,1.9875,1.9565,1.9617,1.942,1.9275,1.9368,1.9105,1.8798,3.0803,3.0163,3.0169,3.0155,3.0122,3.0128,3.0151,3.0136,3.0152,3.0143,3.0094,3.0192,3.0355,3.054,3.062,3.0723,3.0878,3.0825,3.0785,3.0798,3.0736,3.069,3.0676,3.0565,3.053,3.052,3.0436,3.039,3.0421,3.0367,3.034,3.0375,3.039,3.0748,3.1419,0.0,0.0,0.0,3.1379,3.1193,3.1096,3.1787,3.2048,3.1841,3.1184,0.0,2.9186,2.8479,2.7598,2.653,2.6388,0.0,0.0,0.0,0.0,0.0,0.0,0.0,0.0,0.0,0.0,0.0,2.3762,2.3393,2.235,2.2524,2.2753,2.2847,2.2643,2.2465,2.2316,2.2145,2.2286,2.2812,2.2738,2.2858,2.3368,2.326,2.3216,2.3319,2.2918,2.2601,2.2523,2.2184,2.1902,2.1664,2.152,2.1251,2.0966,2.0845,2.0835,2.0888,2.0875,2.0799,2.066,2.066,2.066,2.0673,2.066,2.0623,2.0573,2.0636,2.0725,2.0575,2.0246,2.0144,2.0347,1.9888,1.9473,1.9617,1.9368,1.9223,1.9368,1.8999,1.8679,3.0779,0.0,3.034,3.0329,0.0,3.034,3.0406,3.049,3.0436,3.0491,3.0603,3.0678,3.0726,3.0796,3.0834,3.0859,3.0858,3.0825,3.0788,3.0802,3.0764,3.0737,3.0695,3.0593,3.0549,3.055,3.0455,3.039,3.0383,3.0328,3.0304,3.0299,3.033,3.0529,3.0906,3.08,3.0978,3.1451,3.0977,3.0643,3.0532,3.0942,3.1101,3.0904,0.0,0.0,0.0,0.0,0.0,0.0,0.0,0.0,0.0,0.0,0.0,2.4483,2.4361,2.4104,2.3634,2.3148,2.2716,2.2313,2.2401,2.2643,2.3096,2.3068,2.3068,2.3189,2.3108,2.2902,2.274,2.2598,2.2753,2.3375,2.3311,2.3263,2.3463,2.3378,2.3275,2.3157,2.2843,2.2615,2.2601,2.2231,2.1949,2.1712,2.141,2.1091,2.0881,2.0845,2.0871,2.0822,2.0536,2.0385,2.0536,2.0472,2.0472,2.0586,2.0523,2.0422,2.0435,2.0435,2.0448,2.0347,2.008,1.9978,2.0144,1.9733,1.9328,1.942,1.921,1.9064,1.9158,1.8934,1.8679,3.0591,3.0535,3.0543,3.0535,3.0528,3.0521,3.0578,3.0621,0.0,0.0,0.0,3.0853,3.0984,3.1033,3.1028,3.1035,3.1012,3.0882,3.0804,3.0802,3.0789,3.0767,3.0707,3.064,3.0586,3.0588,3.0436,3.039,3.0375,3.0297,3.0241,3.0218,3.024,3.0275,3.0278,3.0148,3.0454,3.1143,3.0506,3.0047,2.9943,3.0019,3.002,2.9926,2.9649,2.9403,2.9263,2.9003,2.8766,2.8608,2.7752,2.7143,2.6828,2.584,2.5131,2.4797,2.4509,2.3919,2.285,2.2573,2.2061,2.1,2.1259,2.2214,2.4021,2.3608,2.3372,2.3526,2.3391,2.3254,2.3254,2.3188,2.3334,2.3879,2.3696,2.3523,2.3407,2.3319,2.3187,2.3037,2.2706,2.2612,2.268,2.2255,2.191,2.1677,2.1331,2.0858,2.056,2.0623,2.0688,2.0603,2.0182,1.99,2.0271,2.0233,2.0246,2.0435,2.0283,2.0246,2.0296,2.0296,2.0195,2.0182,1.9965,1.9914,1.9978,1.9629,1.9328,1.9433,1.9158,1.8905,1.8946,1.8893,1.8744,3.0675,3.0658,3.0671,3.0665,3.0671,3.0665,3.068,3.0685,3.0676,3.0704,3.0808,3.1578,3.1913,3.1906,3.1914,3.1908,3.1855,3.12,3.0849,0.0,3.0789,3.0759,3.0704,3.0637,3.0568,3.052,3.0375,3.0316,3.0316,3.0241,3.0207,3.0218,3.0218,3.0486,3.0994,3.0937,3.0885,3.0941,3.0989,3.097,3.0828,3.1486,3.177,3.1609,3.0649,3.0116,2.9971,2.9089,2.8554,2.835,2.8111,2.7429,2.6301,2.5829,2.5118,2.4,2.3671,2.3355,2.2975,2.2611,2.2415,2.2485,2.2646,2.2863,2.3056,2.3046,2.3208,2.3697,2.38,2.3872,2.3846,2.3631,2.3518,2.3623,2.348,2.326,2.3038,2.2979,2.2904,2.2692,2.2431,2.2522,2.289,2.2275,2.178,2.1925,2.1259,2.0597,2.0055,1.9952,2.018,2.0404,1.9967,1.976,2.0064,1.9902,1.9809,1.9901,1.9978,1.9978,1.9965,2.008,2.0131,2.0029,1.9978,1.999,2.0118,1.9823,1.9614,1.9574,1.9324,1.9112,1.8964,1.8869,1.8815,3.0747,3.0762,3.0755,3.0743,3.0747,3.0769,3.0745,3.0808,3.1254,3.1207,3.0906,3.1719,3.1843,3.146,3.1895,3.1866,3.1425,3.1067,3.0849,3.0825,3.1304,3.1226,3.0761,3.1114,3.1013,3.0528,3.0364,3.0292,3.0286,3.0142,3.0123,3.0128,3.0064,3.0174,3.0454,3.0808,3.0922,3.0803,3.0884,3.0678,3.015,3.041,3.0514,3.0357,2.9724,2.9302,2.9119,2.8505,2.8102,2.7964,2.7331,2.6626,2.5922,2.5169,2.4495,2.3852,2.3518,2.328,2.3186,2.2658,2.2522,2.2905,2.2817,2.29,2.3203,2.3345,2.3507,2.3752,2.3839,2.3839,2.3782,2.3653,2.361,2.3523,2.3407,2.3172,2.2934,2.2889,2.2814,2.2555,2.2324,2.2297,2.255,2.1925,2.1491,2.1515,2.0764,1.9965,1.9448,1.9263,1.9361,1.9768,1.9474,1.9332,1.9687,1.9592,1.9512,1.9747,1.9759,1.9811,1.9875,1.9978,1.9965,1.9926,1.9875,2.0001,2.0215,2.0117,1.9916,1.9809,1.9594,1.9389,1.9335,1.9306,1.9144,3.0795,3.0801,3.0797,3.0793,3.0795,3.079,3.0806,3.0884,3.1538,3.1548,3.1278,3.2194,3.2092,3.1231,3.1999,3.2065,3.1465,3.1046,3.0967,3.1137,3.1573,3.1376,3.0824,3.1321,3.1197,3.0527,3.0328,3.0273,3.0221,3.0056,3.0,3.0007,2.9907,2.9916,3.0088,3.064,3.0863,3.0679,3.0655,3.0318,2.9688,2.9292,2.9044,2.8929,2.8656,2.8406,2.8174,2.7922,2.7701,2.7595,2.6766,2.6162,2.5924,2.5061,2.4497,2.4397,2.4002,2.3703,2.3594,2.3114,2.2963,2.3254,2.3028,2.3059,2.342,2.3625,2.3754,2.3739,2.3711,2.3668,2.361,2.3566,2.3494,2.3422,2.329,2.3083,2.2844,2.2844,2.2678,2.237,2.2297,2.2267,2.2096,2.1759,2.1341,2.0788,2.0169,1.9577,1.9064,1.8815,1.8947,1.8917,1.8851,1.8881,1.9226,1.9165,1.9263,1.954,1.9552,1.9604,1.972,1.9759,1.9708,1.9656,1.9668,1.9815,2.0221,2.0195,2.0019,1.9897,1.9732,1.9535,1.9535,1.9471,1.9387,3.0798,3.0784,3.0793,3.08,3.0801,3.08,3.082,3.0898,3.0996,3.1406,3.2011,3.3728,3.3467,3.2231,3.285,3.3124,3.2875,3.1524,3.1194,3.1763,3.1183,3.0775,3.0692,3.0684,3.0558,3.0406,3.0267,3.0161,3.0041,3.0019,2.9924,2.9825,2.9756,3.0095,3.0735,3.0788,3.0702,3.0618,3.0509,3.0428,3.0339,2.9318,2.8761,2.8718,2.8353,2.8053,2.7893,2.7689,2.7557,2.7421,2.7192,2.7,2.674,2.6319,2.606,2.5936,2.541,2.4932,2.4547,2.4458,2.4209,2.396,2.3861,2.3721,2.3538,2.3494,2.3538,2.3538,2.3553,2.3494,2.3509,2.3407,2.3275,2.3112,2.3037,2.2843,2.2706,2.2661,2.2463,2.2091,2.238,2.2622,2.2432,2.2109,2.1416,2.0425,2.0194,1.9778,1.9047,1.9006,1.8892,1.8468,1.8193,1.8444,1.892,1.8842,1.8875,1.904,1.9186,1.9291,1.9408,1.9396,1.9291,1.9408,1.9251,1.9393,1.9836,1.9989,1.9768,1.9901,1.9734,1.9506,1.9249,1.9228,1.9194,3.0798,3.0801,3.0788,3.0791,3.0794,3.0796,3.0816,3.0875,3.1399,3.1532,3.1549,3.3127,3.3199,3.2148,3.2478,3.2372,3.1833,3.1139,3.0953,3.1287,3.139,3.1177,3.072,3.1052,3.0921,3.0379,3.0247,3.0118,3.0,2.9872,2.9753,2.9664,2.9645,2.9814,3.0054,3.0847,3.1221,3.1075,3.1415,3.1359,3.0741,2.9448,2.8644,2.8543,2.8273,2.7996,2.7818,2.7647,2.7513,2.7425,2.723,2.707,2.6926,2.6538,2.6314,2.6241,2.5754,2.5301,2.495,2.4686,2.4498,2.4291,2.4109,2.394,2.3812,2.3711,2.3668,2.3668,2.3436,2.3216,2.3172,2.3038,2.2904,2.2843,2.2812,2.2721,2.2523,2.2569,2.2431,2.1991,2.2297,2.2533,2.2437,2.227,2.1721,2.0835,2.0382,1.98,1.9059,1.8863,1.8604,1.8228,1.8084,1.8219,1.8481,1.853,1.8595,1.8721,1.8881,1.8999,1.9093,1.9146,1.9093,1.9146,1.904,1.9138,1.9696,1.9805,1.9674,1.9788,2.003,1.9889,1.9308,1.9208,1.912,3.0755,3.0789,3.0793,3.0789,3.0799,3.0799,3.0789,3.0832,3.1447,3.1476,3.1231,3.2167,3.2409,3.2082,3.2056,3.1718,3.1161,3.0867,3.0884,3.104,3.1462,3.1235,3.0637,3.1058,3.096,3.0363,3.0213,3.0083,2.9907,2.9718,2.9551,2.9471,2.9735,2.9787,2.9731,3.0964,3.1531,3.1371,3.1808,3.1701,3.0903,2.9817,2.8925,2.8416,2.8164,2.794,2.773,2.7557,2.7421,2.7327,2.7184,2.7038,2.6893,2.6572,2.633,2.6118,2.5807,2.547,2.5107,2.4806,2.458,2.4498,2.425,2.4124,2.4024,2.3882,2.3739,2.3653,2.3275,2.3023,2.3038,2.2934,2.2814,2.2692,2.2735,2.2689,2.2523,2.2623,2.264,2.2255,2.2793,2.2923,2.2692,2.2512,2.2005,2.1207,2.0638,1.9967,1.9214,1.8797,1.8507,1.8162,1.8084,1.8084,1.8096,1.8205,1.8356,1.853,1.8625,1.8744,1.8774,1.8774,1.8839,1.8732,1.8774,1.8964,1.944,1.9551,1.9432,1.9715,1.9755,1.964,1.9108,1.9131,1.9133,3.0703,3.0709,3.0759,3.0784,3.0789,3.0794,3.0755,3.0706,3.0778,3.115,3.1579,3.1158,3.1236,3.1838,3.189,3.1942,3.1799,3.1052,3.1076,3.1573,3.1017,3.0588,3.0422,3.0402,3.0343,3.0218,3.0228,3.0035,2.9701,2.9547,2.9347,2.9314,3.0035,3.0296,3.0289,3.1035,3.1364,3.1308,3.1347,3.1066,3.0704,3.0481,2.9672,2.8365,2.794,2.7801,2.7574,2.7469,2.7327,2.7152,2.7103,2.7006,2.6893,2.6572,2.6154,2.5712,2.5632,2.548,2.5132,2.5029,2.4869,2.457,2.4488,2.4374,2.4181,2.3882,2.3653,2.3553,2.3171,2.2992,2.3187,2.3142,2.3053,2.2843,2.2781,2.2721,2.2569,2.289,2.3096,2.3035,2.3602,2.3918,2.3468,2.2852,2.22,2.1504,2.1091,2.0574,1.9482,1.9078,1.8717,1.8317,1.8084,1.8084,1.8084,1.8084,1.8193,1.8247,1.8302,1.8367,1.8367,1.8302,1.8302,1.8302,1.8127,1.8366,1.9004,1.9204,1.9057,1.8949,1.8692,1.85,1.8512,1.8902,1.8867,3.0698,3.0691,3.0717,3.0737,3.0743,3.0697,3.0644,3.0644,3.0579,3.0718,3.0914,3.0635,3.0665,3.0917,3.0964,3.1036,3.1105,3.0789,3.0776,3.0963,3.0627,3.0409,3.0374,3.0732,3.0596,3.0202,3.0522,3.06,3.0373,3.0637,3.0738,3.0654,3.0882,3.0931,3.0836,3.1438,3.1801,3.1779,3.2108,3.1978,3.1248,3.1138,3.0482,2.9325,2.8719,2.8364,2.8227,2.7569,2.7358,2.7707,2.7131,2.6725,2.6572,2.6279,2.601,2.5766,2.6005,2.6092,2.5887,2.5645,2.544,2.5129,2.4606,2.4265,2.4082,2.3925,2.3797,2.3668,2.3494,2.3304,2.3098,2.2918,2.2692,2.2601,2.2569,2.2537,2.2505,2.263,2.2791,2.307,2.382,2.4286,2.4155,2.3861,2.3162,2.2146,2.1549,2.0673,1.9625,1.8923,1.8503,1.8336,1.8139,1.7963,1.7963,1.7963,1.7963,1.792,1.792,1.7865,1.781,1.7689,1.7689,1.7689,1.7579,1.7623,1.8238,1.8385,1.8289,1.8247,1.7921,1.7804,1.7835,1.8105,1.7994,3.0676,3.0668,3.0668,3.0653,3.0649,3.0593,3.0557,3.0567,3.0521,3.0481,3.0441,3.0417,3.0356,3.0356,3.0364,3.0422,3.0546,3.053,3.0462,3.0402,3.0344,3.0267,3.0327,3.0933,3.0934,3.0511,3.1031,3.1129,3.0816,3.1283,3.1483,3.1352,3.1558,3.1528,3.1436,3.2029,3.2385,3.2439,3.2778,3.2491,3.1643,3.1621,3.0997,2.9715,2.9164,2.8871,2.8531,2.7562,2.7178,2.7471,2.6842,2.6365,2.612,2.5885,2.5701,2.5616,2.5889,2.6046,2.5911,2.5841,2.5623,2.5195,2.494,2.463,2.4119,2.4275,2.4219,2.3848,2.3703,2.3526,2.3097,2.2692,2.2477,2.2523,2.2463,2.2477,2.2491,2.2601,2.2983,2.3523,2.4031,2.4327,2.4289,2.416,2.3401,2.2302,2.1496,2.0652,1.9625,1.8905,1.8344,1.8247,1.8084,1.7909,1.7799,1.7689,1.7689,1.7634,1.7579,1.7468,1.7301,1.719,1.7134,1.7134,1.7134,1.719,1.7298,1.7494,1.7564,1.7621,1.7414,1.7185,1.7242,1.7197,1.7262,3.0593,3.0604,3.0623,3.0567,3.052,3.0501,3.0482,3.0501,3.0481,3.0417,3.0323,3.0355,3.0299,3.0241,3.0267,3.0304,3.0285,3.0285,3.0241,3.0216,3.0213,3.0185,3.0193,3.1054,3.1367,3.1147,3.16,3.1483,3.0982,3.1407,3.1591,3.155,3.2074,3.2244,3.2002,3.2619,3.2983,3.2836,3.2827,3.2346,3.1517,3.1876,3.1163,2.9219,2.921,2.9023,2.8403,2.7366,2.6826,2.6724,2.6329,2.5941,2.5626,2.54,2.5246,2.5294,2.5249,2.5171,2.5179,2.5456,2.5268,2.4856,2.5314,2.5166,2.4487,2.4762,2.4759,2.4,2.3819,2.3676,2.3122,2.2735,2.2629,2.2749,2.2629,2.2569,2.2726,2.3075,2.3625,2.4246,2.442,2.4218,2.3863,2.3628,2.3034,2.1898,2.1125,2.0469,1.9589,1.8982,1.8518,1.8127,1.7963,1.781,1.759,1.7423,1.7412,1.7412,1.7412,1.7301,1.7078,1.6909,1.6909,1.6853,1.6864,1.6909,1.692,1.7102,1.7084,1.7085,1.6848,1.6722,1.6688,1.6742,1.6958,3.0586,3.053,3.0521,3.053,3.0491,3.0491,3.049,3.0419,3.0371,3.0311,3.0228,3.0199,3.0157,3.0123,3.0109,3.0075,3.0011,2.9984,3.0015,3.0185,3.057,3.072,3.0953,3.2052,3.2674,3.248,3.1992,3.1963,3.215,3.2238,3.2467,3.2821,3.2974,3.2954,3.2611,3.284,3.2638,3.2125,3.2441,3.2168,3.1331,3.1304,3.0924,3.0195,2.9247,2.8476,2.8101,2.7233,2.6894,2.7086,2.6294,2.561,2.5169,2.5091,2.5091,2.5037,2.5544,2.5726,2.5579,2.5503,2.5555,2.5415,2.4969,2.4791,2.4852,2.4804,2.4771,2.4515,2.4315,2.3868,2.3586,2.3057,2.2778,2.2675,2.2555,2.269,2.3084,2.3823,2.4343,2.4417,2.438,2.4096,2.3742,2.3336,2.2441,2.1545,2.0929,2.0345,1.954,1.8851,1.8464,1.8247,1.803,1.77,1.7534,1.7312,1.7256,1.719,1.7134,1.7078,1.6909,1.674,1.6694,1.6637,1.6637,1.6637,1.6648,1.669,1.6738,1.6691,1.6555,1.6451,1.6308,1.6382,1.6614,3.0781,3.0469,3.0469,3.0458,3.0417,3.0447,3.0417,3.0371,3.033,3.0234,3.018,3.0113,3.0072,3.0022,2.9975,2.9943,2.9857,2.9771,2.994,3.0253,3.0373,3.0527,3.0659,3.1767,3.2774,3.2988,3.2144,3.1946,3.2408,3.2262,3.2305,3.2566,3.2591,3.2365,3.2181,3.2076,3.168,3.1315,3.1792,3.1522,3.0569,3.0645,3.037,2.9403,2.8562,2.7947,2.7487,2.6808,2.6549,2.6631,2.5837,2.5091,2.467,2.471,2.471,2.4789,2.5152,2.5475,2.5368,2.5288,2.5333,2.5238,2.476,2.4358,2.4682,2.4621,2.5029,2.4391,2.4382,2.4098,2.354,2.304,2.279,2.2851,2.2879,2.3041,2.3603,2.4109,2.4462,2.4336,2.4054,2.369,2.3231,2.2616,2.1719,2.1004,2.0496,2.0089,1.9336,1.8774,1.8506,1.8193,1.7865,1.7645,1.7423,1.7312,1.7145,1.7022,1.6853,1.6797,1.6684,1.6581,1.6477,1.6477,1.6477,1.6477,1.6534,1.6477,1.6483,1.6374,1.6374,1.629,1.6158,1.606,1.6153,3.1222,3.0494,3.0398,3.0367,3.0316,3.0379,3.0359,3.0304,3.0305,3.0226,3.0128,3.0102,3.0007,2.9888,2.9874,2.9842,2.9754,2.9645,2.985,3.0129,2.9997,2.9773,3.0203,3.091,3.1818,3.2612,3.1908,3.158,3.175,3.1384,3.1188,3.1328,3.1238,3.0936,3.1002,3.0801,3.0642,3.0467,3.103,3.0454,2.8858,2.9833,2.9592,2.7419,2.7674,2.7537,2.6705,2.6222,2.5954,2.5787,2.5107,2.4589,2.4343,2.4234,2.4276,2.4302,2.4457,2.4663,2.4725,2.4856,2.4887,2.4589,2.4762,2.4845,2.4087,2.4758,2.4941,2.3841,2.4185,2.4144,2.3198,2.2718,2.2869,2.3283,2.351,2.3794,2.417,2.4119,2.4304,2.4312,2.3729,2.303,2.2615,2.1943,2.1108,2.027,1.9756,1.9417,1.9023,1.856,1.8236,1.7975,1.77,1.7468,1.7301,1.719,1.7022,1.6864,1.6694,1.6637,1.6581,1.6477,1.6374,1.6374,1.6374,1.6374,1.6374,1.6374,1.6374,1.6374,1.6306,1.6192,1.6009,1.5826,1.5682,3.1506,3.1161,3.0593,3.033,3.0304,3.0316,3.0336,3.0304,3.0305,3.0232,3.0098,3.0053,2.9924,2.9751,2.9753,2.9663,2.9532,2.9474,2.9427,2.9462,2.937,3.0089,3.1012,3.1321,3.1593,3.1922,3.1159,3.0941,3.1366,3.0754,3.0648,3.1101,3.0885,3.082,3.0797,3.0505,3.0089,2.9614,3.0057,2.9767,2.8708,2.8747,2.8562,2.7861,2.7671,2.7226,2.631,2.5738,2.5378,2.5153,2.4791,2.4416,2.4151,2.4193,2.4193,2.4151,2.4333,2.4673,2.4898,2.4606,2.4574,2.5168,2.4477,2.4193,2.464,2.4564,2.4571,2.4229,2.4245,2.3879,2.3429,2.2948,2.3065,2.3815,2.4176,2.4586,2.4845,2.5003,2.5039,2.4901,2.4068,2.3189,2.2255,2.1493,2.0625,1.9701,1.9198,1.8946,1.856,1.8236,1.7865,1.7767,1.7545,1.7312,1.7134,1.7011,1.6899,1.6694,1.6524,1.642,1.642,1.6374,1.6374,1.6374,1.6374,1.6374,1.6374,1.6374,1.6374,1.6363,1.6181,1.6009,1.5662,1.5371,1.5254,3.1914,3.1584,3.0963,3.0737,3.072,3.0407,3.0241,3.0234,3.018,3.0113,3.0007,2.9943,2.9841,2.9698,2.9682,2.9532,2.9373,2.933,2.9407,2.9559,2.9531,3.012,3.0868,3.0785,3.083,3.1347,3.0233,3.0119,3.0472,2.9892,2.9719,2.9834,2.9909,2.9845,2.9663,2.9519,2.9148,2.8747,2.9105,2.8955,2.7939,2.8098,2.7828,2.7451,2.714,2.6643,2.5881,2.5454,2.5162,2.4855,2.4589,2.4317,2.4124,2.4135,2.4151,2.4082,2.4291,2.4559,2.4648,2.4265,2.4217,2.4522,2.3792,2.3702,2.3987,2.3985,2.4141,2.3702,2.3702,2.3525,2.3093,2.2828,2.3045,2.3491,2.4142,2.4731,2.5381,2.5451,2.519,2.4653,2.3822,2.2826,2.1709,2.0825,1.9973,1.923,1.8762,1.8441,1.817,1.7854,1.7601,1.7545,1.7434,1.72,1.7022,1.6909,1.6627,1.6467,1.6181,1.6144,1.6202,1.6259,1.6316,1.6316,1.6374,1.6374,1.6363,1.6306,1.6306,1.6249,1.6056,1.5826,1.543,1.5147,1.5029,3.2409,3.2086,3.1588,3.1405,3.1259,3.0638,3.0266,3.0109,3.0068,2.9975,2.9893,2.9842,2.9754,2.9681,2.9626,2.9511,2.9272,2.9246,2.9457,2.9624,2.9691,2.9844,2.9844,2.946,2.9783,3.0435,2.9325,2.9239,2.945,2.8913,2.8564,2.8648,2.8506,2.8344,2.8477,2.8213,2.7929,2.7988,2.8378,2.8164,2.7461,2.7571,2.7419,2.6918,2.6548,2.6204,2.574,2.5374,2.5084,2.4782,2.4482,2.4276,2.4166,2.4024,2.4024,2.4124,2.4208,2.4296,2.4231,2.4033,2.3786,2.3747,2.3437,2.2992,2.3088,2.3331,2.331,2.2733,2.3098,2.2838,2.2451,2.256,2.2846,2.3111,2.3428,2.4312,2.5159,2.5397,2.4874,2.3986,2.3096,2.2031,2.0955,2.0011,1.9283,1.8714,1.8344,1.8073,1.7854,1.7579,1.7479,1.749,1.7323,1.7145,1.692,1.6751,1.6467,1.6192,1.5846,1.573,1.5904,1.5961,1.6134,1.6249,1.6192,1.6192,1.6249,1.6249,1.6192,1.6009,1.5778,1.5546,1.5323,1.5029,1.4862,3.3101,3.4032,3.2672,3.1813,3.139,3.1096,3.062,3.0094,3.0019,2.9943,2.9876,2.9825,2.9719,2.9532,2.955,2.947,2.9243,2.9178,2.9173,2.8925,2.8815,2.8781,2.8815,2.8648,2.888,2.9116,2.8822,2.8619,2.8621,2.855,2.8327,2.8191,2.8136,2.8081,2.7922,2.7864,2.7777,2.7665,2.7735,2.7535,2.7158,2.6979,2.6974,2.6796,2.6444,2.6221,2.6022,2.5346,2.4838,2.4645,2.4426,2.4234,2.4067,2.404,2.3997,2.3982,2.4097,2.4322,2.447,2.3981,2.379,2.3866,2.3317,2.2933,2.2795,2.2651,2.254,2.2184,2.206,2.1925,2.1746,2.2283,2.2531,2.271,2.311,2.3554,2.3712,2.3715,2.369,2.3336,2.2648,2.1652,2.0565,1.9963,1.9161,1.8328,1.7909,1.77,1.7468,1.7245,1.719,1.72,1.6976,1.674,1.657,1.6343,1.6009,1.572,1.5439,1.5264,1.543,1.5604,1.5778,1.5894,1.5961,1.5961,1.6066,1.6009,1.5894,1.572,1.5546,1.5381,1.5215,1.4921,1.4803,3.2443,3.3242,3.2166,3.1521,3.1172,3.0774,3.0357,2.9978,2.9907,2.9823,2.9755,2.9701,2.957,2.9414,2.9414,2.933,2.9178,2.9044,2.8858,2.8612,2.8476,2.8406,2.8318,2.8327,2.838,2.8406,2.8335,2.8228,2.8146,2.8091,2.7979,2.7882,2.7842,2.7795,2.7672,2.7612,2.7522,2.7465,2.7327,2.7137,2.6992,2.6775,2.6534,2.6447,2.6034,2.5759,2.56,2.5107,2.4717,2.4523,2.4343,2.4193,2.4124,2.4024,2.3982,2.394,2.3882,2.3975,2.3983,2.3629,2.3259,2.3489,2.2942,2.2718,2.2583,2.2385,2.2184,2.203,2.1759,2.1568,2.134,2.1627,2.1934,2.1903,2.2183,2.2329,2.2365,2.2789,2.2844,2.2441,2.1764,2.0857,2.006,1.9492,1.8979,1.803,1.7744,1.7534,1.7245,1.7011,1.6909,1.6797,1.657,1.6343,1.6161,1.5884,1.5488,1.5254,1.502,1.4902,1.4893,1.5128,1.5303,1.542,1.5604,1.5768,1.5816,1.571,1.5662,1.5672,1.5498,1.5274,1.5098,1.4852,1.4852,3.1484,3.1957,3.1412,3.1149,3.1072,3.041,3.0014,2.979,2.9699,2.9664,2.9589,2.9531,2.9434,2.9314,2.9312,2.9206,2.9048,2.8863,2.8669,2.8484,2.8432,2.8327,2.8209,2.8154,2.8099,2.8109,2.8081,2.795,2.7836,2.7719,2.7672,2.7587,2.7526,2.7496,2.7448,2.7307,2.7261,2.7264,2.7105,2.7007,2.6942,2.6708,2.638,2.5889,2.5715,2.5322,2.514,2.4782,2.4549,2.4498,2.4261,2.4193,2.4124,2.4024,2.394,2.3897,2.3739,2.3611,2.3408,2.3023,2.2737,2.2569,2.2431,2.2324,2.2231,2.2137,2.1935,2.1793,2.1554,2.1348,2.1131,2.1184,2.1135,2.1023,2.0947,2.1009,2.1212,2.2101,2.1786,2.1179,2.0693,2.0007,1.9251,1.8569,1.8228,1.7854,1.7579,1.7301,1.7011,1.6729,1.656,1.6343,1.6056,1.5526,1.5294,1.5235,1.4843,1.4725,1.4538,1.4478,1.4419,1.4538,1.4706,1.5059,1.5235,1.5352,1.5468,1.5352,1.542,1.5556,1.5449,1.5088,1.4911,1.4784,1.4852,3.1751,3.2822,3.2178,3.1936,3.1845,3.1016,3.0227,2.9739,2.957,2.9551,2.9569,2.9471,2.9353,2.9312,2.9307,2.9156,2.8934,2.8767,2.8637,2.8458,2.8353,2.8227,2.8126,2.7986,2.7888,2.7736,2.7748,2.7748,2.7719,2.7659,2.7531,2.7341,2.7425,2.7397,2.7287,2.712,2.7139,2.7089,2.6959,2.6893,2.6809,2.6521,2.6118,2.5632,2.5639,2.5433,2.4901,2.4686,2.4564,2.4482,2.4343,2.4177,2.4024,2.3882,2.3754,2.364,2.3566,2.3334,2.2979,2.2799,2.254,2.2324,2.2137,2.2077,2.1935,2.1746,2.1554,2.1313,2.1006,2.0759,2.056,2.0709,2.0723,2.0646,2.0607,2.0584,2.0284,2.0345,2.0545,2.0035,1.9629,1.9303,1.8661,1.8116,1.7843,1.7523,1.7245,1.6965,1.674,1.6389,1.6046,1.5826,1.5536,1.4951,1.4369,1.43,1.413,1.413,1.401,1.4079,1.401,1.3941,1.4121,1.4469,1.4706,1.4765,1.4883,1.5001,1.501,1.5088,1.497,1.4843,1.4784,1.4675,1.4803,3.073,3.1124,3.082,3.0706,3.0632,3.0317,2.9886,2.953,2.9414,2.9412,2.939,2.9307,2.9203,2.916,2.9134,2.8998,2.8815,2.8785,2.8612,2.8432,2.8264,2.8144,2.8042,2.7946,2.7783,2.7647,2.76,2.7522,2.7461,2.7417,2.7466,2.7684,2.7736,2.7703,2.7604,2.7588,2.7282,2.7062,2.6826,2.6759,2.6674,2.6312,2.5881,2.5659,2.5449,2.5161,2.477,2.4498,2.4359,2.4234,2.4036,2.3909,2.3782,2.3668,2.3553,2.3466,2.3348,2.3098,2.2709,2.2572,2.2324,2.2044,2.1888,2.1746,2.165,2.1471,2.118,2.0921,2.0772,2.0459,2.0156,2.0359,2.0321,2.0093,2.0129,1.9915,1.9554,1.9368,1.9191,1.9069,1.8814,1.8499,1.8205,1.7788,1.7512,1.719,1.6909,1.6627,1.64,1.5931,1.5468,1.505,1.4706,1.4231,1.3709,1.3588,1.3588,1.3588,1.3588,1.3657,1.3718,1.3649,1.37,1.3932,1.4112,1.4291,1.4588,1.4824,1.4725,1.4743,1.4793,1.4852,1.4675,1.4616,1.4743,2.9803,2.958,2.9429,2.9442,2.9508,2.9446,2.939,2.9272,2.9251,2.9267,2.9262,2.9152,2.9062,2.9017,2.897,2.8881,2.8737,2.8761,2.8594,2.8406,2.8291,2.8154,2.8042,2.7882,2.7766,2.7617,2.7496,2.7386,2.7276,2.723,2.7463,2.7537,2.7793,2.7828,2.7641,2.7471,2.7284,2.6962,2.6623,2.6521,2.6364,2.6099,2.5787,2.553,2.5068,2.4742,2.4539,2.4317,2.4166,2.4024,2.3824,2.3638,2.3566,2.3407,2.3334,2.3378,2.3098,2.2844,2.2618,2.2402,2.2137,2.1902,2.1712,2.1554,2.1361,2.1215,2.097,2.0673,2.0422,2.0321,2.0016,1.9952,1.9862,1.967,1.9506,1.9329,1.8915,1.8583,1.8271,1.8109,1.7963,1.7788,1.7512,1.7446,1.7179,1.6729,1.64,1.6171,1.5826,1.5235,1.4706,1.4163,1.3752,1.345,1.3094,1.2972,1.3033,1.3103,1.3172,1.3302,1.3354,1.3415,1.3519,1.3631,1.3692,1.3932,1.4291,1.4597,1.4556,1.4625,1.4803,1.4803,1.4625,1.4565,1.4625,3.0113,3.0443,2.9653,2.9678,3.0054,2.9499,2.9218,2.9112,2.9112,2.9156,2.9156,2.9085,2.8994,2.8952,2.8929,2.8858,2.8785,2.8712,2.8594,2.8432,2.83,2.8209,2.8071,2.7893,2.7719,2.7587,2.7483,2.7359,2.7247,2.7166,2.7074,2.7114,2.725,2.7029,2.7044,2.7077,2.669,2.6536,2.6382,2.6225,2.6043,2.5917,2.5712,2.5355,2.5068,2.4735,2.4482,2.4234,2.4051,2.394,2.3839,2.3696,2.361,2.3407,2.3246,2.3157,2.2963,2.2754,2.2495,2.231,2.2077,2.1855,2.1746,2.1616,2.1313,2.097,2.0723,2.061,2.022,1.9965,1.9823,1.9772,1.9552,1.927,1.9068,1.8701,1.8244,1.7834,1.7512,1.7323,1.7179,1.7022,1.6797,1.6899,1.6899,1.6389,1.5931,1.5642,1.5177,1.446,1.3932,1.339,1.3025,1.2728,1.2666,1.2482,1.2544,1.2674,1.2867,1.2997,1.3111,1.3233,1.3407,1.3519,1.3571,1.3631,1.3932,1.4181,1.4327,1.4446,1.4565,1.4565,1.4515,1.4506,1.4565,2.97,2.9857,2.9376,2.9341,2.9531,2.9191,2.8975,2.8863,2.8791,2.8791,2.8834,2.8761,2.8737,2.8761,2.8737,2.8662,2.8587,2.8515,2.8518,2.8308,2.8174,2.8073,2.8014,2.7824,2.7647,2.7587,2.7483,2.739,2.731,2.725,2.7192,2.7335,2.7334,2.7331,2.6731,2.6931,2.6678,2.6355,2.6099,2.5954,2.5787,2.5728,2.5562,2.5185,2.5013,2.4735,2.4426,2.4177,2.3925,2.3726,2.348,2.3246,2.3157,2.3038,2.2873,2.2828,2.2692,2.2601,2.2509,2.2324,2.2091,2.1855,2.165,2.1361,2.1019,2.0772,2.0485,2.0283,2.008,1.9823,1.9565,1.9356,1.9081,1.8809,1.8466,1.8032,1.7545,1.7084,1.6759,1.6597,1.64,1.6285,1.6171,1.6114,1.6093,1.5748,1.5225,1.4756,1.4213,1.3494,1.3025,1.2605,1.2305,1.2058,1.2058,1.205,1.2174,1.2367,1.2621,1.2744,1.2928,1.3111,1.3285,1.3398,1.3511,1.3571,1.37,1.3881,1.4139,1.4267,1.4327,1.4387,1.4446,1.4515,1.4506,2.9184,2.927,2.9134,2.9062,2.9017,2.8881,2.8785,2.8687,2.8569,2.8536,2.851,2.844,2.8396,2.8324,2.8198,2.7941,2.7915,2.7833,2.7691,2.7585,2.753,2.7483,2.7441,2.7373,2.7377,2.7569,2.7438,2.7327,2.7227,2.7095,2.7055,2.7521,2.6961,2.6785,2.6584,2.6198,2.5746,2.557,2.5693,2.5642,2.5562,2.5492,2.5323,2.513,2.4918,2.4664,2.4287,2.4051,2.3797,2.3494,2.3216,2.3024,2.2875,2.2566,2.2489,2.2383,2.2309,2.2221,2.2211,2.2184,2.1996,2.1759,2.1471,2.1118,2.0871,2.0686,2.0448,2.0093,1.9888,1.9565,1.9239,1.8987,1.8602,1.8112,1.7684,1.7247,1.6866,1.6493,1.6161,1.5954,1.5778,1.5652,1.5478,1.5371,1.5186,1.5001,1.4529,1.3992,1.3321,1.265,1.2413,1.2182,1.1996,1.1747,1.1747,1.1809,1.1872,1.2058,1.2313,1.2621,1.2805,1.2989,1.3103,1.3277,1.345,1.3511,1.3519,1.3761,1.395,1.4079,1.4258,1.4378,1.4446,1.4455,1.4515,2.8616,2.9302,2.9048,2.8966,2.9026,2.8743,2.8612,2.8471,2.8474,2.8414,2.8327,2.8138,2.801,2.7759,2.7234,2.6879,2.6772,2.6056,2.5959,2.5879,2.5738,2.6212,2.6426,2.6592,2.6748,2.7187,2.6999,2.6908,2.6914,2.6353,2.6432,2.6539,2.6017,2.5375,2.495,2.4664,2.4606,2.4693,2.5072,2.5351,2.5269,2.523,2.5121,2.4942,2.4673,2.4371,2.4147,2.3952,2.3711,2.3392,2.3025,2.2848,2.2568,2.2015,2.1853,2.1891,2.1617,2.1583,2.1769,2.1894,2.1773,2.1568,2.1277,2.1033,2.0835,2.0485,2.0195,1.999,1.9681,1.9254,1.8951,1.859,1.787,1.7289,1.6776,1.6427,1.6115,1.5924,1.5625,1.5342,1.5205,1.5069,1.4775,1.4597,1.4529,1.4341,1.3803,1.3208,1.2781,1.2236,1.2112,1.1872,1.1747,1.1622,1.1622,1.1685,1.1747,1.1872,1.212,1.2428,1.2744,1.2858,1.2981,1.3224,1.3407,1.3398,1.3459,1.37,1.389,1.401,1.413,1.4318,1.4446,1.4455,1.4506,2.786,2.8484,2.7732,2.7761,2.8323,2.842,2.8101,2.7673,2.7869,2.7961,2.7876,2.7771,2.7403,2.683,2.6417,2.5906,2.5599,2.5286,2.5087,2.5195,2.5317,2.5439,2.5599,2.5553,2.5621,2.5897,2.5781,2.5914,2.6121,2.5588,2.5447,2.5313,2.4763,2.4329,2.3793,2.3503,2.3619,2.4015,2.4479,2.4745,2.4974,2.5013,2.4958,2.4735,2.4664,2.4415,2.4147,2.3994,2.3711,2.3347,2.279,2.2483,2.2148,2.1398,2.1109,2.1189,2.0845,2.0931,2.1282,2.1505,2.1589,2.1326,2.1109,2.0861,2.0759,2.0459,2.0131,1.9823,1.9294,1.8782,1.8049,1.741,1.6699,1.6202,1.5839,1.5532,1.5339,1.5245,1.5185,1.498,1.4784,1.4597,1.4231,1.3881,1.3812,1.3683,1.3086,1.2544,1.2174,1.1934,1.1809,1.1747,1.1685,1.156,1.156,1.1622,1.1685,1.1809,1.1934,1.2243,1.256,1.2744,1.2928,1.3111,1.3294,1.3285,1.3407,1.3649,1.383,1.395,1.4139,1.4387,1.4455,1.4455,1.4506,2.6792,2.7313,2.6326,2.6599,2.7616,2.7551,2.7068,2.6534,2.6672,2.6922,2.6987,2.6736,2.6402,2.5819,2.5071,2.4655,2.413,2.3825,2.3816,2.3823,2.3893,2.4236,2.4362,2.444,2.4547,2.4658,2.4675,2.4879,2.5171,2.4662,2.4315,2.3934,2.3589,2.3046,2.307,2.2805,2.2984,2.3433,2.3897,2.4277,2.4672,2.4791,2.4791,2.4564,2.4523,2.4343,2.4094,2.3925,2.3668,2.3171,2.2615,2.2077,2.1557,2.0984,2.0443,2.034,2.0291,2.0288,2.0858,2.1145,2.1348,2.1109,2.0647,2.0515,2.0432,2.0077,1.9271,1.9037,1.859,1.7897,1.6945,1.6232,1.5711,1.5244,1.5109,1.4877,1.4783,1.4724,1.47,1.4616,1.4428,1.4309,1.3692,1.3329,1.3033,1.2964,1.2597,1.2174,1.1934,1.1747,1.1685,1.1622,1.1622,1.156,1.1498,1.156,1.1622,1.1553,1.1747,1.2127,1.2375,1.256,1.2805,1.305,1.3172,1.3164,1.3346,1.3528,1.3709,1.389,1.4139,1.4455,1.4455,1.4455,1.4556,2.5411,2.5883,2.4992,2.5649,2.7024,2.5958,2.5365,2.5174,2.5062,2.5248,2.5581,2.4934,2.4758,2.4662,2.3636,2.2996,2.2603,2.2031,2.1817,2.2052,2.2335,2.2592,2.2979,2.3291,2.3489,2.4333,2.416,2.389,2.4113,2.352,2.2981,2.2557,2.22,2.1876,2.2228,2.2007,2.211,2.2639,2.3295,2.378,2.4309,2.4433,2.4353,2.4287,2.4276,2.4124,2.3982,2.3839,2.3522,2.298,2.2322,2.1801,2.1456,2.0189,1.9922,2.0601,1.9988,2.0213,2.1097,2.1059,2.0841,2.0756,2.0309,1.9868,1.9786,1.9095,1.8105,1.793,1.7287,1.644,1.5723,1.5122,1.4663,1.4367,1.415,1.4242,1.4194,1.4424,1.4423,1.4378,1.4258,1.4028,1.3338,1.2789,1.2367,1.2182,1.1926,1.174,1.1622,1.1498,1.1498,1.1435,1.1435,1.1435,1.1435,1.1498,1.156,1.1498,1.1615,1.1996,1.2189,1.2313,1.256,1.292,1.2989,1.2928,1.3172,1.3476,1.3649,1.395,1.4267,1.4515,1.4515,1.4515,1.4616,2.2981,2.3975,2.2926,2.337,2.4752,2.4917,2.4483,2.3896,2.389,2.4033,2.4166,2.3852,2.3424,2.3029,2.257,2.1856,2.1358,2.1165,2.0942,2.115,2.1308,2.1624,2.2007,2.22,2.2374,2.2504,2.2543,2.2781,2.29,2.2459,2.2328,2.1951,2.1471,2.1182,2.1128,2.1135,2.1509,2.2232,2.2481,2.2758,2.3606,2.3705,2.3681,2.3631,2.3865,2.3891,2.3806,2.3591,2.321,2.2597,2.1911,2.1407,2.0882,1.9664,1.9223,1.9487,1.8919,1.854,1.9001,1.9071,1.9697,1.9855,1.9718,1.913,1.8971,1.8044,1.7345,1.6676,1.6036,1.526,1.4563,1.3918,1.3436,1.317,1.3103,1.3442,1.3616,1.4118,1.4327,1.4139,1.4019,1.3657,1.3103,1.2605,1.2243,1.1941,1.1809,1.1553,1.1373,1.131,1.1254,1.1247,1.1247,1.131,1.131,1.1435,1.156,1.1553,1.1677,1.1872,1.1996,1.2058,1.2313,1.2621,1.2683,1.2683,1.305,1.3346,1.3709,1.401,1.4267,1.4455,1.4515,1.4565,1.4725,2.1016,2.1801,2.1028,2.1107,2.1931,2.3022,2.2989,2.2274,2.2134,2.2273,2.2625,2.2529,2.2216,2.1689,2.1249,2.0976,2.041,2.0292,2.0345,2.0599,2.0861,2.1023,2.1167,2.1277,2.1533,2.1433,2.1435,2.1585,2.194,2.1743,2.1577,2.1417,2.1163,2.0856,2.0675,2.0782,2.1177,2.1729,2.1848,2.2013,2.2601,2.2821,2.2928,2.3006,2.3096,2.319,2.3215,2.3041,2.2631,2.1919,2.1298,2.0712,2.0026,1.9248,1.8574,1.8439,1.8326,1.7952,1.804,1.7978,1.8509,1.866,1.8486,1.8142,1.7603,1.6581,1.5867,1.5278,1.4776,1.4074,1.3309,1.2684,1.2536,1.2287,1.2547,1.2887,1.3203,1.3687,1.4022,1.3903,1.3786,1.3312,1.2895,1.249,1.212,1.1872,1.1685,1.1413,1.1156,1.1185,1.1122,1.1122,1.1115,1.1185,1.131,1.1435,1.149,1.1615,1.174,1.1809,1.1872,1.1926,1.2182,1.2367,1.2421,1.2536,1.2911,1.3285,1.358,1.389,1.4207,1.4327,1.4446,1.4616,1.4725,1.9647,1.9584,1.9409,1.9086,1.9001,2.0333,2.0671,2.0322,1.9681,2.0079,2.1121,2.0574,2.045,2.0582,1.9927,1.9585,1.954,1.9468,1.9621,1.9844,2.0154,2.0361,2.0563,2.0745,2.0909,2.1071,2.1135,2.1119,2.1215,2.1198,2.105,2.0854,2.084,2.0595,2.0527,2.0605,2.0995,2.1317,2.1203,2.1406,2.1873,2.1925,2.2149,2.2295,2.2289,2.2342,2.2263,2.1963,2.1389,2.0775,2.0237,1.9735,1.9085,1.829,1.8205,1.8104,1.8074,1.7727,1.738,1.7134,1.6799,1.6636,1.6348,1.619,1.5935,1.5147,1.4429,1.3918,1.3462,1.2779,1.2072,1.204,1.195,1.2001,1.22,1.2485,1.2777,1.3185,1.3575,1.3626,1.3553,1.3279,1.2789,1.2387,1.1936,1.1677,1.1472,1.1196,1.1041,1.1163,1.1108,1.1122,1.1122,1.1185,1.1303,1.1365,1.149,1.1553,1.1622,1.1685,1.174,1.1779,1.1858,1.2035,1.2189,1.2358,1.2575,1.2926,1.3398,1.3709,1.4019,1.4267,1.4387,1.4506,1.4675,1.7039,1.7486,1.7584,1.7804,1.8069,1.749,1.75,1.7985,1.7848,1.8273,1.8992,1.8729,1.8859,1.8983,1.8578,1.8441,1.8368,1.8426,1.8775,1.9104,1.9479,1.9732,2.0,2.0243,2.0395,2.0512,2.0628,2.0744,2.076,2.0744,2.0711,2.0626,2.0561,2.046,2.0426,2.0441,2.0771,2.0916,2.0615,2.0764,2.0986,2.1038,2.1341,2.1515,2.1465,2.1521,2.1635,2.1218,2.0579,1.9875,1.9597,1.9224,1.8598,1.7932,1.7552,1.6784,1.6487,1.6097,1.5684,1.5463,1.5143,1.4672,1.4323,1.4456,1.4314,1.3895,1.3105,1.2753,1.2535,1.2054,1.1769,1.1669,1.1619,1.171,1.193,1.2254,1.2552,1.2884,1.3226,1.3076,1.3014,1.2873,1.2465,1.2103,1.1711,1.1441,1.1189,1.1017,1.0938,1.1069,1.0953,1.0891,1.1037,1.1078,1.1212,1.1351,1.1421,1.1498,1.156,1.1615,1.1608,1.1626,1.1606,1.1684,1.1875,1.1972,1.2035,1.2497,1.297,1.3433,1.3761,1.4019,1.4327,1.4446,1.4616,1.5143,1.5474,1.5805,1.6204,1.6325,1.5296,1.5161,1.5666,1.6135,1.6732,1.7298,1.7413,1.7363,1.7341,1.7255,1.7281,1.7474,1.7469,1.7847,1.8631,1.8884,1.9132,1.9464,1.9717,1.9874,1.996,2.01,2.0273,2.0292,2.0392,2.0392,2.0239,2.0273,2.0323,2.0254,2.0181,2.0299,2.035,2.0279,2.015,2.0175,2.0221,2.0439,2.068,2.0615,2.0643,2.0825,2.0257,1.95,1.8823,1.8577,1.8274,1.7699,1.7118,1.6527,1.5804,1.5482,1.5108,1.474,1.4381,1.3868,1.3372,1.3035,1.3076,1.3096,1.2791,1.24,1.2094,1.1895,1.1678,1.1528,1.1427,1.1368,1.1326,1.1714,1.2104,1.2408,1.272,1.2634,1.2444,1.2321,1.2282,1.2025,1.1736,1.1498,1.1368,1.1219,1.1085,1.0902,1.0941,1.0667,1.0428,1.0763,1.0944,1.1138,1.1265,1.1447,1.1524,1.156,1.1615,1.16,1.1461,1.1367,1.1466,1.1609,1.1721,1.1794,1.2111,1.2538,1.2937,1.3374,1.3588,1.399,1.4387,1.4556,1.383,1.3689,1.4124,1.4355,1.4169,1.3703,1.3501,1.3476,1.4517,1.5378,1.5973,1.6269,1.6126,1.5983,1.591,1.6126,1.6346,1.6445,1.6989,1.8157,1.8369,1.8559,1.8688,1.9095,1.9141,1.9332,1.9504,1.9602,1.9893,1.9943,1.9838,1.9773,1.9995,2.008,1.999,1.9797,1.9837,1.9924,1.9743,1.9546,1.9531,1.9457,1.9391,1.9649,1.9358,1.9013,1.9056,1.8617,1.7895,1.7557,1.7269,1.7057,1.662,1.61,1.5445,1.504,1.4731,1.4351,1.4025,1.3705,1.3324,1.29,1.2627,1.245,1.2311,1.2221,1.1986,1.1769,1.1569,1.1477,1.1377,1.1318,1.1318,1.1327,1.1559,1.1756,1.1918,1.2086,1.1948,1.1768,1.175,1.1704,1.1676,1.1399,1.1066,1.1123,1.0997,1.085,1.0732,1.0664,1.0618,1.0244,1.064,1.0984,1.0979,1.1134,1.1406,1.1534,1.1556,1.1622,1.1615,1.1387,1.11,1.116,1.1225,1.1465,1.1682,1.1822,1.2008,1.253,1.287,1.3135,1.3569,1.4145,1.4437,1.279,1.265,1.2816,1.2904,1.2897,1.2547,1.2596,1.2943,1.3041,1.3839,1.4693,1.4807,1.4843,1.4843,1.4712,1.4868,1.5073,1.5555,1.6023,1.689,1.7517,1.7646,1.7716,1.8299,1.8356,1.817,1.831,1.8901,1.9151,1.9256,1.9435,1.9681,1.9818,1.9797,1.9762,1.9508,1.9435,1.953,1.9087,1.9011,1.9176,1.8999,1.8874,1.9049,1.8857,1.8452,1.8357,1.7906,1.7293,1.6837,1.6565,1.6262,1.5812,1.5232,1.4834,1.4512,1.4129,1.3789,1.3457,1.318,1.29,1.2618,1.2332,1.2076,1.1927,1.1828,1.1728,1.1519,1.1368,1.1267,1.1226,1.1217,1.1234,1.1285,1.137,1.1386,1.1402,1.1381,1.1296,1.1242,1.1216,1.1209,1.1254,1.1069,1.0725,1.0505,1.0394,1.0302,1.0183,1.0192,1.0697,1.0588,1.0805,1.1033,1.0902,1.0924,1.1121,1.1328,1.135,1.1461,1.1571,1.1299,1.0975,1.079,1.0766,1.1113,1.1246,1.118,1.1495,1.2078,1.2443,1.268,1.3339,1.3957,1.424,1.188,1.17,1.171,1.1868,1.1964,1.1699,1.1808,1.215,1.2175,1.2672,1.3538,1.3743,1.3849,1.3884,1.3778,1.3957,1.4245,1.4676,1.5235,1.5971,1.6584,1.6652,1.7008,1.747,1.7468,1.7363,1.8035,1.852,1.8563,1.8905,1.9258,1.9406,1.9457,1.9493,1.9435,1.9213,1.9064,1.9161,1.8475,1.8358,1.863,1.8428,1.8285,1.8384,1.8181,1.7866,1.7492,1.7106,1.6701,1.6194,1.5901,1.5546,1.5198,1.48,1.4419,1.414,1.3752,1.3324,1.2987,1.2754,1.2569,1.2372,1.2126,1.1918,1.1769,1.1678,1.1528,1.1318,1.1267,1.1175,1.1074,1.1074,1.0972,1.098,1.1115,1.1208,1.1214,1.1218,1.1035,1.0837,1.0899,1.1005,1.1059,1.1118,1.0786,1.0666,1.0413,1.029,1.0103,0.9814,1.0335,1.0635,1.0718,1.066,1.0485,1.0594,1.0828,1.0953,1.1055,1.1108,1.1115,1.0967,1.085,1.0731,1.0649,1.0853,1.0917,1.0951,1.1182,1.1684,1.201,1.2216,1.2991,1.3775,1.4076,1.1178,1.0907,1.0834,1.1036,1.131,1.0997,1.1104,1.1443,1.1615,1.1965,1.2532,1.3119,1.3116,1.3104,1.3198,1.3571,1.3912,1.4199,1.465,1.5106,1.5878,1.5903,1.6114,1.6547,1.6664,1.6994,1.7534,1.7855,1.8035,1.8435,1.8757,1.8945,1.9064,1.9087,1.9011,1.8822,1.863,1.8461,1.8028,1.7666,1.7666,1.7747,1.7666,1.7488,1.7269,1.7044,1.667,1.6331,1.6025,1.5695,1.529,1.4869,1.4547,1.4233,1.3952,1.361,1.3372,1.2987,1.2754,1.252,1.2372,1.2175,1.1977,1.1828,1.1678,1.1528,1.1326,1.1175,1.1124,1.1023,1.0972,1.0871,1.0828,1.0777,1.0938,1.1099,1.1079,1.1031,1.0829,1.0577,1.0648,1.0808,1.0825,1.09,1.0805,1.0704,1.0625,1.053,1.035,1.0035,1.007,1.0159,1.0203,1.0111,1.006,1.0272,1.0528,1.0602,1.0682,1.0646,1.0703,1.0784,1.0806,1.0718,1.0731,1.0835,1.0895,1.0979,1.124,1.1607,1.1898,1.2305,1.2896,1.365,1.4055,1.0991,1.0718,1.0479,1.0477,1.062,1.0262,1.0524,1.116,1.1376,1.1688,1.2117,1.2615,1.2908,1.2896,1.2931,1.3161,1.3334,1.368,1.3864,1.4199,1.5099,1.5169,1.5222,1.5634,1.6035,1.6374,1.6638,1.6807,1.7119,1.7674,1.8114,1.8321,1.8646,1.8598,1.833,1.8159,1.7985,1.7733,1.7422,1.7047,1.6824,1.6909,1.7005,1.685,1.6595,1.6522,1.6345,1.5927,1.5728,1.5406,1.4898,1.4276,1.3941,1.3705,1.342,1.318,1.29,1.2608,1.2372,1.2126,1.1927,1.1868,1.1669,1.1578,1.1477,1.1427,1.1226,1.1023,1.0922,1.0922,1.082,1.0871,1.0828,1.0777,1.0828,1.0981,1.0988,1.091,1.0775,1.0561,1.0478,1.05,1.0385,1.0414,1.0344,1.0228,1.0192,1.01,1.0155,1.0004,0.9842,0.9835,0.9775,0.9776,0.9843,0.9987,1.0207,1.0272,1.0438,1.059,1.0694,1.0725,1.0718,1.0895,1.0913,1.0894,1.0966,1.1281,1.1638,1.2047,1.2175,1.2526,1.3063,1.3535,1.406]},{"header":{"parameterUnit":"m.s-1","parameterCategory":1,"la1":31.0,"la2":29.5877,"lo1":-88.7671,"lo2":-86.6584,"dy":0.0162,"dx":0.0185,"nx":115,"ny":88,"refTime":"2023-09-14T18:00:00:Z","depth":0,"parameterNumber":3,"parameterNumberName":"V-component_of_WINDS"},"data":[0.0,0.0,0.0,0.0,0.0,0.0,0.0,0.0,0.0,0.0,0.0,0.0,0.0,0.0,0.0,0.0,0.0,0.0,0.0,0.0,0.0,0.0,0.0,0.0,0.0,0.0,0.0,0.0,0.0,0.0,0.0,0.0,0.0,0.0,0.0,0.0,0.0,0.0,0.0,0.0,0.0,0.0,0.0,0.0,0.0,0.0,0.0,0.0,0.0,0.0,0.0,0.0,0.0,0.0,0.0,0.0,0.0,0.0,0.0,0.0,0.0,0.0,0.0,0.0,0.0,0.0,0.0,0.0,0.0,0.0,0.0,0.0,0.0,0.0,0.0,0.0,0.0,0.0,0.0,0.0,0.0,0.0,0.0,0.0,0.0,0.0,0.0,0.0,0.0,0.0,0.0,0.0,0.0,0.0,0.0,0.0,0.0,0.0,0.0,0.0,0.0,0.0,0.0,0.0,0.0,0.0,0.0,0.0,0.0,0.0,0.0,0.0,0.0,0.0,0.0,0.0,0.0,0.0,0.0,0.0,0.0,0.0,0.0,0.0,0.0,0.0,0.0,0.0,0.0,0.0,0.0,0.0,0.0,0.0,0.0,0.0,0.0,0.0,0.0,0.0,0.0,0.0,0.0,0.0,0.0,0.0,0.0,0.0,0.0,0.0,0.0,0.0,0.0,0.0,0.0,0.0,0.0,0.0,0.0,0.0,0.0,0.0,0.0,0.0,0.0,0.0,0.0,0.0,0.0,0.0,0.0,0.0,0.0,0.0,0.0,0.0,0.0,0.0,0.0,0.0,0.0,0.0,0.0,0.0,0.0,0.0,0.0,0.0,0.0,0.0,0.0,0.0,0.0,0.0,0.0,0.0,0.0,0.0,0.0,0.0,0.0,0.0,0.0,0.0,0.0,0.0,0.0,0.0,0.0,0.0,0.0,0.0,0.0,0.0,0.0,0.0,0.0,0.0,0.0,0.0,0.0,0.0,0.0,0.0,0.0,0.0,0.0,0.0,0.0,0.0,0.0,0.0,0.0,0.0,0.0,0.0,0.0,0.0,0.0,0.0,0.0,0.0,0.0,0.0,0.0,0.0,0.0,0.0,0.0,0.0,0.0,0.0,0.0,0.0,0.0,0.0,0.0,0.0,0.0,0.0,0.0,0.0,0.0,0.0,0.0,0.0,0.0,0.0,0.0,0.0,0.0,0.0,0.0,0.0,0.0,0.0,0.0,0.0,0.0,0.0,0.0,0.0,0.0,0.0,0.0,0.0,0.0,0.0,0.0,0.0,0.0,0.0,0.0,0.0,0.0,0.0,0.0,0.0,0.0,0.0,0.0,0.0,0.0,0.0,0.0,0.0,0.0,0.0,0.0,0.0,0.0,0.0,0.0,0.0,0.0,0.0,0.0,0.0,0.0,0.0,0.0,0.0,0.0,0.0,0.0,0.0,0.0,0.0,0.0,0.0,0.0,0.0,0.0,0.0,0.0,0.0,0.0,0.0,0.0,0.0,0.0,0.0,0.0,0.0,0.0,0.0,0.0,0.0,0.0,0.0,0.0,0.0,0.0,0.0,0.0,0.0,0.0,0.0,0.0,0.0,0.0,0.0,0.0,0.0,0.0,0.0,0.0,0.0,0.0,0.0,0.0,0.0,0.0,0.0,0.0,0.0,0.0,0.0,0.0,0.0,0.0,0.0,0.0,0.0,0.0,0.0,0.0,0.0,0.0,0.0,0.0,0.0,0.0,0.0,0.0,0.0,0.0,0.0,0.0,0.0,0.0,0.0,0.0,0.0,0.0,0.0,0.0,0.0,0.0,0.0,0.0,0.0,0.0,0.0,0.0,0.0,0.0,0.0,0.0,0.0,0.0,0.0,0.0,0.0,0.0,0.0,0.0,0.0,0.0,0.0,0.0,0.0,0.0,0.0,0.0,0.0,0.0,0.0,0.0,0.0,0.0,0.0,0.0,0.0,0.0,0.0,0.0,0.0,0.0,0.0,0.0,0.0,0.0,0.0,0.0,0.0,0.0,0.0,0.0,0.0,0.0,0.0,0.0,0.0,0.0,0.0,0.0,0.0,0.0,0.0,0.0,0.0,0.0,0.0,0.0,0.0,0.0,0.0,0.0,0.0,0.0,0.0,0.0,0.0,0.0,0.0,0.0,0.0,0.0,0.0,0.0,0.0,0.0,0.0,0.0,0.0,0.0,0.0,0.0,0.0,0.0,0.0,0.0,0.0,0.0,0.0,0.0,0.0,0.0,0.0,0.0,0.0,0.0,0.0,0.0,0.0,0.0,0.0,0.0,0.0,0.0,0.0,0.0,0.0,0.0,0.0,0.0,0.0,0.0,0.0,0.0,0.0,0.0,0.0,0.0,0.0,0.0,0.0,0.0,0.0,0.0,0.0,0.0,0.0,0.0,0.0,0.0,0.0,0.0,0.0,0.0,0.0,0.0,0.0,0.0,0.0,0.0,0.0,0.0,0.0,0.0,0.0,0.0,0.0,0.0,0.0,0.0,0.0,0.0,0.0,0.0,0.0,0.0,0.0,0.0,0.0,0.0,0.0,0.0,0.0,0.0,0.0,0.0,0.0,0.0,0.0,0.0,0.0,0.0,0.0,0.0,0.0,0.0,0.0,0.0,0.0,0.0,0.0,0.0,0.0,0.0,0.0,0.0,0.0,0.0,0.0,0.0,0.0,0.0,0.0,0.0,0.0,0.0,0.0,0.0,0.0,0.0,0.0,0.0,0.0,0.0,0.0,0.0,0.0,0.0,0.0,0.0,0.0,0.0,0.0,0.0,0.0,0.0,0.0,0.0,0.0,0.0,0.0,0.0,0.0,0.0,0.0,0.0,0.0,0.0,0.0,0.0,0.0,0.0,0.0,0.0,0.0,0.0,0.0,0.0,0.0,0.0,0.0,0.0,0.0,0.0,0.0,0.0,0.0,0.0,0.0,0.0,0.0,0.0,0.0,0.0,0.0,0.0,0.0,0.0,0.0,0.0,0.0,0.0,0.0,0.0,0.0,0.0,0.0,0.0,0.0,0.0,0.0,0.0,0.0,0.0,0.0,0.0,0.0,0.0,0.0,0.0,0.0,0.0,0.0,0.0,0.0,0.0,0.0,0.0,0.0,0.0,0.0,0.0,0.0,0.0,0.0,0.0,0.0,0.0,0.0,0.0,0.0,0.0,0.0,0.0,0.0,0.0,0.0,0.0,0.0,0.0,0.0,0.0,0.0,0.0,0.0,0.0,0.0,0.0,0.0,0.0,0.0,0.0,0.0,0.0,0.0,0.0,0.0,0.0,0.0,0.0,0.0,0.0,0.0,0.0,0.0,0.0,0.0,0.0,0.0,0.0,0.0,0.0,0.0,0.0,0.0,0.0,0.0,0.0,0.0,0.0,0.0,0.0,0.0,0.0,0.0,0.0,0.0,0.0,0.0,0.0,0.0,0.0,0.0,0.0,0.0,0.0,0.0,0.0,0.0,0.0,0.0,0.0,0.0,0.0,0.0,0.0,0.0,0.0,0.0,0.0,0.0,0.0,0.0,0.0,0.0,0.0,0.0,0.0,0.0,0.0,0.0,0.0,0.0,0.0,0.0,0.0,0.0,0.0,0.0,0.0,0.0,0.0,0.0,0.0,0.0,0.0,0.0,0.0,0.0,0.0,0.0,0.0,0.0,0.0,0.0,0.0,0.0,0.0,0.0,0.0,0.0,0.0,0.0,0.0,0.0,0.0,0.0,0.0,0.0,0.0,0.0,0.0,0.0,0.0,0.0,0.0,0.0,0.0,0.0,0.0,0.0,0.0,0.0,0.0,0.0,0.0,0.0,0.0,0.0,0.0,0.0,0.0,0.0,0.0,0.0,0.0,0.0,0.0,0.0,0.0,0.0,0.0,0.0,0.0,0.0,0.0,0.0,0.0,0.0,0.0,0.0,0.0,0.0,0.0,0.0,0.0,0.0,0.0,0.0,0.0,0.0,0.0,0.0,0.0,0.0,0.0,0.0,0.0,0.0,0.0,0.0,0.0,0.0,0.0,0.0,0.0,0.0,0.0,0.0,0.0,0.0,0.0,0.0,0.0,0.0,0.0,0.0,0.0,0.0,0.0,0.0,0.0,0.0,0.0,0.0,0.0,0.0,0.0,0.0,0.0,0.0,0.0,0.0,0.0,0.0,0.0,0.0,0.0,0.0,0.0,0.0,0.0,0.0,0.0,0.0,0.0,0.0,0.0,0.0,0.0,0.0,0.0,0.0,0.0,0.0,0.0,0.0,0.0,0.0,-0.2568,0.0,0.0,0.0,0.0,0.0,0.0,0.0,0.0,0.0,0.0,0.0,0.0,0.0,0.0,0.0,0.0,0.0,0.0,0.0,0.0,0.0,0.0,0.0,0.0,0.0,0.0,0.0,0.0,0.0,0.0,0.0,0.0,0.0,0.0,0.0,0.0,0.0,0.0,0.0,0.0,0.0,0.0,0.0,0.0,0.0,0.0,0.0,0.0,0.0,0.0,0.0,0.0,0.0,0.0,0.0,0.0,0.0,0.0,0.0,0.0,0.0,0.0,0.0,0.0,0.0,0.0,0.0,0.0,0.0,0.0,0.0,0.0,0.0,0.0,0.0,0.0,0.0,0.0,0.0,0.0,0.0,0.0,0.0,0.0,0.0,0.0,0.0,0.0,0.0,0.0,0.0,0.0,0.0,0.0,0.0,0.0,0.0,0.0,0.0,0.0,0.0,0.0,0.0,0.0,0.0,0.0,0.0,0.0,0.0,0.0,-0.2004,-0.2252,-0.25,-0.282,-0.3177,0.0,0.0,0.0,0.0,0.0,0.0,0.0,0.0,0.0,0.0,0.0,0.0,0.0,0.0,0.0,0.0,0.0,0.0,0.0,0.0,0.0,0.0,0.0,0.0,0.0,0.0,0.0,0.0,0.0,0.0,0.0,0.0,0.0,0.0,0.0,0.0,0.0,0.0,0.0,0.0,0.0,0.0,0.0,0.0,0.0,0.0,0.0,0.0,0.0,0.0,0.0,0.0,0.0,0.0,0.0,0.0,0.0,0.0,0.0,0.0,0.0,0.0,0.0,0.0,0.0,0.0,0.0,0.0,0.0,0.0,0.0,0.0,0.0,0.0,0.0,0.0,0.0,0.0,0.0,0.0,0.0,0.0,0.0,0.0,0.0,0.0,0.0,0.0,0.0,0.0,0.0,0.0,0.0,0.0,0.0,0.0,0.0,0.0,0.0,0.0,0.0,0.0,0.0,0.0,0.0,0.0,0.0,0.0,0.0,0.0,0.0,0.0,-0.2989,-0.3294,-0.3766,0.0,0.0,0.0,0.0,0.0,0.0,0.0,0.0,0.0,0.0,0.0,0.0,0.0,0.0,0.0,0.0,0.0,0.0,0.0,0.0,0.0,0.0,0.0,0.0,0.0,0.0,0.0,0.0,0.0,0.0,0.0,0.0,0.0,0.0,0.0,0.0,0.0,0.0,0.0,0.0,0.0,0.0,0.0,0.0,0.0,0.0,0.0,0.0,0.0,0.0,0.0,0.0,0.0,0.0,0.0,0.0,0.0,0.0,0.0,0.0,0.0,0.0,0.0,0.0,0.0,0.0,0.0,0.0,0.0,0.0,0.0,0.0,0.0,0.0,0.0,0.0,0.0,0.0,0.0,0.0,0.0,0.0,0.0,0.0,0.0,0.0,0.0,0.0,0.0,0.0,0.0,0.0,0.0,0.0,0.0,0.0,0.0,0.0,0.0,0.0,0.0,0.0,0.0,0.0,0.0,0.0,0.0,0.0,0.0,0.0,-0.2812,-0.316,-0.3337,0.0,-0.4282,0.0,0.0,0.0,0.0,0.0,0.0,0.0,0.0,0.0,0.0,0.0,0.0,0.0,0.0,0.0,0.0,0.0,0.0,0.0,0.0,0.0,0.0,0.0,0.0,0.0,0.0,0.0,0.0,0.0,0.0,0.0,0.0,0.0,0.0,0.0,0.0,0.0,0.0,0.0,0.0,0.0,0.0,0.0,0.0,0.0,0.0,0.0,0.0,0.0,0.0,0.0,0.0,0.0,0.0,0.0,0.0,0.0,0.0,0.0,0.0,0.0,0.0,0.0,0.0,0.0,0.0,0.0,0.0,0.0,0.0,0.0,0.0,0.0,0.0,0.0,0.0,0.0,0.0,0.0,0.0,0.0,0.0,0.0,0.0,0.0,0.0,0.0,0.0,0.0,0.0,0.0,0.0,0.0,0.0,0.0,0.0,0.0,0.0,0.0,0.0,0.0,0.0,0.0,0.0,0.0,0.0,0.0,0.0,0.0,0.0,-0.3108,-0.3436,-0.3721,-0.3969,0.0,0.0,0.0,0.0,0.0,0.0,0.0,0.0,0.0,0.0,0.0,0.0,0.0,0.0,0.0,0.0,0.0,0.0,0.0,0.0,0.0,0.0,0.0,0.0,0.0,0.0,0.0,0.0,0.0,0.0,0.0,0.0,0.0,0.0,0.0,0.0,0.0,0.0,0.0,0.0,0.0,0.0,0.0,0.0,0.0,0.0,0.0,0.0,0.0,0.0,0.0,0.0,0.0,0.0,0.0,0.0,0.0,0.0,0.0,0.0,0.0,0.0,0.0,0.0,0.0,0.0,0.0,0.0,0.0,0.0,0.0,0.0,0.0,0.0,0.0,0.0,0.0,0.0,0.0,0.0,0.0,0.0,0.0,0.0,0.0,0.0,0.0,0.0,0.0,0.0,0.0,0.0,0.0,0.0,0.0,0.0,0.0,0.0,0.0,0.0,0.0,0.0,0.0,0.0,0.0,0.0,0.0,0.0,0.0,0.0,-0.3149,-0.3407,-0.3767,-0.4002,-0.4115,-0.408,0.0,0.0,0.0,0.0,0.0,0.0,0.0,0.0,0.0,0.0,0.0,0.0,0.0,0.0,0.0,0.0,0.0,0.0,0.0,0.0,0.0,0.0,0.0,0.0,0.0,0.0,0.0,0.0,0.0,0.0,0.0,0.0,0.0,0.0,0.0,0.0,0.0,0.0,0.0,0.0,0.0,0.0,0.0,0.0,0.0,0.0,0.0,0.0,0.0,0.0,0.0,0.0,0.0,0.0,0.0,0.0,0.0,0.0,0.0,0.0,0.0,0.0,0.0,0.0,0.0,0.0,0.0,0.0,0.0,0.0,0.0,0.0,0.0,0.0,0.0,0.0,0.0,0.0,0.0,0.0,0.0,0.0,0.0,0.0,0.0,0.0,0.0,0.0,0.0,0.0,0.0,0.0,0.0,0.0,0.0,0.0,0.0,0.0,0.0,0.0,0.0,0.0,0.0,0.0,0.0,0.0,0.0,0.0,-0.352,-0.3552,-0.3774,-0.4152,-0.419,-0.4156,0.0,0.0,0.0,0.0,0.0,0.0,0.0,0.0,0.0,0.0,0.0,0.0,0.0,0.0,0.0,0.0,0.0,0.0,0.0,0.0,0.0,0.0,0.0,0.0,0.0,0.0,0.0,0.0,0.0,0.0,0.0,0.0,0.0,0.0,0.0,0.0,0.0,0.0,0.0,0.0,0.0,0.0,0.0,0.0,0.0,0.0,0.0,0.0,0.0,0.0,0.0,0.0,0.0,0.0,0.0,0.0,0.0,0.0,0.0,0.0,0.0,0.0,0.0,0.0,0.0,0.0,0.0,0.0,0.0,0.0,0.0,0.0,0.0,0.0,0.0,0.0,0.0,0.0,0.0,0.0,0.0,0.0,0.0,0.0,0.0,0.0,0.0,0.0,0.0,0.0,0.0,0.0,0.0,0.0,0.0,0.0,0.0,0.0,0.0,0.0,0.0,0.0,0.0,0.0,0.0,0.0,0.0,0.0,0.0,-0.3422,-0.3738,-0.4057,-0.4365,-0.419,-0.4015,0.0,0.0,0.0,0.0,0.0,0.0,0.0,0.0,0.0,0.0,0.0,0.0,0.0,0.0,0.0,0.0,0.0,0.0,0.0,0.0,0.0,0.0,0.0,0.0,0.0,0.0,0.0,0.0,0.0,0.0,0.0,0.0,0.0,0.0,0.0,0.0,0.0,0.0,0.0,0.0,0.0,0.0,0.0,0.0,0.0,0.0,0.0,0.0,0.0,0.0,0.0,0.0,0.0,0.0,0.0,0.0,0.0,0.0,0.0,0.0,0.0,0.0,0.0,0.0,0.0,0.0,0.0,0.0,0.0,0.0,0.0,0.0,0.0,0.0,0.0,0.0,0.0,0.0,0.0,0.0,0.0,0.0,0.0,0.0,0.0,0.0,0.0,0.0,0.0,0.0,0.0,0.0,0.0,0.0,0.0,0.0,0.0,0.0,0.0,0.0,0.0,0.0,0.0,0.0,0.0,0.0,0.0,0.0,0.0,-0.3573,0.0,-0.4396,-0.457,-0.431,-0.4082,0.0,0.0,0.0,0.0,0.0,0.0,0.0,0.0,0.0,0.0,0.0,0.0,0.0,0.0,0.0,0.0,0.0,0.0,0.0,0.0,0.0,0.0,0.0,0.0,0.0,0.0,0.0,0.0,0.0,0.0,0.0,0.0,0.0,0.0,0.0,0.0,0.0,0.0,0.0,0.0,0.0,0.0,0.0,0.0,0.0,0.0,0.0,0.0,0.0,0.0,0.0,0.0,0.0,0.0,0.0,0.0,0.0,0.0,0.0,0.0,0.0,0.0,0.0,0.0,0.0,0.0,0.0,0.0,0.0,0.0,0.0,0.0,0.0,0.0,0.0,0.0,0.0,0.0,0.0,0.0,0.0,0.0,0.0,0.0,0.0,0.0,0.0,0.0,0.0,0.0,0.0,0.0,0.0,0.0,0.0,0.0,0.0,0.0,0.0,0.0,0.0,0.0,0.0,0.0,0.0,0.0,0.0,0.0,-0.3781,-0.4194,-0.4536,-0.4779,-0.4815,-0.4619,-0.4362,0.0,0.0,0.0,0.0,0.0,0.0,0.0,0.0,0.0,0.0,0.0,0.0,0.0,0.0,0.0,0.0,0.0,0.0,0.0,0.0,0.0,0.0,0.0,0.0,0.0,0.0,0.0,0.0,0.0,0.0,0.0,0.0,0.0,0.0,0.0,0.0,0.0,0.0,0.0,0.0,0.0,0.0,0.0,0.0,0.0,0.0,0.0,0.0,0.0,0.0,0.0,0.0,0.0,0.0,0.0,0.0,0.0,0.0,0.0,0.0,0.0,0.0,0.0,0.0,0.0,0.0,0.0,0.0,0.0,0.0,0.0,0.0,0.0,0.0,0.0,0.0,0.0,0.0,0.0,0.0,0.0,0.0,0.0,0.0,0.0,0.0,0.0,0.0,0.0,0.0,0.0,0.0,0.0,0.0,0.0,0.0,0.0,0.0,0.0,0.0,0.0,0.0,0.0,0.0,0.0,0.0,0.0,0.0,0.0,-0.4777,-0.5051,-0.532,-0.5476,-0.4971,-0.4637,0.0,0.0,0.0,0.0,0.0,0.0,0.0,0.0,0.0,0.0,0.0,0.0,0.0,0.0,0.0,0.0,0.0,0.0,0.0,0.0,0.0,0.0,0.0,0.0,0.0,0.0,0.0,0.0,0.0,0.0,0.0,0.0,0.0,0.0,0.0,0.0,0.0,0.0,0.0,0.0,0.0,0.0,0.0,0.0,0.0,0.0,0.0,0.0,0.0,0.0,0.0,0.0,0.0,0.0,0.0,0.0,0.0,0.0,0.0,0.0,0.0,0.0,0.0,0.0,0.0,0.0,0.0,0.0,0.0,0.0,0.0,0.0,0.0,0.0,0.0,0.0,0.0,0.0,0.0,0.0,0.0,0.0,0.0,0.0,0.0,0.0,0.0,0.0,0.0,0.0,0.0,0.0,0.0,0.0,0.0,0.0,0.0,0.0,0.0,0.0,0.0,0.0,0.0,0.0,0.0,0.0,0.0,0.0,0.0,-0.5588,-0.577,-0.5947,-0.6017,-0.5494,-0.5096,-0.4772,0.0,0.0,0.0,0.0,0.0,0.0,0.0,0.0,0.0,0.0,0.0,0.0,0.0,0.0,0.0,0.0,0.0,0.0,0.0,0.0,0.0,0.0,0.0,0.0,0.0,0.0,0.0,0.0,0.0,0.0,0.0,0.0,0.0,0.0,0.0,0.0,0.0,0.0,0.0,0.0,0.0,0.0,0.0,0.0,0.0,0.0,0.0,0.0,0.0,0.0,0.0,0.0,0.0,0.0,0.0,0.0,0.0,0.0,0.0,0.0,0.0,0.0,0.0,0.0,0.0,0.0,0.0,0.0,0.0,0.0,0.0,0.0,0.0,0.0,0.0,0.0,0.0,0.0,0.0,0.0,0.0,0.0,0.0,0.0,0.0,0.0,0.0,0.0,0.0,0.0,0.0,0.0,0.0,0.0,0.0,0.0,0.0,0.0,0.0,0.0,0.0,0.0,0.0,0.0,0.0,0.0,0.0,0.0,-0.6475,-0.6638,-0.6597,-0.6494,-0.6142,-0.5573,0.0,0.0,0.0,0.0,0.0,0.0,0.0,0.0,0.0,0.0,0.0,0.0,0.0,0.0,0.0,0.0,0.0,0.0,0.0,0.0,0.0,0.0,0.0,0.0,0.0,0.0,0.0,0.0,0.0,0.0,0.0,0.0,0.0,0.0,0.0,0.0,0.0,0.0,0.0,0.0,0.0,0.0,0.0,0.0,0.0,0.0,0.0,0.0,0.0,0.0,0.0,0.0,0.0,0.0,0.0,0.0,0.0,0.0,0.0,0.0,0.0,0.0,0.0,0.0,0.0,0.0,0.0,0.0,0.0,0.0,0.0,0.0,0.0,0.0,0.0,0.0,0.0,0.0,0.0,0.0,0.0,0.0,0.0,0.0,0.0,0.0,0.0,0.0,0.0,0.0,0.0,0.0,0.0,0.0,0.0,0.0,0.0,0.0,0.0,0.0,0.0,0.0,0.0,0.0,0.0,0.0,0.0,0.0,0.0,-0.6509,-0.732,-0.764,-0.7338,-0.6791,-0.6131,0.0,0.0,0.0,0.0,0.0,0.0,0.0,0.0,0.0,0.0,0.0,0.0,0.0,0.0,0.0,0.0,0.0,0.0,0.0,0.0,0.0,0.0,0.0,0.0,0.0,0.0,0.0,0.0,0.0,0.0,0.0,0.0,0.0,0.0,0.0,0.0,0.0,0.0,0.0,0.0,0.0,0.0,0.0,0.0,0.0,0.0,0.0,0.0,0.0,0.0,0.0,0.0,0.0,0.0,0.0,0.0,0.0,0.0,0.0,0.0,0.0,0.0,0.0,0.0,0.0,0.0,0.0,0.0,0.0,0.0,0.0,0.0,0.0,0.0,0.0,0.0,0.0,0.0,0.0,0.0,0.0,0.0,0.0,0.0,0.0,0.0,0.0,0.0,0.0,0.0,0.0,0.0,0.0,0.0,0.0,0.0,0.0,0.0,0.0,0.0,0.0,0.0,0.0,0.0,0.0,0.0,0.0,0.0,-0.6128,-0.6454,-0.7526,-0.7884,-0.7407,-0.7069,-0.6415,0.0,0.0,0.0,0.0,0.0,0.0,0.0,0.0,0.0,0.0,0.0,0.0,0.0,0.0,0.0,0.0,0.0,0.0,0.0,0.0,0.0,0.0,0.0,0.0,0.0,0.0,0.0,0.0,0.0,0.0,0.0,0.0,0.0,0.0,0.0,0.0,0.0,0.0,0.0,0.0,0.0,0.0,0.0,0.0,0.0,0.0,0.0,0.0,0.0,0.0,0.0,0.0,0.0,0.0,0.0,0.0,0.0,0.0,0.0,0.0,0.0,0.0,0.0,0.0,0.0,0.0,0.0,0.0,0.0,0.0,0.0,0.0,0.0,0.0,0.0,0.0,0.0,0.0,0.0,0.0,0.0,0.0,0.0,0.0,0.0,0.0,0.0,0.0,0.0,0.0,0.0,0.0,0.0,0.0,0.0,0.0,0.0,0.0,0.0,0.0,0.0,0.0,0.0,0.0,0.0,0.0,0.0,0.0,-0.6134,-0.6358,-0.7312,-0.7516,-0.6951,-0.6995,-0.6529,0.0,0.0,0.0,0.0,0.0,0.0,0.0,0.0,0.0,0.0,0.0,0.0,0.0,0.0,0.0,0.0,0.0,0.0,0.0,0.0,0.0,0.0,0.0,0.0,0.0,0.0,0.0,0.0,0.0,0.0,0.0,0.0,0.0,0.0,0.0,0.0,0.0,0.0,0.0,0.0,0.0,0.0,0.0,0.0,0.0,0.0,0.0,0.0,0.0,0.0,0.0,0.0,0.0,0.0,0.0,0.0,0.0,0.0,0.0,0.0,0.0,0.0,0.0,0.0,0.0,0.0,0.0,0.0,0.0,0.0,0.0,0.0,0.0,0.0,0.0,0.0,0.0,0.0,0.0,0.0,0.0,0.0,0.0,0.0,0.0,0.0,0.0,0.0,0.0,0.0,0.0,0.0,0.0,0.0,0.0,0.0,0.0,0.0,0.0,0.0,0.0,0.0,0.0,0.0,0.0,0.0,0.0,0.0,-0.5829,-0.6036,-0.6745,-0.6923,-0.6551,-0.6515,-0.6091,0.0,0.0,0.0,0.0,0.0,0.0,0.0,0.0,0.0,0.0,0.0,0.0,0.0,0.0,0.0,0.0,0.0,0.0,0.0,0.0,0.0,0.0,0.0,0.0,0.0,0.0,0.0,0.0,0.0,0.0,0.0,0.0,0.0,0.0,0.0,0.0,0.0,0.0,0.0,0.0,0.0,0.0,0.0,0.0,0.0,0.0,0.0,0.0,-0.8254,0.0,0.0,0.0,0.0,0.0,0.0,0.0,0.0,0.0,0.0,0.0,0.0,0.0,0.0,0.0,0.0,0.0,0.0,0.0,0.0,0.0,0.0,0.0,0.0,0.0,0.0,0.0,0.0,0.0,0.0,0.0,0.0,0.0,0.0,0.0,0.0,0.0,0.0,0.0,0.0,0.0,0.0,0.0,0.0,0.0,0.0,0.0,0.0,0.0,0.0,0.0,0.0,0.0,0.0,0.0,0.0,0.0,0.0,0.0,-0.5577,-0.5762,-0.6048,-0.6,-0.5656,-0.5452,-0.5313,0.0,0.0,0.0,0.0,0.0,0.0,0.0,0.0,0.0,0.0,0.0,0.0,0.0,0.0,0.0,0.0,0.0,0.0,0.0,0.0,0.0,0.0,0.0,0.0,0.0,0.0,0.0,0.0,0.0,0.0,0.0,0.0,0.0,0.0,0.0,0.0,0.0,0.0,0.0,0.0,0.0,0.0,0.0,0.0,0.0,0.0,0.0,0.0,0.0,0.0,0.0,0.0,0.0,0.0,0.0,0.0,0.0,0.0,0.0,0.0,0.0,0.0,0.0,0.0,0.0,0.0,0.0,0.0,0.0,0.0,0.0,0.0,0.0,0.0,0.0,0.0,0.0,0.0,0.0,0.0,0.0,0.0,0.0,0.0,0.0,0.0,0.0,0.0,0.0,0.0,0.0,0.0,0.0,0.0,0.0,0.0,0.0,0.0,0.0,0.0,0.0,0.0,0.0,0.0,0.0,0.0,0.0,-0.5086,-0.5243,-0.5545,-0.5425,-0.5096,-0.4755,-0.4378,-0.4502,-0.5175,0.0,0.0,0.0,0.0,0.0,0.0,0.0,0.0,0.0,0.0,0.0,0.0,0.0,0.0,0.0,0.0,0.0,0.0,0.0,0.0,0.0,0.0,0.0,0.0,0.0,0.0,0.0,0.0,0.0,0.0,0.0,0.0,0.0,0.0,0.0,0.0,0.0,0.0,-0.6435,-0.6857,0.0,0.0,0.0,0.0,0.0,0.0,0.0,0.0,-0.9058,0.0,0.0,0.0,0.0,0.0,0.0,0.0,0.0,0.0,0.0,0.0,0.0,0.0,0.0,0.0,0.0,0.0,0.0,0.0,0.0,0.0,0.0,0.0,0.0,0.0,0.0,0.0,0.0,0.0,0.0,0.0,0.0,0.0,0.0,0.0,0.0,0.0,0.0,0.0,0.0,0.0,0.0,0.0,0.0,0.0,0.0,0.0,0.0,0.0,0.0,0.0,0.0,0.0,0.0,0.0,0.0,-0.5168,-0.4901,-0.4981,-0.538,-0.5084,-0.4761,-0.4411,-0.4189,-0.4044,-0.4003,0.0,0.0,0.0,0.0,0.0,0.0,0.0,0.0,0.0,0.0,0.0,0.0,0.0,0.0,0.0,0.0,0.0,0.0,0.0,0.0,0.0,0.0,0.0,0.0,0.0,0.0,0.0,0.0,0.0,0.0,0.0,0.0,0.0,0.0,0.0,0.0,0.0,0.0,0.0,-0.8471,-0.9287,0.0,0.0,0.0,0.0,0.0,0.0,0.0,0.0,-0.9732,0.0,0.0,0.0,0.0,0.0,0.0,0.0,0.0,0.0,0.0,0.0,0.0,0.0,0.0,0.0,0.0,0.0,0.0,0.0,0.0,0.0,0.0,0.0,0.0,0.0,0.0,0.0,0.0,0.0,0.0,0.0,0.0,0.0,0.0,0.0,0.0,0.0,0.0,0.0,0.0,0.0,0.0,0.0,0.0,0.0,0.0,0.0,0.0,0.0,0.0,0.0,0.0,0.0,0.0,0.0,-0.4894,-0.4911,-0.5057,-0.5348,-0.496,-0.4495,-0.4151,-0.3883,-0.3527,0.0,0.0,0.0,0.0,0.0,0.0,0.0,0.0,0.0,0.0,0.0,0.0,0.0,0.0,0.0,0.0,0.0,0.0,0.0,0.0,0.0,0.0,0.0,0.0,0.0,0.0,0.0,0.0,0.0,0.0,0.0,0.0,0.0,0.0,0.0,0.0,0.0,0.0,0.0,0.0,-0.9379,-1.0287,-1.0469,0.0,0.0,0.0,0.0,0.0,0.0,-1.1221,-1.1148,0.0,0.0,0.0,0.0,0.0,0.0,0.0,0.0,0.0,0.0,0.0,0.0,0.0,0.0,0.0,0.0,0.0,0.0,0.0,0.0,0.0,0.0,0.0,0.0,0.0,0.0,0.0,0.0,0.0,0.0,0.0,0.0,0.0,0.0,0.0,0.0,0.0,0.0,0.0,0.0,0.0,0.0,0.0,0.0,0.0,0.0,0.0,0.0,0.0,0.0,0.0,0.0,0.0,0.0,0.0,-0.4719,-0.4968,-0.5119,-0.5279,-0.4691,-0.4281,-0.3857,-0.3608,-0.3154,0.0,0.0,0.0,0.0,0.0,0.0,0.0,0.0,0.0,0.0,0.0,0.0,0.0,0.0,0.0,0.0,0.0,0.0,0.0,0.0,0.0,0.0,0.0,0.0,0.0,0.0,0.0,0.0,0.0,0.0,0.0,0.0,0.0,0.0,0.0,0.0,0.0,0.0,0.0,0.0,0.0,-1.0867,-1.1113,-1.1325,0.0,0.0,0.0,0.0,-1.1236,-1.2267,0.0,0.0,0.0,0.0,0.0,0.0,0.0,0.0,0.0,0.0,0.0,0.0,0.0,0.0,0.0,0.0,0.0,0.0,0.0,0.0,0.0,0.0,0.0,0.0,0.0,0.0,0.0,0.0,0.0,0.0,0.0,0.0,0.0,0.0,0.0,0.0,0.0,0.0,0.0,0.0,0.0,0.0,0.0,0.0,0.0,0.0,0.0,0.0,0.0,0.0,0.0,0.0,0.0,0.0,0.0,0.0,-0.4716,-0.4908,-0.4991,-0.4878,-0.4225,-0.3782,-0.3496,-0.3436,-0.3046,0.0,0.0,0.0,0.0,0.0,0.0,0.0,0.0,0.0,0.0,0.0,0.0,0.0,0.0,0.0,0.0,0.0,0.0,0.0,0.0,0.0,0.0,0.0,0.0,0.0,0.0,0.0,0.0,0.0,0.0,0.0,0.0,0.0,0.0,0.0,0.0,0.0,0.0,0.0,0.0,0.0,-1.085,-1.1518,-1.168,-1.173,0.0,0.0,-1.316,-1.2401,-1.3607,0.0,0.0,0.0,0.0,0.0,0.0,0.0,0.0,0.0,0.0,0.0,0.0,0.0,0.0,0.0,0.0,0.0,0.0,0.0,0.0,0.0,0.0,0.0,0.0,0.0,0.0,0.0,0.0,0.0,0.0,0.0,0.0,0.0,0.0,0.0,0.0,0.0,0.0,0.0,0.0,0.0,0.0,0.0,0.0,0.0,0.0,0.0,0.0,0.0,0.0,0.0,0.0,0.0,0.0,0.0,-0.4678,-0.4598,-0.5164,-0.5264,-0.4838,-0.4524,-0.4103,-0.3668,-0.3533,-0.3142,0.0,0.0,0.0,0.0,0.0,0.0,0.0,0.0,0.0,0.0,0.0,0.0,0.0,0.0,0.0,0.0,0.0,0.0,0.0,0.0,0.0,0.0,0.0,0.0,0.0,0.0,0.0,0.0,0.0,0.0,0.0,0.0,0.0,0.0,0.0,0.0,0.0,0.0,0.0,0.0,0.0,0.0,-1.1903,-1.2476,0.0,0.0,0.0,-1.3873,-1.2823,0.0,0.0,0.0,0.0,0.0,0.0,0.0,0.0,0.0,0.0,0.0,0.0,0.0,0.0,0.0,0.0,0.0,0.0,0.0,0.0,0.0,0.0,0.0,0.0,0.0,0.0,0.0,0.0,0.0,0.0,0.0,0.0,0.0,0.0,0.0,0.0,0.0,0.0,0.0,0.0,0.0,0.0,0.0,0.0,0.0,0.0,0.0,0.0,0.0,0.0,0.0,0.0,0.0,0.0,0.0,0.0,0.0,-0.451,-0.5255,-0.5398,-0.4829,-0.4711,-0.4372,-0.3898,-0.3735,0.0,0.0,0.0,0.0,0.0,0.0,0.0,0.0,0.0,0.0,0.0,0.0,0.0,0.0,0.0,0.0,0.0,0.0,0.0,0.0,0.0,0.0,0.0,0.0,0.0,0.0,0.0,-0.6072,0.0,0.0,0.0,0.0,0.0,0.0,0.0,0.0,0.0,0.0,0.0,0.0,0.0,0.0,-1.275,-1.2612,-1.3294,-1.3759,0.0,0.0,-1.4497,-1.3739,-1.5361,-1.5802,0.0,0.0,0.0,0.0,0.0,0.0,0.0,0.0,0.0,0.0,0.0,0.0,0.0,0.0,0.0,0.0,0.0,0.0,0.0,0.0,0.0,0.0,0.0,0.0,0.0,0.0,0.0,0.0,0.0,0.0,0.0,0.0,0.0,0.0,0.0,0.0,0.0,0.0,0.0,0.0,0.0,0.0,0.0,0.0,0.0,0.0,0.0,0.0,0.0,0.0,0.0,0.0,0.0,0.0,0.0,-0.451,-0.5072,-0.5229,-0.4877,-0.4385,-0.408,-0.3963,-0.405,-0.3794,0.0,0.0,0.0,0.0,0.0,0.0,0.0,0.0,0.0,0.0,0.0,0.0,0.0,0.0,0.0,0.0,0.0,0.0,0.0,0.0,0.0,0.0,0.0,0.0,0.0,0.0,0.0,0.0,0.0,0.0,0.0,0.0,0.0,0.0,0.0,0.0,0.0,0.0,0.0,0.0,0.0,-1.3707,-1.393,-1.4058,-1.445,0.0,0.0,-1.4938,-1.5669,-1.6903,-1.701,-1.467,0.0,0.0,0.0,0.0,0.0,0.0,0.0,0.0,0.0,0.0,0.0,0.0,0.0,0.0,0.0,0.0,0.0,0.0,0.0,0.0,0.0,0.0,0.0,0.0,0.0,0.0,0.0,0.0,0.0,0.0,0.0,0.0,0.0,0.0,0.0,0.0,0.0,0.0,0.0,0.0,0.0,0.0,0.0,0.0,0.0,0.0,0.0,0.0,0.0,0.0,0.0,0.0,0.0,-0.436,-0.4391,-0.5132,-0.5387,-0.5178,-0.4795,-0.4478,-0.4228,-0.4197,-0.4003,0.0,0.0,0.0,0.0,0.0,0.0,0.0,0.0,0.0,0.0,0.0,0.0,0.0,0.0,0.0,0.0,0.0,0.0,0.0,0.0,0.0,0.0,0.0,0.0,0.0,0.0,0.0,0.0,-0.7265,-0.7266,-0.7571,0.0,0.0,0.0,0.0,0.0,0.0,0.0,0.0,0.0,0.0,-1.485,-1.5274,-1.585,0.0,0.0,-1.6334,-1.5929,-1.5709,-1.6292,-1.6009,-1.3816,-1.3404,0.0,0.0,0.0,0.0,0.0,0.0,0.0,0.0,0.0,0.0,0.0,0.0,0.0,0.0,0.0,0.0,0.0,0.0,0.0,0.0,0.0,0.0,0.0,0.0,0.0,0.0,0.0,0.0,0.0,0.0,0.0,0.0,0.0,0.0,0.0,0.0,0.0,0.0,0.0,0.0,0.0,0.0,0.0,0.0,0.0,0.0,0.0,0.0,0.0,0.0,0.0,0.0,-0.4247,-0.4333,-0.5009,-0.5365,-0.5315,-0.4922,-0.4667,-0.442,-0.4345,-0.4186,0.0,0.0,0.0,0.0,0.0,0.0,0.0,0.0,0.0,0.0,0.0,0.0,0.0,0.0,0.0,0.0,0.0,0.0,0.0,0.0,0.0,0.0,0.0,0.0,0.0,0.0,0.0,0.0,-0.719,-0.7198,-0.7717,0.0,0.0,0.0,0.0,0.0,0.0,0.0,0.0,0.0,0.0,-1.626,-1.6436,-1.6804,-1.715,-1.764,-1.6697,-1.5865,-1.5706,-1.5731,-1.5325,-1.389,0.0,0.0,0.0,0.0,0.0,0.0,0.0,0.0,0.0,0.0,0.0,0.0,0.0,0.0,0.0,0.0,0.0,0.0,0.0,0.0,0.0,0.0,0.0,0.0,0.0,0.0,0.0,0.0,0.0,0.0,0.1989,0.0,0.0,0.0,0.0,0.0,0.0,0.0,0.0,0.0,0.0,0.0,0.0,0.0,0.0,0.0,0.0,0.0,0.0,0.0,0.0,0.0,0.0,-0.4194,-0.4274,-0.4657,-0.4973,-0.5191,-0.4657,-0.442,-0.4501,-0.4522,-0.4501,-0.4606,0.0,0.0,0.0,0.0,0.0,0.0,0.0,0.0,0.0,0.0,0.0,0.0,0.0,0.0,0.0,0.0,0.0,0.0,0.0,0.0,0.0,0.0,0.0,0.0,0.0,0.0,-0.7245,-0.709,-0.7214,0.0,0.0,0.0,0.0,0.0,0.0,0.0,0.0,0.0,0.0,-1.6324,-1.7949,-1.7414,-1.6554,-1.6534,-1.7895,-1.5805,-1.4482,-1.5885,-1.5517,-1.5235,0.0,0.0,0.0,0.0,0.0,0.0,0.0,0.0,0.0,0.0,0.0,0.0,0.0,0.0,0.0,0.0,0.0,0.0,0.0,0.0,0.0,0.0,0.0,0.0,0.0,0.0,0.0,0.3145,0.2783,0.0,0.0,0.0,0.0,0.0,0.0,0.0,0.0,0.0,0.0,0.0,-0.2752,-0.3226,0.0,0.0,0.0,0.0,0.0,0.0,0.0,0.0,0.0,0.0,0.0,0.0,-0.3954,-0.3982,-0.4524,-0.4982,-0.5438,-0.4794,-0.4559,-0.4876,-0.4791,-0.4985,-0.5444,0.0,0.0,0.0,0.0,0.0,0.0,0.0,0.0,0.0,0.0,0.0,0.0,0.0,0.0,0.0,0.0,0.0,0.0,0.0,0.0,0.0,0.0,0.0,0.0,0.0,-0.7669,0.0,0.0,0.0,0.0,0.0,0.0,0.0,0.0,0.0,0.0,0.0,-1.3622,-1.4898,-1.612,-1.7213,-1.7917,-1.7542,-1.7492,0.0,0.0,0.0,0.0,0.0,0.0,0.0,0.0,0.0,0.0,0.0,0.0,0.0,0.0,-1.3947,-1.244,-1.2969,-1.3493,-1.3037,0.0,0.0,0.0,0.0,0.0,0.0,0.0,0.0,0.0,0.0,0.0,0.0,0.0,0.0,0.0,0.0,0.2364,0.0,0.0,0.0,0.0,0.0,0.0,0.0,0.0,-0.1718,-0.2515,-0.327,-0.3604,-0.4114,0.0,-0.4417,-0.3872,0.0,0.0,0.0,0.0,0.0,0.0,0.0,0.0,-0.3793,-0.3742,-0.4532,-0.5084,-0.5383,-0.4835,-0.4694,-0.4949,-0.4989,-0.5233,-0.5857,-0.599,-0.6279,0.0,0.0,0.0,0.0,0.0,0.0,0.0,0.0,0.0,0.0,0.0,0.0,0.0,0.0,0.0,0.0,0.0,0.0,0.0,0.0,0.0,0.0,0.0,-0.8204,0.0,0.0,0.0,0.0,0.0,0.0,0.0,0.0,0.0,-1.2246,-1.358,-1.4974,-1.6193,-1.7106,-1.7817,-1.8267,0.0,0.0,0.0,0.0,0.0,0.0,0.0,-1.4575,-1.4676,-1.4638,-1.489,-1.5929,-1.655,-1.7015,-1.7316,0.0,0.0,-1.5098,-1.5474,-1.599,-1.5648,-1.5721,-1.5948,-1.638,-1.6607,-1.6746,0.0,0.0,0.0,0.0,0.0,0.0,0.0,0.0,0.4251,0.3795,0.0,0.2625,0.0,0.0,0.0,0.0,0.0,-0.0397,0.0,0.0,-0.2678,-0.3352,-0.3512,-0.3966,-0.4253,-0.4465,-0.4351,-0.4297,-0.4309,-0.419,0.0,0.0,0.0,0.0,0.0,0.0,-0.3754,-0.3691,-0.4615,-0.5131,-0.5145,-0.5011,-0.4872,-0.4762,-0.499,-0.5395,-0.5823,-0.6258,-0.6647,-0.7128,-0.7015,0.0,0.0,0.0,0.0,0.0,0.0,0.0,0.0,0.0,0.0,0.0,0.0,0.0,0.0,0.0,0.0,0.0,0.0,0.0,0.0,-0.8876,0.0,0.0,0.0,0.0,0.0,0.0,0.0,0.0,0.0,0.0,-1.3766,-1.5807,-1.7403,-1.7637,0.0,0.0,0.0,0.0,-1.7867,-1.6828,-1.5669,-1.5067,-1.5541,-1.5797,-1.6417,-1.786,0.0,0.0,-1.8438,-1.7914,-1.7797,-1.8565,-1.9351,-1.9282,-1.7447,-1.7376,-1.7661,-1.807,-1.786,-1.7914,-1.872,-1.8591,-1.8309,0.6843,0.0,0.0,0.0,0.0,0.5044,0.4648,0.4611,0.3794,0.3278,0.2943,0.2291,0.0,0.0,0.0,0.0,0.0,0.0,-0.1212,-0.1912,-0.2784,-0.3735,-0.4653,-0.4887,-0.5232,-0.5575,-0.5498,-0.5397,-0.5173,-0.5105,-0.4615,-0.3707,0.0,0.0,0.0,0.0,-0.4156,-0.4301,-0.4791,-0.5182,-0.5294,-0.5125,-0.5236,-0.562,-0.5763,-0.6159,-0.6701,-0.6928,-0.7246,-0.7658,-0.7641,0.0,0.0,0.0,0.0,0.0,0.0,0.0,0.0,0.0,0.0,0.0,0.0,0.0,0.0,0.0,0.0,0.0,0.0,0.0,-1.0195,-1.0093,-0.9832,0.0,0.0,0.0,0.0,0.0,0.0,0.0,0.0,0.0,-1.6002,-1.5513,-1.5452,0.0,0.0,-1.7277,-1.7962,-1.7764,-1.7922,-1.8852,0.0,0.0,0.0,-1.7642,-1.7206,-1.7744,-1.8805,-1.9549,-1.9405,-2.0185,-2.09,-2.1107,-2.1439,-2.1482,-2.1131,-2.0796,-2.0529,-2.0288,-2.0485,-2.0599,-2.0133,-2.043,-2.0812,0.7475,0.6665,0.6329,0.6206,0.6228,0.5335,0.4812,0.4685,0.3926,0.3436,0.3088,0.2483,0.2009,0.1565,0.0666,0.0,0.0,0.0,-0.151,-0.2274,-0.2934,-0.3685,-0.4537,-0.4793,-0.5157,-0.5642,-0.5643,-0.5586,-0.5486,-0.5331,-0.5008,-0.4426,0.0,0.0,-0.3625,-0.4094,-0.4399,-0.4489,-0.5128,-0.5462,-0.5484,-0.5531,-0.579,-0.636,-0.6506,-0.6809,-0.7285,-0.7565,-0.7841,-0.8096,-0.8249,-0.841,0.0,0.0,0.0,0.0,0.0,0.0,0.0,0.0,0.0,0.0,0.0,-1.0506,-1.0549,0.0,0.0,0.0,-1.068,-1.1042,-1.1638,-1.117,0.0,0.0,0.0,0.0,0.0,0.0,0.0,-1.2224,-1.4433,-1.6312,-1.7196,-1.6198,-1.6077,-1.7852,-1.777,-1.7807,-1.8591,0.0,-1.8889,-1.9799,-1.8987,-1.8591,-1.9302,-1.9064,-1.8938,-1.9441,-2.0235,-2.0792,-2.0716,-2.1601,-2.2348,-2.2498,-2.2447,-2.2548,-2.2994,-2.2684,-2.228,-2.1973,-2.2292,-2.2351,-2.1668,-2.2103,-2.2598,0.8081,0.7584,0.7268,0.691,0.6496,0.5925,0.5405,0.4947,0.4478,0.405,0.3675,0.3007,0.2458,0.1907,0.032,0.0,-0.1604,-0.1545,-0.1813,-0.2485,-0.2979,-0.3409,-0.3773,-0.4089,-0.4461,-0.4958,-0.5087,-0.5206,-0.5395,-0.5077,-0.4954,-0.5075,-0.4315,-0.3906,-0.3891,-0.4316,-0.4501,-0.4574,-0.5418,-0.5822,-0.5679,-0.6045,-0.6459,-0.6947,-0.7123,-0.7384,-0.7745,-0.8123,-0.8386,-0.8493,-0.885,-0.9027,-0.8955,0.0,0.0,0.0,0.0,0.0,0.0,0.0,0.0,0.0,0.0,0.0,0.0,0.0,0.0,0.0,-1.155,0.0,-1.3026,-1.2158,0.0,0.0,0.0,-1.092,-1.2672,-1.328,-1.3905,-1.4846,0.0,0.0,-1.7707,0.0,-1.8419,-2.0643,-2.0498,-2.0137,-1.994,-2.024,-2.0374,-1.9959,-1.9843,-1.975,-1.9736,-2.0307,-2.1052,-2.1801,-2.2231,-2.21,-2.2007,-2.2189,-2.2564,-2.2941,-2.2739,-2.2698,-2.3501,-2.3223,-2.3024,-2.3245,-2.3319,-2.3334,-2.3201,-2.339,-2.3535,0.8619,0.846,0.8221,0.7573,0.6662,0.5823,0.5524,0.5524,0.486,0.4405,0.4053,0.3241,0.2211,0.0947,-0.0183,-0.0872,-0.1204,-0.1745,-0.2162,-0.2441,-0.3093,-0.368,-0.4137,-0.4534,-0.4863,-0.5257,-0.5291,-0.5353,-0.5383,-0.5172,-0.5,-0.4829,-0.4451,-0.4307,-0.4395,-0.44,-0.4607,-0.497,-0.5338,-0.576,-0.621,-0.6305,-0.6652,-0.7269,-0.731,-0.7682,-0.8353,-0.8347,-0.8544,-0.912,-0.9263,-0.9325,-0.9409,-0.9606,0.0,0.0,0.0,0.0,0.0,0.0,0.0,0.0,0.0,-1.0718,-1.1108,0.0,-1.1514,0.0,-1.238,-1.3222,-1.4205,-1.3593,0.0,0.0,-1.2443,-1.2263,-1.417,-1.5244,-1.5707,-1.5367,-1.6761,-1.8078,-1.8829,-1.8946,-1.9762,-2.1675,-2.0492,-1.9542,-1.9972,-2.0748,-2.1114,-2.0924,-2.1276,-2.1689,-2.1615,-2.1815,-2.2048,-2.2282,-2.2324,-2.2324,-2.2324,-2.2417,-2.2566,-2.2708,-2.2838,-2.2991,-2.3212,-2.3349,-2.3494,-2.3668,-2.3668,-2.3668,-2.3551,-2.3767,-2.3967,0.8093,0.8052,0.7847,0.7329,0.65,0.6371,0.6137,0.5817,0.5261,0.4729,0.4241,0.3138,0.1985,0.063,-0.0256,-0.0845,-0.1185,-0.1805,-0.2221,-0.2423,-0.3025,-0.3556,-0.409,-0.4425,-0.4691,-0.4897,-0.5229,-0.5296,-0.5156,-0.5209,-0.5212,-0.5153,-0.4941,-0.4879,-0.4954,-0.4607,-0.4637,-0.5045,-0.5456,-0.6017,-0.6741,-0.6836,-0.7035,-0.7409,-0.7746,-0.8061,-0.8463,-0.8516,-0.88,-0.937,-0.9453,-0.95,-0.9635,-0.9928,-1.0147,0.0,0.0,0.0,0.0,0.0,0.0,0.0,0.0,0.0,0.0,0.0,-1.2672,-1.3014,-1.3647,-1.4216,-1.4722,-1.4541,-1.4654,-1.5459,-1.4853,-1.497,-1.6492,-1.7509,-1.7982,-1.7591,-1.8637,-1.9608,-2.0187,-2.0419,-2.096,-2.2225,-2.1344,-2.0751,-2.1265,-2.1782,-2.2069,-2.2228,-2.2383,-2.254,-2.254,-2.2509,-2.2463,-2.2477,-2.2463,-2.2509,-2.2477,-2.2569,-2.2675,-2.2735,-2.2978,-2.3172,-2.3231,-2.348,-2.3696,-2.3782,-2.3882,-2.3925,-2.3797,-2.4036,-2.4276,0.7025,0.7003,0.6863,0.6601,0.628,0.6999,0.6776,0.5807,0.5488,0.4965,0.4224,0.2927,0.1771,0.0777,0.0,-0.0592,-0.1143,-0.1614,-0.2018,-0.2356,-0.2824,-0.3291,-0.3758,-0.4087,-0.4292,-0.4367,-0.503,-0.5229,-0.4897,-0.5229,-0.5491,-0.555,-0.555,-0.5495,-0.5326,-0.4828,-0.4743,-0.5089,-0.578,-0.6444,-0.7175,-0.7329,-0.747,-0.7602,-0.8179,-0.8506,-0.8505,-0.8713,-0.9005,-0.9467,-0.9543,-0.9697,-0.9859,-1.0243,-1.0602,0.0,-1.1308,0.0,0.0,0.0,0.0,0.0,0.0,0.0,0.0,-1.3549,-1.4154,-1.4705,-1.5015,-1.5208,-1.5202,-1.5381,-1.5984,-1.713,-1.752,-1.7971,-1.8821,-1.9658,-2.0101,-2.0055,-2.0523,-2.0957,-2.1224,-2.1602,-2.1888,-2.2217,-2.2253,-2.2278,-2.2711,-2.2665,-2.2797,-2.3421,-2.3049,-2.2709,-2.2709,-2.2678,-2.2632,-2.2661,-2.2646,-2.2661,-2.2692,-2.2721,-2.2809,-2.2841,-2.3112,-2.3319,-2.3275,-2.3581,-2.3839,-2.3797,-2.3982,-2.4124,-2.4024,-2.4234,-2.4498,0.6127,0.6137,0.6207,0.6272,0.6334,0.6404,0.5997,0.545,0.5249,0.4572,0.3629,0.2907,0.2123,0.1267,0.0534,0.0067,-0.0269,-0.0942,-0.1479,-0.1951,-0.2757,-0.3226,-0.336,-0.3956,-0.4359,-0.4561,-0.5093,-0.5359,-0.5296,-0.5491,-0.5418,-0.5219,-0.5359,-0.5353,-0.5258,0.0,0.0,0.0,-0.6028,-0.6559,-0.7179,-0.7047,-0.7399,-0.8087,-0.8283,0.0,-0.9342,-0.9116,-0.9234,-0.9853,-1.0064,0.0,0.0,0.0,0.0,0.0,0.0,0.0,0.0,0.0,0.0,0.0,-1.449,-1.4195,-1.3429,-1.4006,-1.4917,-1.5997,-1.6151,-1.6397,-1.6892,-1.7147,-1.7569,-1.8227,-1.8412,-1.8759,-1.9521,-2.0042,-2.0271,-2.0182,-2.0636,-2.0983,-2.1095,-2.1423,-2.1712,-2.1949,-2.2091,-2.2296,-2.2483,-2.2649,-2.2737,-2.2795,-2.2781,-2.2797,-2.2844,-2.2844,-2.2844,-2.2859,-2.2844,-2.2904,-2.2949,-2.2918,-2.2917,-2.3052,-2.329,-2.3378,-2.3201,-2.3596,-2.394,-2.3797,-2.4024,-2.4166,-2.4024,-2.4317,-2.4564,0.4806,0.0,0.5077,0.5143,0.0,0.5418,0.5156,0.4761,0.5093,0.4625,0.3487,0.2954,0.2149,0.121,0.0605,0.0135,-0.0269,-0.0942,-0.1412,-0.1884,-0.2421,-0.296,-0.3362,-0.3892,-0.4225,-0.4498,-0.5096,-0.5359,-0.5289,-0.5484,-0.5617,-0.5752,-0.569,-0.5796,-0.6007,-0.6336,-0.6443,-0.647,-0.6726,-0.7145,-0.7683,-0.7572,-0.7826,-0.8498,0.0,0.0,0.0,0.0,0.0,0.0,0.0,0.0,0.0,0.0,0.0,-1.2609,-1.2547,-1.2952,-1.4061,-1.4185,-1.4471,-1.505,-1.5612,-1.5708,-1.4999,-1.578,-1.653,-1.7159,-1.7334,-1.7573,-1.7846,-1.8056,-1.8425,-1.8929,-1.9131,-1.9434,-1.9863,-2.0144,-2.0322,-2.0398,-2.0749,-2.0997,-2.0983,-2.1375,-2.1664,-2.1902,-2.217,-2.242,-2.2589,-2.2649,-2.2678,-2.2723,-2.3008,-2.3142,-2.3008,-2.3038,-2.3038,-2.2963,-2.2994,-2.3083,-2.3098,-2.3098,-2.3112,-2.3201,-2.3407,-2.3494,-2.3378,-2.3726,-2.4082,-2.3982,-2.4151,-2.4291,-2.4193,-2.4343,-2.4564,0.3418,0.3885,0.3818,0.3885,0.4087,0.4425,0.4298,0.3828,0.0,0.0,0.0,0.2767,0.2099,0.1151,0.0677,0.0135,-0.0474,-0.1011,-0.148,-0.1884,-0.2085,-0.2624,-0.3431,-0.383,-0.4095,-0.4367,-0.5093,-0.5359,-0.5219,-0.5547,-0.5947,-0.6354,-0.6152,-0.6366,-0.699,-0.7447,-0.7593,-0.7405,-0.7465,-0.7771,-0.8234,-0.8254,-0.8467,-0.8864,-0.9562,-1.0053,-1.0219,-1.0485,-1.0899,-1.1413,-1.1495,-1.1732,-1.2155,-1.2603,-1.3013,-1.3394,-1.3796,-1.423,-1.4768,-1.5154,-1.5519,-1.6041,-1.6759,-1.7122,-1.6976,-1.7709,-1.8178,-1.8298,-1.844,-1.858,-1.858,-1.8694,-1.898,-1.9423,-1.9708,-1.9914,-2.008,-2.0182,-2.0334,-2.0562,-2.0898,-2.1086,-2.1242,-2.1491,-2.1815,-2.2155,-2.2381,-2.2663,-2.2934,-2.2904,-2.2976,-2.3288,-2.3526,-2.3611,-2.3526,-2.3378,-2.329,-2.3098,-2.3231,-2.329,-2.3246,-2.3246,-2.3334,-2.3319,-2.348,-2.3523,-2.3494,-2.3812,-2.4082,-2.3997,-2.4193,-2.4416,-2.4359,-2.44,-2.4539,0.2549,0.2278,0.2818,0.3088,0.3224,0.3629,0.3496,0.309,0.336,0.3092,0.2357,0.2277,0.1952,0.1323,0.1114,0.0627,-0.0069,-0.0817,-0.1347,0.0,-0.2085,-0.2488,-0.3092,-0.3694,-0.4228,-0.4561,-0.5219,-0.555,-0.555,-0.5947,-0.6214,-0.6354,-0.6354,-0.6689,-0.7441,-0.8073,-0.8493,-0.8581,-0.787,-0.7865,-0.8405,-0.8363,-0.8736,-0.9438,-0.9959,-1.0443,-1.0909,-1.1094,-1.1392,-1.1888,-1.215,-1.2718,-1.3473,-1.3951,-1.4502,-1.4997,-1.5153,-1.5459,-1.6087,-1.7116,-1.791,-1.829,-1.8339,-1.835,-1.8422,-1.8496,-1.8794,-1.9275,-1.9273,-1.9245,-1.931,-1.948,-1.9647,-1.9734,-1.9965,-2.022,-2.0472,-2.051,-2.0623,-2.0885,-2.1193,-2.1466,-2.1816,-2.189,-2.2164,-2.2704,-2.2798,-2.2875,-2.3377,-2.3465,-2.3732,-2.4209,-2.4115,-2.4185,-2.4339,-2.4143,-2.3713,-2.3508,-2.3494,-2.3494,-2.348,-2.3407,-2.3363,-2.3451,-2.3494,-2.3509,-2.3451,-2.3625,-2.39,-2.3958,-2.4185,-2.4353,-2.4493,-2.4591,-2.4632,0.0939,0.1074,0.1679,0.188,0.1813,0.2084,0.215,0.2087,0.1843,0.1977,0.2364,0.2218,0.1808,0.1236,0.1114,0.0765,0.0206,-0.0678,-0.1347,-0.1818,-0.1983,-0.2526,-0.3301,-0.382,-0.429,-0.4767,-0.5286,-0.5683,-0.5818,-0.6338,-0.6609,-0.6679,-0.6872,-0.7175,-0.7593,-0.8255,-0.8794,-0.9271,-0.8929,-0.8797,-0.8931,-0.9152,-0.9548,-1.0157,-1.0672,-1.1248,-1.1765,-1.2173,-1.2512,-1.2818,-1.3109,-1.3566,-1.4148,-1.4531,-1.4864,-1.5269,-1.5566,-1.5851,-1.616,-1.7152,-1.7995,-1.8548,-1.8809,-1.9046,-1.9384,-1.9244,-1.9292,-1.9579,-1.9565,-1.9565,-1.9604,-1.9759,-1.9811,-1.9914,-2.008,-2.0321,-2.056,-2.061,-2.0723,-2.1033,-2.1277,-2.1532,-2.1776,-2.2021,-2.2255,-2.2772,-2.296,-2.3376,-2.3909,-2.4109,-2.4231,-2.4303,-2.4265,-2.4304,-2.442,-2.4195,-2.3882,-2.3638,-2.3653,-2.361,-2.3581,-2.3494,-2.348,-2.3538,-2.3581,-2.3731,-2.3985,-2.4295,-2.4485,-2.4572,-2.4744,-2.4929,-2.4972,-2.5388,-2.5754,-0.0605,0.0,0.047,0.0672,0.0605,0.0806,0.0941,0.0944,0.055,0.0964,0.1776,0.1828,0.1541,0.1091,0.0908,0.056,0.0,-0.0745,-0.1352,-0.1836,-0.2069,-0.2607,-0.3444,-0.4054,-0.4523,-0.4903,-0.5484,-0.5885,-0.6148,-0.6732,-0.7064,-0.7204,-0.7526,-0.7807,-0.7921,-0.8497,-0.9069,-0.9673,-0.9813,-0.9778,-0.9503,-1.0015,-1.0428,-1.0744,-1.1505,-1.2058,-1.2544,-1.3094,-1.3511,-1.3683,-1.3934,-1.4279,-1.4667,-1.4984,-1.5233,-1.5468,-1.6038,-1.6443,-1.6598,-1.726,-1.7941,-1.858,-1.8983,-1.9434,-1.9914,-1.9823,-1.9668,-1.9656,-1.972,-1.9772,-1.9811,-1.9862,-1.9978,-2.0093,-2.0246,-2.0422,-2.066,-2.066,-2.0871,-2.1229,-2.1532,-2.1786,-2.1904,-2.2239,-2.2587,-2.2886,-2.3304,-2.3855,-2.4291,-2.4632,-2.4581,-2.4431,-2.4457,-2.4606,-2.4388,-2.4311,-2.4109,-2.3809,-2.3824,-2.3782,-2.3711,-2.3653,-2.3696,-2.3739,-2.3754,-2.4038,-2.464,-2.4938,-2.5055,-2.5127,-2.5256,-2.5459,-2.5459,-2.6314,-2.6931,-0.1614,-0.1008,-0.0672,-0.0269,0.0067,0.0269,0.0134,-0.0202,-0.0068,-0.0069,-0.014,0.0368,0.0803,0.0985,0.0358,-0.0289,-0.1004,-0.1101,-0.1498,-0.2151,-0.2317,-0.276,-0.3565,-0.4244,-0.4703,-0.5156,-0.5815,-0.6342,-0.6798,-0.7068,-0.7461,-0.7922,-0.8252,-0.8417,-0.8596,-0.9047,-0.9533,-0.9801,-1.0134,-1.0255,-1.0151,-1.0816,-1.1185,-1.124,-1.2182,-1.2858,-1.3155,-1.358,-1.389,-1.4198,-1.4382,-1.466,-1.5129,-1.5658,-1.6048,-1.6285,-1.7059,-1.7784,-1.8247,-1.8431,-1.866,-1.923,-1.9322,-1.9554,-1.9926,-1.9978,-1.9926,-1.9926,-1.9939,-1.9978,-1.999,-2.008,-2.0233,-2.0448,-2.0562,-2.0749,-2.0898,-2.0947,-2.1131,-2.152,-2.2089,-2.2622,-2.2728,-2.3096,-2.3371,-2.3393,-2.3644,-2.3993,-2.4379,-2.4658,-2.4844,-2.4845,-2.4926,-2.5154,-2.5336,-2.5004,-2.4488,-2.4261,-2.412,-2.4036,-2.3967,-2.3952,-2.4036,-2.3967,-2.4094,-2.438,-2.4826,-2.5129,-2.5302,-2.5472,-2.5601,-2.5652,-2.5895,-2.6709,-2.7285,-0.1951,-0.1547,-0.1412,-0.1344,-0.1277,-0.121,-0.1211,-0.1213,-0.1302,-0.1377,-0.1446,-0.1084,-0.0507,0.014,-0.0425,-0.0848,-0.1181,-0.1428,-0.1961,-0.2737,-0.2677,-0.3071,-0.3976,-0.4572,-0.5036,-0.5425,-0.6017,-0.6539,-0.7064,-0.7587,-0.8042,-0.8506,-0.8571,-0.869,-0.9117,-0.9726,-1.022,-1.0776,-1.1279,-1.1491,-1.1417,-1.1304,-1.1428,-1.1677,-1.2367,-1.2981,-1.3268,-1.3709,-1.4019,-1.4276,-1.4478,-1.4775,-1.5156,-1.571,-1.6046,-1.6239,-1.6965,-1.7634,-1.8127,-1.8518,-1.8798,-1.9064,-1.9263,-1.9473,-1.9629,-1.972,-1.9772,-1.9772,-2.0016,-2.0271,-2.0321,-2.0472,-2.0623,-2.0749,-2.0812,-2.0911,-2.1095,-2.1046,-2.1193,-2.1705,-2.2394,-2.293,-2.3133,-2.3778,-2.4123,-2.3968,-2.3971,-2.4126,-2.4394,-2.4694,-2.4914,-2.4973,-2.5005,-2.5076,-2.532,-2.5042,-2.4677,-2.4508,-2.4385,-2.4317,-2.4219,-2.4177,-2.4219,-2.4177,-2.4261,-2.4606,-2.521,-2.5349,-2.5524,-2.5905,-2.6701,-2.7001,-2.682,-2.756,-2.8214,-0.2285,-0.2085,-0.2018,-0.2085,-0.2221,-0.2221,-0.2085,-0.2021,-0.2199,-0.2339,-0.2458,-0.2249,-0.184,-0.1331,-0.147,-0.1593,-0.1769,-0.2091,-0.2634,-0.3262,-0.3168,-0.3628,-0.4442,-0.4919,-0.5389,-0.5833,-0.6284,-0.6876,-0.7526,-0.8242,-0.8823,-0.9151,-0.9091,-0.932,-0.9876,-1.0436,-1.1011,-1.1573,-1.2131,-1.2408,-1.2407,-1.2123,-1.1981,-1.2135,-1.2613,-1.3103,-1.345,-1.389,-1.4198,-1.4378,-1.4606,-1.4834,-1.5215,-1.5652,-1.6056,-1.64,-1.692,-1.7423,-1.7909,-1.8356,-1.8691,-1.8798,-1.9117,-1.9275,-1.9368,-1.9512,-1.9656,-1.9759,-2.0233,-2.0549,-2.0472,-2.056,-2.0723,-2.0885,-2.0924,-2.0974,-2.1095,-2.1189,-2.1484,-2.1966,-2.2893,-2.3532,-2.3809,-2.4353,-2.4655,-2.4395,-2.4164,-2.4115,-2.4372,-2.472,-2.5011,-2.4997,-2.5005,-2.5005,-2.5021,-2.4942,-2.4806,-2.4701,-2.4605,-2.4539,-2.4467,-2.4467,-2.4441,-2.4523,-2.4467,-2.4715,-2.5335,-2.5594,-2.5904,-2.6643,-2.7316,-2.7662,-2.7416,-2.823,-2.877,-0.2686,-0.2619,-0.2488,-0.2423,-0.2356,-0.2288,-0.2285,-0.2417,-0.249,-0.2725,-0.318,-0.2863,-0.287,-0.3136,-0.279,-0.2865,-0.3132,-0.3332,-0.3472,-0.3597,-0.3808,-0.4231,-0.4818,-0.5292,-0.583,-0.6354,-0.6771,-0.7419,-0.8447,-0.9104,-0.9606,-0.9951,-1.0196,-1.058,-1.0949,-1.1296,-1.1648,-1.2018,-1.2348,-1.263,-1.3192,-1.3412,-1.3211,-1.2927,-1.3103,-1.3484,-1.3899,-1.4148,-1.4378,-1.4666,-1.4715,-1.4893,-1.5215,-1.5652,-1.6343,-1.7099,-1.7289,-1.7512,-1.8009,-1.8185,-1.8402,-1.8768,-1.8875,-1.8958,-1.9235,-1.9512,-1.9759,-1.9939,-2.041,-2.0612,-2.0334,-2.0385,-2.0485,-2.0749,-2.0875,-2.0911,-2.1046,-2.1532,-2.2109,-2.2538,-2.3602,-2.4553,-2.5277,-2.5048,-2.4873,-2.4629,-2.4263,-2.4089,-2.4383,-2.4751,-2.4951,-2.4981,-2.5005,-2.5005,-2.5005,-2.5005,-2.4926,-2.4886,-2.4846,-2.4822,-2.4822,-2.4846,-2.4846,-2.4846,-2.495,-2.5163,-2.5566,-2.5953,-2.635,-2.6812,-2.6944,-2.7171,-2.7446,-2.8289,-2.8641,-0.2956,-0.3023,-0.2958,-0.296,-0.3096,-0.3159,-0.3288,-0.3288,-0.3687,-0.384,-0.4001,-0.4169,-0.4241,-0.4276,-0.4214,-0.3811,-0.3201,-0.3576,-0.3847,-0.4076,-0.4509,-0.502,-0.5561,-0.6183,-0.6643,-0.6973,-0.7398,-0.8199,-0.9141,-0.9807,-1.0434,-1.0855,-1.1088,-1.1411,-1.1992,-1.2384,-1.2687,-1.3001,-1.3382,-1.3739,-1.3994,-1.419,-1.4214,-1.4145,-1.4007,-1.4065,-1.4382,-1.4505,-1.4777,-1.5279,-1.535,-1.543,-1.5652,-1.6104,-1.657,-1.7054,-1.754,-1.7932,-1.8295,-1.8632,-1.8911,-1.9195,-1.9138,-1.9129,-1.9328,-1.946,-1.9617,-1.9772,-1.9978,-2.0169,-2.0435,-2.0636,-2.0885,-2.0983,-2.1046,-2.1109,-2.1171,-2.1381,-2.1722,-2.2474,-2.3716,-2.504,-2.5678,-2.5925,-2.5611,-2.4922,-2.4899,-2.4747,-2.4344,-2.455,-2.4892,-2.4894,-2.4966,-2.5068,-2.5068,-2.5068,-2.5068,-2.5123,-2.5123,-2.5162,-2.5201,-2.5262,-2.5262,-2.5262,-2.5339,-2.5404,-2.5688,-2.6014,-2.6487,-2.68,-2.6948,-2.7026,-2.7333,-2.7879,-2.7974,-0.336,-0.3426,-0.3426,-0.356,-0.3763,-0.3892,-0.4023,-0.4092,-0.4425,-0.4691,-0.4821,-0.509,-0.5216,-0.5216,-0.5286,-0.4818,-0.3954,-0.4223,-0.4553,-0.4815,-0.5282,-0.5815,-0.6308,-0.6928,-0.7355,-0.7607,-0.8097,-0.8779,-0.9495,-1.0467,-1.1149,-1.1567,-1.1799,-1.2261,-1.2861,-1.3267,-1.358,-1.3853,-1.4252,-1.4466,-1.4588,-1.4913,-1.4951,-1.4815,-1.478,-1.471,-1.4773,-1.481,-1.5065,-1.5542,-1.5811,-1.5999,-1.6322,-1.6729,-1.7011,-1.7278,-1.771,-1.8068,-1.8397,-1.8861,-1.9221,-1.9333,-1.9661,-1.9768,-1.9531,-1.9834,-1.9964,-1.9922,-2.0155,-2.0451,-2.0524,-2.0885,-2.1144,-2.1095,-2.1131,-2.1144,-2.1158,-2.1354,-2.2001,-2.3016,-2.4031,-2.5082,-2.582,-2.6021,-2.5763,-2.5097,-2.528,-2.4942,-2.4344,-2.4416,-2.4791,-2.4886,-2.5005,-2.5107,-2.5185,-2.5262,-2.5262,-2.5301,-2.5339,-2.5416,-2.553,-2.5605,-2.5642,-2.5642,-2.5642,-2.5605,-2.5767,-2.6059,-2.6411,-2.6749,-2.6814,-2.6846,-2.7064,-2.7255,-2.7491,-0.3892,-0.3961,-0.3964,-0.4092,-0.4289,-0.4287,-0.442,-0.4558,-0.4691,-0.509,-0.562,-0.5557,-0.5752,-0.5947,-0.5815,-0.5617,-0.5613,-0.5613,-0.5741,-0.5873,-0.6284,-0.6692,-0.7179,-0.7527,-0.7966,-0.8346,-0.8764,-0.9176,-0.962,-1.0891,-1.1654,-1.1875,-1.2473,-1.2946,-1.3584,-1.393,-1.4171,-1.4363,-1.453,-1.4741,-1.4949,-1.5375,-1.5368,-1.4888,-1.5287,-1.5432,-1.5102,-1.5169,-1.5332,-1.5742,-1.6134,-1.6606,-1.7123,-1.7457,-1.7678,-1.7711,-1.7844,-1.7954,-1.821,-1.8923,-1.9302,-1.942,-2.0226,-2.0379,-2.0007,-2.0686,-2.1053,-2.0498,-2.0797,-2.1225,-2.0819,-2.0924,-2.101,-2.0938,-2.101,-2.1046,-2.1193,-2.1706,-2.2715,-2.4035,-2.4634,-2.4861,-2.5256,-2.5449,-2.5358,-2.5191,-2.4954,-2.4612,-2.4298,-2.4405,-2.4686,-2.495,-2.5068,-2.5201,-2.5355,-2.547,-2.5454,-2.5454,-2.5454,-2.553,-2.568,-2.5791,-2.5791,-2.5828,-2.5844,-2.5791,-2.5807,-2.6085,-2.6307,-2.6562,-2.6574,-2.6631,-2.6836,-2.7055,-2.7404,-0.4095,-0.4359,-0.4425,-0.4495,-0.4625,-0.4625,-0.4761,-0.4954,-0.5355,-0.5686,-0.6013,-0.635,-0.6548,-0.6609,-0.6675,-0.6736,-0.6929,-0.7129,-0.6999,-0.6692,-0.7198,-0.7659,-0.7933,-0.8439,-0.8985,-0.9314,-0.9174,-0.962,-1.0524,-1.1179,-1.1817,-1.2599,-1.2906,-1.3482,-1.4095,-1.445,-1.4617,-1.4471,-1.4956,-1.5171,-1.5112,-1.5522,-1.5671,-1.5552,-1.5469,-1.5461,-1.5576,-1.5407,-1.5684,-1.6355,-1.667,-1.7112,-1.7788,-1.7897,-1.7897,-1.8107,-1.8305,-1.852,-1.8756,-1.9218,-1.9698,-2.0036,-2.0219,-2.0436,-2.0853,-2.1091,-2.125,-2.1217,-2.1417,-2.1303,-2.1237,-2.1036,-2.0964,-2.0961,-2.1033,-2.1345,-2.181,-2.2706,-2.3714,-2.4417,-2.4702,-2.4952,-2.5128,-2.5134,-2.4814,-2.4567,-2.4505,-2.4462,-2.4237,-2.4457,-2.4726,-2.4886,-2.5045,-2.5278,-2.5394,-2.5546,-2.5584,-2.5605,-2.5642,-2.568,-2.5791,-2.5901,-2.5954,-2.599,-2.599,-2.599,-2.6007,-2.6072,-2.6274,-2.6327,-2.6366,-2.6455,-2.6612,-2.6864,-2.7111,-0.4669,-0.4894,-0.4894,-0.496,-0.509,-0.5027,-0.509,-0.5355,-0.569,-0.6083,-0.6346,-0.6745,-0.7012,-0.7138,-0.7335,-0.7466,-0.7722,-0.8047,-0.8022,-0.7753,-0.8067,-0.8394,-0.8503,-0.9109,-0.9631,-1.0007,-0.9828,-1.0072,-1.0922,-1.1346,-1.1918,-1.2664,-1.292,-1.3323,-1.3909,-1.4198,-1.4271,-1.4271,-1.4825,-1.512,-1.5158,-1.553,-1.5809,-1.5716,-1.5589,-1.5651,-1.579,-1.5791,-1.611,-1.6722,-1.7264,-1.7897,-1.8506,-1.8452,-1.8452,-1.8511,-1.8611,-1.8765,-1.8943,-1.9404,-1.9793,-2.0165,-2.032,-2.0529,-2.1174,-2.1215,-2.1758,-2.139,-2.1666,-2.1603,-2.1288,-2.1112,-2.1067,-2.1402,-2.1429,-2.177,-2.2398,-2.3282,-2.4039,-2.4443,-2.4584,-2.4747,-2.4912,-2.4681,-2.4334,-2.395,-2.4104,-2.4369,-2.42,-2.4467,-2.467,-2.4926,-2.5162,-2.5317,-2.547,-2.5546,-2.5659,-2.5717,-2.5828,-2.5864,-2.5937,-2.6026,-2.6115,-2.6115,-2.6115,-2.6115,-2.6079,-2.6115,-2.625,-2.6203,-2.6203,-2.6324,-2.6497,-2.6465,-2.6751,-0.5365,-0.5446,-0.5428,-0.5491,-0.555,-0.5425,-0.5422,-0.5617,-0.5822,-0.6218,-0.6679,-0.6881,-0.7204,-0.7521,-0.7657,-0.7857,-0.8112,-0.8431,-0.8913,-0.9139,-0.9171,-0.9032,-0.9162,-0.9524,-0.9956,-1.0361,-1.0445,-1.0566,-1.0855,-1.1423,-1.1894,-1.2183,-1.2621,-1.2893,-1.324,-1.3313,-1.3723,-1.3965,-1.447,-1.4771,-1.4863,-1.553,-1.5735,-1.5355,-1.5737,-1.5898,-1.5888,-1.6306,-1.6694,-1.6987,-1.7909,-1.8614,-1.8934,-1.9105,-1.9052,-1.8987,-1.8851,-1.8839,-1.8887,-1.942,-1.9885,-1.9912,-2.0686,-2.1313,-2.0847,-2.1712,-2.2066,-2.1186,-2.1681,-2.1931,-2.1257,-2.1,-2.1326,-2.1998,-2.2213,-2.2481,-2.2936,-2.3496,-2.4199,-2.4632,-2.4465,-2.4269,-2.4788,-2.437,-2.3963,-2.3733,-2.3859,-2.4085,-2.4348,-2.463,-2.4871,-2.5084,-2.5278,-2.5416,-2.553,-2.5605,-2.5717,-2.5844,-2.5954,-2.599,-2.6026,-2.6115,-2.6203,-2.6203,-2.6203,-2.6203,-2.6203,-2.6203,-2.6203,-2.6203,-2.6222,-2.6293,-2.6382,-2.6469,-2.6623,-0.5555,-0.6128,-0.5877,-0.569,-0.5617,-0.555,-0.5554,-0.5617,-0.5822,-0.6288,-0.6811,-0.7007,-0.7461,-0.7972,-0.8042,-0.8366,-0.8818,-0.9011,-0.942,-1.0001,-0.997,-0.9849,-0.9852,-1.0101,-1.0341,-1.0526,-1.0653,-1.0805,-1.1184,-1.127,-1.1611,-1.2173,-1.24,-1.2766,-1.3073,-1.3502,-1.3712,-1.3809,-1.4336,-1.4841,-1.5024,-1.5285,-1.5589,-1.5843,-1.6056,-1.6198,-1.6202,-1.6955,-1.7523,-1.7776,-1.8344,-1.8905,-1.921,-1.9158,-1.9158,-1.921,-1.9011,-1.9018,-1.9365,-1.9485,-1.99,-2.0563,-2.0539,-2.0754,-2.1609,-2.1637,-2.1835,-2.172,-2.2023,-2.1786,-2.1468,-2.1212,-2.1603,-2.26,-2.3043,-2.3433,-2.3784,-2.4464,-2.5149,-2.534,-2.5142,-2.4977,-2.4825,-2.4508,-2.4149,-2.4006,-2.4135,-2.4359,-2.463,-2.4871,-2.5162,-2.5256,-2.541,-2.5546,-2.5642,-2.5701,-2.5775,-2.5954,-2.6063,-2.6151,-2.6151,-2.6203,-2.6203,-2.6203,-2.6203,-2.6203,-2.6203,-2.6203,-2.6203,-2.6187,-2.6277,-2.6382,-2.6589,-2.6759,-2.6825,-0.6348,-0.6785,-0.6511,-0.6254,-0.6041,-0.5911,-0.5947,-0.6083,-0.6346,-0.6745,-0.7204,-0.7466,-0.7787,-0.8166,-0.8371,-0.8818,-0.9332,-0.953,-0.9982,-1.0613,-1.0748,-1.0666,-1.0478,-1.06,-1.0766,-1.0947,-1.0929,-1.1186,-1.1469,-1.14,-1.1632,-1.1978,-1.2312,-1.2515,-1.2744,-1.322,-1.3515,-1.3635,-1.4196,-1.4674,-1.4934,-1.5256,-1.5584,-1.5929,-1.6227,-1.6407,-1.6807,-1.7412,-1.7865,-1.8224,-1.8614,-1.8999,-1.9275,-1.9198,-1.921,-1.9328,-1.9064,-1.9102,-1.9431,-1.9474,-1.9874,-2.0486,-2.0321,-2.0695,-2.1316,-2.1407,-2.1642,-2.1719,-2.1719,-2.1652,-2.1629,-2.1569,-2.1965,-2.2685,-2.3416,-2.3987,-2.4297,-2.5011,-2.5411,-2.5418,-2.5213,-2.5019,-2.4864,-2.4491,-2.4338,-2.4284,-2.4451,-2.4695,-2.4895,-2.5146,-2.5371,-2.541,-2.5486,-2.5621,-2.5717,-2.5791,-2.5974,-2.6099,-2.6277,-2.6345,-2.631,-2.6274,-2.6239,-2.6239,-2.6203,-2.6203,-2.6187,-2.6222,-2.6222,-2.6258,-2.633,-2.6469,-2.6725,-2.6909,-2.6975,-0.7482,-0.7408,-0.722,-0.6962,-0.6716,-0.6443,-0.6502,-0.6675,-0.6942,-0.7335,-0.7661,-0.7857,-0.8112,-0.8301,-0.8635,-0.9022,-0.9582,-0.9786,-1.0431,-1.1002,-1.1323,-1.1307,-1.1084,-1.0941,-1.1135,-1.1455,-1.1404,-1.1518,-1.1675,-1.1755,-1.1832,-1.2087,-1.2321,-1.2398,-1.2679,-1.2932,-1.3172,-1.35,-1.3994,-1.4505,-1.4833,-1.5283,-1.5751,-1.6254,-1.667,-1.7098,-1.7444,-1.7767,-1.7975,-1.8422,-1.8786,-1.9052,-1.9223,-1.9368,-1.9368,-1.9275,-1.917,-1.9153,-1.9361,-1.9636,-1.9783,-2.0193,-2.0463,-2.0612,-2.0972,-2.1286,-2.1453,-2.1385,-2.1539,-2.1672,-2.1681,-2.2073,-2.2451,-2.2711,-2.3224,-2.3996,-2.4723,-2.5177,-2.5312,-2.5166,-2.4876,-2.4684,-2.4535,-2.4383,-2.4242,-2.4611,-2.4791,-2.4989,-2.5146,-2.5339,-2.5432,-2.5448,-2.5562,-2.5659,-2.5807,-2.5917,-2.6099,-2.6293,-2.6503,-2.6572,-2.6468,-2.6434,-2.6329,-2.6258,-2.6293,-2.6293,-2.6258,-2.6258,-2.6293,-2.6382,-2.6521,-2.6657,-2.6809,-2.6975,-2.7089,-0.787,-0.8092,-0.8146,-0.7711,-0.7031,-0.7179,-0.7069,-0.6741,-0.7068,-0.7466,-0.7727,-0.7922,-0.8312,-0.8818,-0.8894,-0.9221,-0.9856,-1.0047,-1.0474,-1.1248,-1.1788,-1.1921,-1.1788,-1.1575,-1.1522,-1.1616,-1.1718,-1.1854,-1.2002,-1.2119,-1.2243,-1.2552,-1.2674,-1.2797,-1.3094,-1.3216,-1.3398,-1.3718,-1.4056,-1.4487,-1.4899,-1.542,-1.6048,-1.6825,-1.7586,-1.8021,-1.8136,-1.8246,-1.8379,-1.8572,-1.8827,-1.9105,-1.9316,-1.938,-1.9433,-1.942,-1.934,-1.9434,-1.9904,-1.9945,-2.0051,-2.0655,-2.0629,-2.0649,-2.0888,-2.1215,-2.139,-2.1423,-2.1774,-2.2021,-2.2033,-2.238,-2.263,-2.281,-2.3211,-2.3761,-2.4235,-2.4451,-2.4747,-2.5134,-2.5154,-2.5018,-2.4837,-2.4874,-2.4859,-2.4997,-2.5107,-2.5278,-2.5416,-2.5567,-2.5605,-2.5621,-2.577,-2.5901,-2.601,-2.6154,-2.6382,-2.6555,-2.6742,-2.6842,-2.6725,-2.6623,-2.6521,-2.6452,-2.6434,-2.6434,-2.6347,-2.6382,-2.6452,-2.6555,-2.6657,-2.6775,-2.6893,-2.7057,-2.7122,-0.8014,-0.8597,-0.8544,-0.8152,-0.77,-0.7602,-0.7499,-0.7405,-0.7526,-0.7852,-0.8182,-0.8376,-0.8759,-0.9204,-0.9204,-0.953,-1.0047,-1.0428,-1.0933,-1.156,-1.1941,-1.2058,-1.2313,-1.2243,-1.212,-1.2058,-1.2174,-1.2421,-1.2605,-1.2728,-1.2972,-1.3224,-1.3354,-1.3407,-1.3571,-1.3692,-1.3872,-1.407,-1.4378,-1.4734,-1.5039,-1.5381,-1.6022,-1.7011,-1.7809,-1.8205,-1.826,-1.8409,-1.8541,-1.8732,-1.8934,-1.9158,-1.9275,-1.9368,-1.942,-1.9473,-1.9512,-1.9676,-2.0035,-2.0271,-2.0488,-2.0965,-2.093,-2.1,-2.1059,-2.1242,-2.1423,-2.1554,-2.1855,-2.2044,-2.2292,-2.2395,-2.2614,-2.278,-2.2971,-2.3427,-2.3983,-2.412,-2.4284,-2.4814,-2.4817,-2.4746,-2.4771,-2.4948,-2.5072,-2.5045,-2.5224,-2.5394,-2.5567,-2.5701,-2.5791,-2.5864,-2.601,-2.6154,-2.6243,-2.6435,-2.6691,-2.6825,-2.6957,-2.7023,-2.7006,-2.6875,-2.6775,-2.6708,-2.6623,-2.6504,-2.6453,-2.6538,-2.6589,-2.6606,-2.6708,-2.6859,-2.6959,-2.7072,-2.7072,-0.8142,-0.8938,-0.8785,-0.8638,-0.8326,-0.8077,-0.7972,-0.8052,-0.8236,-0.8436,-0.8765,-0.8958,-0.9139,-0.9454,-0.9524,-0.9843,-1.0358,-1.0863,-1.1365,-1.1872,-1.1996,-1.2243,-1.256,-1.2683,-1.2805,-1.2736,-1.2797,-1.3033,-1.3277,-1.3519,-1.3571,-1.383,-1.395,-1.401,-1.4061,-1.4291,-1.4419,-1.4497,-1.4793,-1.497,-1.5088,-1.542,-1.6087,-1.6973,-1.7756,-1.8146,-1.8265,-1.8422,-1.8667,-1.8798,-1.904,-1.9158,-1.9275,-1.9368,-1.9473,-1.9525,-1.9656,-1.99,-2.0259,-2.0549,-2.0835,-2.1046,-2.1193,-2.1277,-2.1375,-2.1471,-2.165,-2.1793,-2.203,-2.2203,-2.2463,-2.252,-2.2566,-2.2644,-2.2661,-2.3028,-2.3766,-2.4014,-2.4196,-2.4471,-2.4552,-2.4487,-2.4641,-2.4867,-2.4973,-2.5146,-2.5339,-2.553,-2.5701,-2.5885,-2.5994,-2.6154,-2.633,-2.6624,-2.6758,-2.6791,-2.7055,-2.712,-2.7198,-2.723,-2.7261,-2.7198,-2.7085,-2.6891,-2.6791,-2.6725,-2.6657,-2.6725,-2.6708,-2.6674,-2.6759,-2.6942,-2.704,-2.7087,-2.7072,-0.8433,-0.918,-0.9303,-0.9157,-0.8831,-0.8821,-0.8667,-0.8528,-0.8759,-0.8823,-0.8899,-0.9151,-0.9396,-0.9524,-0.9664,-1.011,-1.0674,-1.1115,-1.1498,-1.1934,-1.2182,-1.2567,-1.2744,-1.305,-1.3302,-1.3528,-1.3459,-1.3459,-1.3519,-1.364,-1.4028,-1.4309,-1.4276,-1.4414,-1.4662,-1.4725,-1.4812,-1.4862,-1.5098,-1.5215,-1.5323,-1.5778,-1.64,-1.7289,-1.8036,-1.8393,-1.8426,-1.8518,-1.8679,-1.8786,-1.8934,-1.9146,-1.9368,-1.9512,-1.9668,-1.9836,-1.9862,-2.0105,-2.051,-2.0709,-2.1019,-2.1277,-2.1471,-2.1506,-2.165,-2.1841,-2.203,-2.2263,-2.2526,-2.2754,-2.2934,-2.2799,-2.2814,-2.283,-2.2786,-2.286,-2.3541,-2.3926,-2.4268,-2.4741,-2.4567,-2.4376,-2.4651,-2.4934,-2.513,-2.5378,-2.5567,-2.5754,-2.5901,-2.6101,-2.6314,-2.6469,-2.664,-2.6973,-2.731,-2.7324,-2.7434,-2.7434,-2.7496,-2.7483,-2.7496,-2.7509,-2.7417,-2.7213,-2.7085,-2.7053,-2.6989,-2.6923,-2.694,-2.6942,-2.7007,-2.7055,-2.7087,-2.7169,-2.7122,-0.8091,-0.9219,-0.9349,-0.9388,-0.9365,-0.9124,-0.9066,-0.9028,-0.9204,-0.9274,-0.9408,-0.9664,-0.9913,-1.004,-1.0174,-1.0555,-1.0989,-1.1122,-1.156,-1.1996,-1.2436,-1.2752,-1.2928,-1.318,-1.3476,-1.3709,-1.3761,-1.3872,-1.3992,-1.4121,-1.445,-1.4953,-1.4981,-1.5042,-1.5223,-1.5292,-1.52,-1.5233,-1.5332,-1.5449,-1.5556,-1.6124,-1.6807,-1.7389,-1.8069,-1.8533,-1.8666,-1.8798,-1.8946,-1.9105,-1.9291,-1.9448,-1.9604,-1.9772,-1.9939,-2.0042,-2.0118,-2.0346,-2.0809,-2.0957,-2.1277,-2.1568,-2.1698,-2.1841,-2.1935,-2.2137,-2.2417,-2.2632,-2.2768,-2.3024,-2.329,-2.3113,-2.3172,-2.3319,-2.3054,-2.3214,-2.3721,-2.4024,-2.4564,-2.5077,-2.4854,-2.4773,-2.4942,-2.5169,-2.5362,-2.5605,-2.5791,-2.5974,-2.6118,-2.6383,-2.6657,-2.6873,-2.7085,-2.7338,-2.7647,-2.7707,-2.7707,-2.7707,-2.7707,-2.7694,-2.7665,-2.7677,-2.763,-2.7491,-2.74,-2.7307,-2.7149,-2.7021,-2.712,-2.7154,-2.7105,-2.7072,-2.7169,-2.7201,-2.7154,-0.7777,-0.9327,-0.935,-0.9566,-0.9802,-0.9426,-0.9408,-0.9582,-0.9646,-0.9722,-0.9862,-1.018,-1.0434,-1.0561,-1.0688,-1.087,-1.1247,-1.1185,-1.1553,-1.2058,-1.2375,-1.2683,-1.2928,-1.3224,-1.3467,-1.3769,-1.401,-1.4181,-1.435,-1.4478,-1.4911,-1.5264,-1.5486,-1.5584,-1.5638,-1.5621,-1.5515,-1.5566,-1.5604,-1.5778,-1.6077,-1.6467,-1.6987,-1.7301,-1.7963,-1.8476,-1.8744,-1.8999,-1.9223,-1.9368,-1.9552,-1.9747,-1.9862,-2.008,-2.0195,-2.0144,-2.0435,-2.066,-2.0908,-2.1166,-2.1471,-2.1712,-2.1902,-2.203,-2.2217,-2.2356,-2.2586,-2.2859,-2.3083,-2.3172,-2.3436,-2.3465,-2.3566,-2.3651,-2.3558,-2.3553,-2.421,-2.4661,-2.4918,-2.5156,-2.5068,-2.5169,-2.5362,-2.5384,-2.5589,-2.5885,-2.6118,-2.626,-2.6469,-2.6791,-2.7085,-2.7352,-2.7582,-2.773,-2.7922,-2.7979,-2.795,-2.794,-2.7929,-2.7888,-2.7842,-2.7813,-2.7719,-2.7642,-2.7612,-2.7491,-2.7307,-2.7166,-2.7233,-2.7218,-2.7122,-2.7122,-2.7218,-2.725,-2.7218,-0.828,-0.938,-0.9421,-0.9786,-1.0202,-1.0014,-0.9989,-1.0238,-1.0238,-1.011,-1.011,-1.0371,-1.0624,-1.0681,-1.0744,-1.0933,-1.1122,-1.131,-1.1553,-1.1996,-1.2305,-1.256,-1.2867,-1.3155,-1.3519,-1.383,-1.4079,-1.4318,-1.4488,-1.4597,-1.493,-1.534,-1.5417,-1.5449,-1.593,-1.595,-1.5722,-1.5866,-1.6009,-1.6228,-1.6591,-1.6751,-1.7099,-1.759,-1.7963,-1.8387,-1.8786,-1.9105,-1.9303,-1.9473,-1.9565,-1.9708,-1.9811,-2.008,-2.0296,-2.0398,-2.0586,-2.0759,-2.1068,-2.1264,-2.1506,-2.1759,-2.1841,-2.1996,-2.2263,-2.2586,-2.2814,-2.2889,-2.326,-2.348,-2.3625,-2.3668,-2.3824,-2.3903,-2.3865,-2.4153,-2.4768,-2.5352,-2.5599,-2.5562,-2.5589,-2.5717,-2.5864,-2.5775,-2.5775,-2.6101,-2.6383,-2.6556,-2.6825,-2.7195,-2.7491,-2.776,-2.7933,-2.8091,-2.8119,-2.8201,-2.8174,-2.8136,-2.8071,-2.8032,-2.7957,-2.79,-2.7795,-2.7719,-2.7672,-2.7642,-2.7491,-2.7386,-2.7376,-2.7313,-2.725,-2.725,-2.7299,-2.7282,-2.725,-0.8939,-0.9486,-0.9829,-1.0174,-1.0458,-1.0481,-1.0618,-1.0863,-1.1052,-1.1052,-1.0996,-1.1185,-1.1247,-1.1185,-1.1247,-1.1435,-1.1622,-1.1593,-1.174,-1.2089,-1.2397,-1.272,-1.2989,-1.3346,-1.3709,-1.383,-1.4079,-1.4258,-1.4369,-1.4565,-1.4918,-1.5544,-1.5702,-1.6019,-1.63,-1.6422,-1.6348,-1.6389,-1.6467,-1.6694,-1.6987,-1.711,-1.7323,-1.7799,-1.8007,-1.8387,-1.8827,-1.9146,-1.946,-1.9733,-1.9965,-2.0207,-2.0308,-2.0472,-2.0686,-2.0736,-2.0885,-2.0983,-2.1082,-2.1277,-2.152,-2.1759,-2.1935,-2.2217,-2.254,-2.2768,-2.3053,-2.3231,-2.3407,-2.3625,-2.3839,-2.4009,-2.4204,-2.4292,-2.4284,-2.4705,-2.5291,-2.5933,-2.6307,-2.6178,-2.6118,-2.6189,-2.626,-2.6295,-2.6262,-2.647,-2.6774,-2.7036,-2.7303,-2.7666,-2.7933,-2.8146,-2.83,-2.8406,-2.8406,-2.8388,-2.8335,-2.8273,-2.8182,-2.8126,-2.8042,-2.7957,-2.7853,-2.7777,-2.7701,-2.7672,-2.763,-2.7539,-2.7452,-2.7407,-2.7376,-2.7345,-2.7313,-2.7299,-2.7282,-0.9412,-0.9652,-1.0174,-1.0434,-1.0561,-1.087,-1.1122,-1.1373,-1.1615,-1.1747,-1.1809,-1.1926,-1.1981,-1.195,-1.1897,-1.2004,-1.221,-1.1958,-1.204,-1.2282,-1.2546,-1.2742,-1.3015,-1.3425,-1.3725,-1.3821,-1.4207,-1.4378,-1.4401,-1.4483,-1.4843,-1.573,-1.5723,-1.6173,-1.6612,-1.653,-1.6402,-1.6605,-1.6845,-1.7134,-1.7323,-1.7357,-1.7567,-1.7843,-1.8104,-1.8417,-1.8975,-1.9303,-1.9617,-1.9978,-2.0271,-2.0459,-2.0597,-2.0588,-2.0788,-2.0873,-2.0895,-2.0903,-2.117,-2.1423,-2.1616,-2.1855,-2.2137,-2.2449,-2.2678,-2.2873,-2.3112,-2.3422,-2.3596,-2.3839,-2.4078,-2.4302,-2.4574,-2.4816,-2.4907,-2.533,-2.5726,-2.6267,-2.6632,-2.6552,-2.6521,-2.6572,-2.6674,-2.6759,-2.6842,-2.6923,-2.7181,-2.7461,-2.7771,-2.8083,-2.821,-2.8353,-2.8432,-2.8536,-2.8536,-2.851,-2.8484,-2.8406,-2.8318,-2.8182,-2.8099,-2.8014,-2.794,-2.7836,-2.773,-2.7701,-2.7719,-2.76,-2.7526,-2.7483,-2.739,-2.7327,-2.7313,-2.733,-2.7299,-0.9575,-0.9804,-1.0358,-1.0471,-1.0421,-1.1178,-1.156,-1.1648,-1.1794,-1.1988,-1.2243,-1.2528,-1.2765,-1.2797,-1.2627,-1.2605,-1.2555,-1.215,-1.2174,-1.2206,-1.2276,-1.2643,-1.296,-1.3331,-1.3629,-1.3927,-1.4205,-1.4458,-1.4613,-1.4458,-1.4879,-1.5477,-1.5479,-1.5856,-1.6125,-1.617,-1.6364,-1.6656,-1.7071,-1.7424,-1.7611,-1.7667,-1.7754,-1.8038,-1.8174,-1.8448,-1.9121,-1.9396,-1.972,-2.0067,-2.0281,-2.0393,-2.0499,-2.0351,-2.0468,-2.0684,-2.0604,-2.0752,-2.1206,-2.1609,-2.1868,-2.2044,-2.2324,-2.2555,-2.2737,-2.3053,-2.3334,-2.3509,-2.3769,-2.3991,-2.4256,-2.4558,-2.4823,-2.4922,-2.5106,-2.5661,-2.6042,-2.6502,-2.6792,-2.6843,-2.6876,-2.6908,-2.707,-2.7166,-2.7181,-2.7258,-2.7535,-2.7847,-2.8045,-2.8309,-2.8362,-2.8484,-2.8536,-2.8587,-2.8587,-2.8562,-2.8536,-2.8484,-2.838,-2.8246,-2.8126,-2.8053,-2.7996,-2.7882,-2.7795,-2.7777,-2.7748,-2.763,-2.7557,-2.7496,-2.7434,-2.7359,-2.7313,-2.733,-2.7282,-0.9187,-0.96,-1.0094,-1.0242,-1.0239,-1.141,-1.1928,-1.2033,-1.2554,-1.2964,-1.3147,-1.3321,-1.3365,-1.3377,-1.346,-1.3343,-1.3043,-1.2884,-1.2714,-1.263,-1.2692,-1.2753,-1.3043,-1.3302,-1.3551,-1.3698,-1.3998,-1.4364,-1.4554,-1.4625,-1.5215,-1.5512,-1.5249,-1.5574,-1.5823,-1.6078,-1.6461,-1.6815,-1.714,-1.7407,-1.8061,-1.8007,-1.805,-1.8387,-1.8417,-1.865,-1.9121,-1.9344,-1.972,-1.994,-2.0075,-2.0156,-2.0206,-1.9954,-2.0032,-2.0373,-2.0307,-2.0749,-2.1282,-2.1694,-2.1969,-2.2278,-2.2537,-2.2766,-2.2754,-2.3024,-2.3363,-2.3625,-2.3933,-2.404,-2.4061,-2.4408,-2.4758,-2.483,-2.5225,-2.5849,-2.6303,-2.6673,-2.6977,-2.7024,-2.7087,-2.7166,-2.7338,-2.7539,-2.7552,-2.7595,-2.7904,-2.8174,-2.8335,-2.8458,-2.851,-2.8536,-2.8562,-2.8612,-2.8612,-2.8587,-2.8562,-2.851,-2.8458,-2.8327,-2.8209,-2.8126,-2.8042,-2.7957,-2.7871,-2.7853,-2.7795,-2.7677,-2.7587,-2.7526,-2.7452,-2.7345,-2.733,-2.733,-2.7282,-0.9356,-0.9874,-1.0172,-1.0277,-1.0463,-1.1624,-1.2193,-1.2373,-1.3081,-1.3717,-1.3974,-1.3992,-1.4038,-1.4092,-1.4112,-1.4092,-1.3791,-1.3617,-1.3474,-1.3342,-1.3176,-1.3159,-1.3296,-1.3478,-1.3607,-1.3528,-1.3819,-1.4291,-1.4606,-1.4965,-1.5194,-1.5248,-1.5028,-1.5254,-1.5708,-1.6192,-1.6546,-1.7025,-1.7283,-1.7558,-1.834,-1.8344,-1.8344,-1.8679,-1.8732,-1.8934,-1.9251,-1.946,-1.9772,-1.9965,-2.0008,-1.9878,-1.9753,-1.9653,-1.957,-1.9901,-2.0202,-2.0645,-2.1318,-2.1801,-2.2203,-2.2537,-2.2433,-2.2685,-2.2892,-2.2893,-2.2864,-2.3614,-2.3794,-2.3858,-2.3756,-2.4178,-2.4426,-2.4514,-2.5396,-2.6029,-2.6262,-2.6563,-2.6933,-2.7201,-2.7279,-2.7341,-2.7612,-2.7789,-2.795,-2.7961,-2.8128,-2.8335,-2.8458,-2.8536,-2.8562,-2.8587,-2.8587,-2.8612,-2.8637,-2.8612,-2.8587,-2.8594,-2.8536,-2.8398,-2.8291,-2.8209,-2.8099,-2.7986,-2.7929,-2.7911,-2.7824,-2.7736,-2.7647,-2.7557,-2.7452,-2.733,-2.733,-2.733,-2.7233,-1.0202,-1.0854,-1.0802,-1.0755,-1.085,-1.1898,-1.2508,-1.2758,-1.3396,-1.3995,-1.44,-1.4468,-1.473,-1.4965,-1.4769,-1.465,-1.4539,-1.4307,-1.41,-1.3914,-1.3754,-1.3709,-1.3671,-1.3719,-1.3767,-1.3908,-1.409,-1.4355,-1.4704,-1.4697,-1.4853,-1.5001,-1.4903,-1.4825,-1.5348,-1.5697,-1.6286,-1.6982,-1.7475,-1.7838,-1.8401,-1.8496,-1.8602,-1.872,-1.9052,-1.9275,-1.942,-1.9565,-1.9825,-1.9976,-1.9749,-1.9716,-1.9834,-1.9158,-1.9323,-2.0333,-1.9814,-2.039,-2.1847,-2.2289,-2.2546,-2.2651,-2.2556,-2.2556,-2.2861,-2.2655,-2.2458,-2.3367,-2.3362,-2.3371,-2.3531,-2.3852,-2.4046,-2.4269,-2.5139,-2.5826,-2.6007,-2.6705,-2.7126,-2.7327,-2.739,-2.7531,-2.7806,-2.8063,-2.8273,-2.8353,-2.844,-2.8518,-2.8587,-2.8637,-2.8637,-2.8662,-2.8662,-2.8662,-2.8662,-2.8637,-2.8612,-2.8637,-2.8569,-2.8432,-2.8371,-2.8318,-2.8209,-2.8025,-2.8014,-2.8042,-2.7929,-2.7783,-2.7677,-2.7526,-2.7407,-2.7299,-2.7299,-2.7299,-2.7201,-1.0232,-1.0926,-1.1182,-1.1652,-1.2206,-1.2833,-1.3155,-1.3451,-1.4355,-1.5018,-1.5174,-1.5195,-1.5212,-1.5315,-1.5367,-1.5233,-1.5025,-1.5027,-1.4801,-1.4468,-1.4305,-1.411,-1.402,-1.4007,-1.3913,-1.3926,-1.4086,-1.4513,-1.4942,-1.4866,-1.5132,-1.537,-1.4965,-1.497,-1.528,-1.5568,-1.5916,-1.6906,-1.7095,-1.7149,-1.8195,-1.8355,-1.8418,-1.8545,-1.9068,-1.9347,-1.9451,-1.962,-1.9649,-1.9643,-1.93,-1.9191,-1.9303,-1.8661,-1.8726,-1.9487,-1.9252,-1.9537,-2.0736,-2.1462,-2.2264,-2.2541,-2.2584,-2.2497,-2.2911,-2.2583,-2.2707,-2.3059,-2.3224,-2.3275,-2.3419,-2.3627,-2.3748,-2.3516,-2.4133,-2.5016,-2.5609,-2.6692,-2.7376,-2.7452,-2.7513,-2.7694,-2.794,-2.8146,-2.8327,-2.8476,-2.851,-2.8594,-2.8687,-2.8712,-2.8755,-2.8737,-2.8737,-2.8712,-2.8712,-2.8662,-2.8612,-2.8594,-2.8543,-2.8484,-2.8432,-2.8406,-2.8318,-2.8182,-2.8154,-2.8154,-2.7986,-2.7824,-2.7647,-2.7496,-2.7407,-2.733,-2.7299,-2.725,-2.712,-1.0766,-1.1289,-1.1656,-1.2309,-1.3178,-1.3561,-1.3882,-1.4327,-1.507,-1.5523,-1.5769,-1.5702,-1.5773,-1.5903,-1.5939,-1.5879,-1.5591,-1.5712,-1.5611,-1.5242,-1.4949,-1.4789,-1.4616,-1.4419,-1.432,-1.4186,-1.4255,-1.4628,-1.4869,-1.5224,-1.5391,-1.5347,-1.5165,-1.5222,-1.5369,-1.5519,-1.5742,-1.6598,-1.6765,-1.6967,-1.7738,-1.8153,-1.8238,-1.8547,-1.887,-1.9032,-1.9308,-1.9334,-1.9244,-1.9054,-1.8843,-1.8649,-1.8675,-1.8587,-1.8493,-1.9011,-1.9738,-2.0026,-2.0937,-2.1425,-2.2254,-2.2838,-2.2425,-2.2404,-2.2632,-2.2305,-2.2556,-2.2865,-2.3193,-2.3193,-2.3168,-2.3361,-2.333,-2.3108,-2.3722,-2.4625,-2.5363,-2.6432,-2.7226,-2.7287,-2.75,-2.7754,-2.7971,-2.8219,-2.838,-2.8484,-2.8562,-2.8608,-2.8688,-2.8761,-2.8785,-2.8785,-2.8767,-2.8761,-2.8712,-2.8662,-2.8619,-2.8569,-2.8518,-2.851,-2.8484,-2.844,-2.8353,-2.8273,-2.8228,-2.8156,-2.8007,-2.7853,-2.7689,-2.7557,-2.7438,-2.7376,-2.7313,-2.7201,-2.712,-1.1747,-1.2001,-1.2246,-1.2813,-1.3553,-1.4105,-1.4744,-1.5384,-1.5033,-1.5477,-1.6428,-1.5858,-1.6049,-1.6667,-1.6573,-1.6434,-1.6396,-1.6481,-1.6391,-1.6213,-1.5888,-1.5623,-1.5355,-1.5142,-1.4915,-1.4686,-1.4662,-1.4787,-1.4717,-1.4981,-1.5154,-1.5291,-1.5211,-1.5379,-1.5468,-1.5527,-1.5821,-1.6431,-1.664,-1.6951,-1.7555,-1.7834,-1.8177,-1.846,-1.862,-1.883,-1.9014,-1.9092,-1.9006,-1.8871,-1.8707,-1.8728,-1.8755,-1.8693,-1.9101,-1.9757,-2.07,-2.1126,-2.1463,-2.1734,-2.2092,-2.2483,-2.1992,-2.2181,-2.234,-2.2247,-2.2325,-2.2601,-2.2853,-2.2818,-2.2824,-2.2885,-2.2955,-2.3302,-2.3815,-2.4503,-2.5077,-2.5877,-2.6643,-2.7033,-2.7332,-2.7531,-2.7741,-2.7987,-2.7949,-2.7846,-2.7868,-2.8064,-2.8209,-2.8707,-2.8749,-2.8785,-2.8785,-2.8761,-2.8694,-2.8669,-2.8619,-2.8594,-2.8587,-2.8562,-2.8518,-2.8438,-2.8278,-2.8182,-2.8201,-2.8085,-2.7753,-2.772,-2.7777,-2.7647,-2.7513,-2.7407,-2.7345,-2.7282,-2.7169,-1.1656,-1.2074,-1.3012,-1.3661,-1.4117,-1.4676,-1.5146,-1.5361,-1.5311,-1.5745,-1.6437,-1.6353,-1.6322,-1.6357,-1.6436,-1.6531,-1.6612,-1.6664,-1.6831,-1.6754,-1.671,-1.6411,-1.6051,-1.5744,-1.5579,-1.5457,-1.5334,-1.521,-1.5222,-1.521,-1.5255,-1.5402,-1.5424,-1.5558,-1.5603,-1.5614,-1.6083,-1.6341,-1.6471,-1.6815,-1.7223,-1.7497,-1.7987,-1.8295,-1.8414,-1.8708,-1.9141,-1.9021,-1.894,-1.8779,-1.876,-1.8892,-1.9428,-1.9063,-1.907,-1.9826,-2.0451,-2.0883,-2.1195,-2.1381,-2.1728,-2.2166,-2.1951,-2.2261,-2.2468,-2.2455,-2.2247,-2.2541,-2.273,-2.279,-2.285,-2.2902,-2.2927,-2.3231,-2.3798,-2.4444,-2.5038,-2.5701,-2.6382,-2.637,-2.6683,-2.7141,-2.7352,-2.7344,-2.7259,-2.7119,-2.7181,-2.7441,-2.7767,-2.8282,-2.8348,-2.8372,-2.8567,-2.8488,-2.8646,-2.8633,-2.8626,-2.8637,-2.8612,-2.8569,-2.8551,-2.8417,-2.8193,-2.8034,-2.7975,-2.7699,-2.7352,-2.7423,-2.7657,-2.7695,-2.76,-2.7513,-2.7376,-2.7313,-2.7201,-1.1515,-1.1981,-1.2914,-1.3717,-1.4443,-1.5031,-1.536,-1.5462,-1.5513,-1.5878,-1.6416,-1.638,-1.6405,-1.6456,-1.6518,-1.6688,-1.7022,-1.7167,-1.731,-1.745,-1.738,-1.7076,-1.6697,-1.6398,-1.6238,-1.6163,-1.5988,-1.5768,-1.5712,-1.5647,-1.5647,-1.5812,-1.5768,-1.5736,-1.5824,-1.5981,-1.6146,-1.6333,-1.6421,-1.661,-1.6854,-1.7194,-1.769,-1.8216,-1.8319,-1.8668,-1.925,-1.8972,-1.8749,-1.8741,-1.8822,-1.9089,-1.9571,-1.9434,-1.9609,-2.032,-2.0639,-2.0987,-2.1247,-2.1421,-2.1664,-2.1928,-2.213,-2.2423,-2.2569,-2.2609,-2.2603,-2.2746,-2.2851,-2.2919,-2.2995,-2.3045,-2.3052,-2.3095,-2.3753,-2.441,-2.5022,-2.5652,-2.576,-2.5657,-2.5976,-2.649,-2.6694,-2.6673,-2.6925,-2.7277,-2.7423,-2.7435,-2.7676,-2.7955,-2.7789,-2.7524,-2.7856,-2.8142,-2.8276,-2.8415,-2.8511,-2.8522,-2.8612,-2.8569,-2.8533,-2.8189,-2.7784,-2.768,-2.7684,-2.7446,-2.7287,-2.7361,-2.7512,-2.7586,-2.7572,-2.7402,-2.7309,-2.7345,-2.7233,-1.135,-1.164,-1.2332,-1.3445,-1.4609,-1.5152,-1.5463,-1.564,-1.5705,-1.5994,-1.6397,-1.6269,-1.641,-1.655,-1.662,-1.6846,-1.7149,-1.7405,-1.7669,-1.7999,-1.7894,-1.7612,-1.7275,-1.7118,-1.686,-1.6731,-1.6439,-1.6015,-1.5966,-1.5935,-1.6065,-1.6299,-1.612,-1.6044,-1.6188,-1.6392,-1.6498,-1.6424,-1.664,-1.6842,-1.6829,-1.7063,-1.746,-1.8163,-1.8131,-1.8042,-1.8645,-1.8699,-1.845,-1.8745,-1.9011,-1.928,-1.9632,-2.0061,-2.0496,-2.0795,-2.1039,-2.1276,-2.1493,-2.1721,-2.1957,-2.2231,-2.2432,-2.2576,-2.2674,-2.2745,-2.2781,-2.285,-2.2952,-2.302,-2.307,-2.3077,-2.3077,-2.3225,-2.3699,-2.4102,-2.4436,-2.4919,-2.505,-2.5093,-2.5488,-2.5982,-2.6379,-2.6372,-2.6069,-2.7019,-2.7218,-2.7024,-2.7071,-2.7245,-2.7305,-2.6863,-2.7359,-2.7707,-2.752,-2.7731,-2.8232,-2.837,-2.8424,-2.8587,-2.8569,-2.8008,-2.7302,-2.7109,-2.6934,-2.7342,-2.7356,-2.7189,-2.7129,-2.7494,-2.7444,-2.7232,-2.7215,-2.7317,-2.7296,-1.1217,-1.1491,-1.2539,-1.3657,-1.4642,-1.5019,-1.5485,-1.5983,-1.6104,-1.6203,-1.639,-1.6445,-1.6413,-1.6413,-1.6556,-1.6731,-1.6888,-1.7505,-1.7795,-1.8112,-1.8218,-1.7957,-1.7639,-1.7517,-1.7344,-1.6943,-1.6559,-1.6214,-1.607,-1.6158,-1.6308,-1.6441,-1.6337,-1.6392,-1.6436,-1.6735,-1.682,-1.668,-1.7186,-1.7269,-1.7115,-1.7485,-1.7989,-1.8315,-1.8289,-1.8533,-1.8927,-1.9034,-1.9121,-1.9369,-1.9654,-1.9904,-2.0239,-2.0679,-2.099,-2.1214,-2.1448,-2.1645,-2.1853,-2.2044,-2.2231,-2.2415,-2.2596,-2.2712,-2.279,-2.2842,-2.2893,-2.2977,-2.3052,-2.3102,-2.3144,-2.3126,-2.3161,-2.3397,-2.3573,-2.3739,-2.3904,-2.4131,-2.4364,-2.4668,-2.5045,-2.5475,-2.5882,-2.5919,-2.5577,-2.552,-2.5565,-2.5497,-2.5524,-2.571,-2.6644,-2.654,-2.7084,-2.7308,-2.6982,-2.7037,-2.7526,-2.7863,-2.7918,-2.8189,-2.846,-2.7791,-2.6995,-2.6374,-2.6152,-2.6664,-2.6819,-2.6339,-2.6437,-2.697,-2.7147,-2.6886,-2.7198,-2.7391,-2.7355,-1.0886,-1.1249,-1.2394,-1.3414,-1.4259,-1.4577,-1.5114,-1.5763,-1.5867,-1.6074,-1.6278,-1.6234,-1.6143,-1.6113,-1.6204,-1.6487,-1.6678,-1.7413,-1.7681,-1.7972,-1.8419,-1.8173,-1.8001,-1.7855,-1.7775,-1.7439,-1.7115,-1.6822,-1.6423,-1.6507,-1.6667,-1.6795,-1.6765,-1.6723,-1.682,-1.7073,-1.724,-1.7102,-1.7841,-1.7962,-1.7679,-1.803,-1.8285,-1.8545,-1.8745,-1.8992,-1.9257,-1.9419,-1.9641,-1.9909,-2.017,-2.0444,-2.0728,-2.1038,-2.1277,-2.1464,-2.1691,-2.1957,-2.2158,-2.2315,-2.2443,-2.2552,-2.2685,-2.2773,-2.285,-2.2919,-2.2995,-2.3077,-2.3102,-2.3168,-2.3217,-2.3217,-2.3265,-2.3413,-2.3435,-2.3499,-2.3777,-2.4056,-2.4076,-2.4058,-2.448,-2.501,-2.5434,-2.5877,-2.5721,-2.6235,-2.5937,-2.5629,-2.5325,-2.4599,-2.5421,-2.5995,-2.6362,-2.6385,-2.595,-2.6222,-2.6801,-2.7109,-2.7363,-2.732,-2.7339,-2.7145,-2.6687,-2.623,-2.6031,-2.6201,-2.6195,-2.5799,-2.587,-2.6397,-2.6507,-2.6499,-2.6933,-2.733,-2.733,-1.0608,-1.1051,-1.2033,-1.2921,-1.366,-1.4012,-1.4669,-1.5465,-1.5483,-1.5806,-1.6258,-1.5915,-1.5841,-1.5826,-1.5799,-1.6174,-1.6653,-1.7302,-1.7537,-1.7843,-1.8673,-1.8214,-1.8054,-1.8137,-1.7949,-1.7908,-1.7765,-1.747,-1.7115,-1.7116,-1.7113,-1.7284,-1.724,-1.7186,-1.7269,-1.7475,-1.7679,-1.7828,-1.8266,-1.8616,-1.8616,-1.8539,-1.8697,-1.8836,-1.9011,-1.9265,-1.9692,-1.9899,-2.0146,-2.0454,-2.0758,-2.0942,-2.1166,-2.1402,-2.1587,-2.1781,-2.1928,-2.2158,-2.2315,-2.247,-2.2552,-2.2659,-2.2764,-2.2842,-2.2919,-2.2995,-2.3095,-2.3168,-2.3193,-2.3241,-2.3265,-2.3313,-2.3354,-2.3378,-2.3324,-2.327,-2.3625,-2.3927,-2.3762,-2.3618,-2.4057,-2.4563,-2.5046,-2.5524,-2.5924,-2.6493,-2.6631,-2.6563,-2.6109,-2.4994,-2.4769,-2.4986,-2.5095,-2.5027,-2.49,-2.5425,-2.6059,-2.624,-2.6439,-2.6349,-2.6325,-2.6524,-2.6579,-2.6362,-2.623,-2.5997,-2.5823,-2.5554,-2.5696,-2.5918,-2.5958,-2.6091,-2.6588,-2.6934,-2.7143,-1.0801,-1.1099,-1.1537,-1.2267,-1.3114,-1.3495,-1.4419,-1.5574,-1.5587,-1.594,-1.6375,-1.6219,-1.6011,-1.5996,-1.5968,-1.6108,-1.632,-1.7045,-1.7197,-1.7302,-1.8155,-1.7918,-1.7744,-1.7827,-1.7731,-1.7791,-1.792,-1.7789,-1.7269,-1.7293,-1.7569,-1.7692,-1.7464,-1.7572,-1.7935,-1.808,-1.8143,-1.8363,-1.8765,-1.9184,-1.9354,-1.9281,-1.9221,-1.9384,-1.9603,-2.0222,-2.064,-2.057,-2.0967,-2.1302,-2.1375,-2.1467,-2.157,-2.1721,-2.1899,-2.2044,-2.2231,-2.2398,-2.2552,-2.2685,-2.279,-2.2799,-2.2902,-2.297,-2.302,-2.3045,-2.3144,-2.3241,-2.3289,-2.3289,-2.3336,-2.3313,-2.3354,-2.3378,-2.3354,-2.3283,-2.343,-2.3531,-2.3508,-2.3583,-2.3812,-2.4293,-2.4766,-2.4987,-2.4974,-2.5316,-2.5226,-2.5157,-2.5135,-2.4606,-2.4208,-2.419,-2.4194,-2.4046,-2.406,-2.4719,-2.5262,-2.5425,-2.5674,-2.5886,-2.6139,-2.638,-2.6362,-2.6141,-2.5709,-2.5356,-2.5219,-2.5486,-2.539,-2.5544,-2.5526,-2.5682,-2.6201,-2.6708,-2.7009]}]]